<?xml version='1.0' encoding='UTF-8'?>
<gpx version="1.1" creator="https://www.komoot.de" xmlns="http://www.topografix.com/GPX/1/1" xmlns:xsi="http://www.w3.org/2001/XMLSchema-instance" xsi:schemaLocation="http://www.topografix.com/GPX/1/1 http://www.topografix.com/GPX/1/1/gpx.xsd">
  <metadata>
    <name>66_950SifluDietisbAsp</name>
    <author>
      <link href="https://www.komoot.de">
        <text>komoot</text>
        <type>text/html</type>
      </link>
    </author>
  </metadata>
  <trk>
    <name>66_950SifluDietisbAsp</name>
    <trkseg>
      <trkpt lat="47.542696" lon="7.869257">
        <ele>337.369567</ele>
        <time>2021-11-18T21:50:17.598Z</time>
      </trkpt>
      <trkpt lat="47.542696" lon="7.869257">
        <ele>337.369567</ele>
        <time>2021-11-18T21:50:17.601Z</time>
      </trkpt>
      <trkpt lat="47.542722" lon="7.869201">
        <ele>337.369567</ele>
        <time>2021-11-18T21:50:18.245Z</time>
      </trkpt>
      <trkpt lat="47.543049" lon="7.868759">
        <ele>337.369567</ele>
        <time>2021-11-18T21:50:23.134Z</time>
      </trkpt>
      <trkpt lat="47.543105" lon="7.868711">
        <ele>337.369567</ele>
        <time>2021-11-18T21:50:23.870Z</time>
      </trkpt>
      <trkpt lat="47.543201" lon="7.868657">
        <ele>337.369567</ele>
        <time>2021-11-18T21:50:24.933Z</time>
      </trkpt>
      <trkpt lat="47.543657" lon="7.868359">
        <ele>337.038104</ele>
        <time>2021-11-18T21:50:30.487Z</time>
      </trkpt>
      <trkpt lat="47.543801" lon="7.868269">
        <ele>336.834955</ele>
        <time>2021-11-18T21:50:32.962Z</time>
      </trkpt>
      <trkpt lat="47.544214" lon="7.867988">
        <ele>336.244221</ele>
        <time>2021-11-18T21:50:40.450Z</time>
      </trkpt>
      <trkpt lat="47.544246" lon="7.867967">
        <ele>336.198729</ele>
        <time>2021-11-18T21:50:41.046Z</time>
      </trkpt>
      <trkpt lat="47.544410" lon="7.867825">
        <ele>335.951820</ele>
        <time>2021-11-18T21:50:44.299Z</time>
      </trkpt>
      <trkpt lat="47.544469" lon="7.867776">
        <ele>335.863902</ele>
        <time>2021-11-18T21:50:45.321Z</time>
      </trkpt>
      <trkpt lat="47.544568" lon="7.867693">
        <ele>335.716043</ele>
        <time>2021-11-18T21:50:47.248Z</time>
      </trkpt>
      <trkpt lat="47.545003" lon="7.867278">
        <ele>335.043525</ele>
        <time>2021-11-18T21:50:56.097Z</time>
      </trkpt>
      <trkpt lat="47.545160" lon="7.866985">
        <ele>335.297832</ele>
        <time>2021-11-18T21:51:00.747Z</time>
      </trkpt>
      <trkpt lat="47.545240" lon="7.866887">
        <ele>335.411353</ele>
        <time>2021-11-18T21:51:03.021Z</time>
      </trkpt>
      <trkpt lat="47.546096" lon="7.866147">
        <ele>336.495165</ele>
        <time>2021-11-18T21:51:28.091Z</time>
      </trkpt>
      <trkpt lat="47.546327" lon="7.865959">
        <ele>336.783387</ele>
        <time>2021-11-18T21:51:35.828Z</time>
      </trkpt>
      <trkpt lat="47.546510" lon="7.865766">
        <ele>337.052879</ele>
        <time>2021-11-18T21:51:42.929Z</time>
      </trkpt>
      <trkpt lat="47.546819" lon="7.865489">
        <ele>337.757215</ele>
        <time>2021-11-18T21:51:53.160Z</time>
      </trkpt>
      <trkpt lat="47.546889" lon="7.865225">
        <ele>338.130582</ele>
        <time>2021-11-18T21:51:58.352Z</time>
      </trkpt>
      <trkpt lat="47.546894" lon="7.864837">
        <ele>338.641417</ele>
        <time>2021-11-18T21:52:05.771Z</time>
      </trkpt>
      <trkpt lat="47.546885" lon="7.864500">
        <ele>339.085373</ele>
        <time>2021-11-18T21:52:12.560Z</time>
      </trkpt>
      <trkpt lat="47.546877" lon="7.864345">
        <ele>339.290002</ele>
        <time>2021-11-18T21:52:15.454Z</time>
      </trkpt>
      <trkpt lat="47.546592" lon="7.863006">
        <ele>340.698093</ele>
        <time>2021-11-18T21:52:41.463Z</time>
      </trkpt>
      <trkpt lat="47.546526" lon="7.861665">
        <ele>341.235368</ele>
        <time>2021-11-18T21:53:02.195Z</time>
      </trkpt>
      <trkpt lat="47.546487" lon="7.859119">
        <ele>341.190326</ele>
        <time>2021-11-18T21:53:34.815Z</time>
      </trkpt>
      <trkpt lat="47.546537" lon="7.857497">
        <ele>340.863228</ele>
        <time>2021-11-18T21:53:55.827Z</time>
      </trkpt>
      <trkpt lat="47.546582" lon="7.856413">
        <ele>340.678302</ele>
        <time>2021-11-18T21:54:10.181Z</time>
      </trkpt>
      <trkpt lat="47.546945" lon="7.851719">
        <ele>339.198876</ele>
        <time>2021-11-18T21:55:11.215Z</time>
      </trkpt>
      <trkpt lat="47.547141" lon="7.850355">
        <ele>338.208670</ele>
        <time>2021-11-18T21:55:26.781Z</time>
      </trkpt>
      <trkpt lat="47.547143" lon="7.849985">
        <ele>337.790142</ele>
        <time>2021-11-18T21:55:30.689Z</time>
      </trkpt>
      <trkpt lat="47.547124" lon="7.848795">
        <ele>336.193377</ele>
        <time>2021-11-18T21:55:43.287Z</time>
      </trkpt>
      <trkpt lat="47.547274" lon="7.845536">
        <ele>332.218391</ele>
        <time>2021-11-18T21:56:18.046Z</time>
      </trkpt>
      <trkpt lat="47.547295" lon="7.844722">
        <ele>331.464162</ele>
        <time>2021-11-18T21:56:27.529Z</time>
      </trkpt>
      <trkpt lat="47.547313" lon="7.843735">
        <ele>331.256740</ele>
        <time>2021-11-18T21:56:39.932Z</time>
      </trkpt>
      <trkpt lat="47.547354" lon="7.842839">
        <ele>331.068079</ele>
        <time>2021-11-18T21:56:52.120Z</time>
      </trkpt>
      <trkpt lat="47.547448" lon="7.842262">
        <ele>330.942737</ele>
        <time>2021-11-18T21:57:00.547Z</time>
      </trkpt>
      <trkpt lat="47.547362" lon="7.841665">
        <ele>330.685238</ele>
        <time>2021-11-18T21:57:09.044Z</time>
      </trkpt>
      <trkpt lat="47.547339" lon="7.841072">
        <ele>330.434684</ele>
        <time>2021-11-18T21:57:16.748Z</time>
      </trkpt>
      <trkpt lat="47.547332" lon="7.840572">
        <ele>330.223727</ele>
        <time>2021-11-18T21:57:22.840Z</time>
      </trkpt>
      <trkpt lat="47.547308" lon="7.839135">
        <ele>329.227360</ele>
        <time>2021-11-18T21:57:39.267Z</time>
      </trkpt>
      <trkpt lat="47.547300" lon="7.838688">
        <ele>328.675628</ele>
        <time>2021-11-18T21:57:44.095Z</time>
      </trkpt>
      <trkpt lat="47.547276" lon="7.837287">
        <ele>326.946422</ele>
        <time>2021-11-18T21:57:58.926Z</time>
      </trkpt>
      <trkpt lat="47.547240" lon="7.836221">
        <ele>325.611461</ele>
        <time>2021-11-18T21:58:10.219Z</time>
      </trkpt>
      <trkpt lat="47.547190" lon="7.835066">
        <ele>324.154916</ele>
        <time>2021-11-18T21:58:22.725Z</time>
      </trkpt>
      <trkpt lat="47.547020" lon="7.831965">
        <ele>320.365752</ele>
        <time>2021-11-18T21:58:56.525Z</time>
      </trkpt>
      <trkpt lat="47.546946" lon="7.830852">
        <ele>318.910287</ele>
        <time>2021-11-18T21:59:08.557Z</time>
      </trkpt>
      <trkpt lat="47.546823" lon="7.829336">
        <ele>316.861357</ele>
        <time>2021-11-18T21:59:24.749Z</time>
      </trkpt>
      <trkpt lat="47.546721" lon="7.828140">
        <ele>315.122510</ele>
        <time>2021-11-18T21:59:37.460Z</time>
      </trkpt>
      <trkpt lat="47.546592" lon="7.826850">
        <ele>313.188106</ele>
        <time>2021-11-18T21:59:50.926Z</time>
      </trkpt>
      <trkpt lat="47.546574" lon="7.826239">
        <ele>312.298677</ele>
        <time>2021-11-18T21:59:57.372Z</time>
      </trkpt>
      <trkpt lat="47.546589" lon="7.825597">
        <ele>311.451725</ele>
        <time>2021-11-18T22:00:04.194Z</time>
      </trkpt>
      <trkpt lat="47.546693" lon="7.825618">
        <ele>311.246705</ele>
        <time>2021-11-18T22:00:05.861Z</time>
      </trkpt>
      <trkpt lat="47.547233" lon="7.825872">
        <ele>310.140044</ele>
        <time>2021-11-18T22:00:14.984Z</time>
      </trkpt>
      <trkpt lat="47.547666" lon="7.826091">
        <ele>309.246344</ele>
        <time>2021-11-18T22:00:22.228Z</time>
      </trkpt>
      <trkpt lat="47.548237" lon="7.826410">
        <ele>307.925933</ele>
        <time>2021-11-18T22:00:31.798Z</time>
      </trkpt>
      <trkpt lat="47.548679" lon="7.826710">
        <ele>306.836606</ele>
        <time>2021-11-18T22:00:39.361Z</time>
      </trkpt>
      <trkpt lat="47.548993" lon="7.825343">
        <ele>304.704158</ele>
        <time>2021-11-18T22:00:54.214Z</time>
      </trkpt>
      <trkpt lat="47.549090" lon="7.824807">
        <ele>304.041090</ele>
        <time>2021-11-18T22:00:59.956Z</time>
      </trkpt>
      <trkpt lat="47.549309" lon="7.823603">
        <ele>302.551154</ele>
        <time>2021-11-18T22:01:13.199Z</time>
      </trkpt>
      <trkpt lat="47.549580" lon="7.821865">
        <ele>301.505336</ele>
        <time>2021-11-18T22:01:34.637Z</time>
      </trkpt>
      <trkpt lat="47.549636" lon="7.821487">
        <ele>301.431001</ele>
        <time>2021-11-18T22:01:39.730Z</time>
      </trkpt>
      <trkpt lat="47.549781" lon="7.820506">
        <ele>301.238104</ele>
        <time>2021-11-18T22:01:53.760Z</time>
      </trkpt>
      <trkpt lat="47.549870" lon="7.819908">
        <ele>301.350633</ele>
        <time>2021-11-18T22:02:02.699Z</time>
      </trkpt>
      <trkpt lat="47.550240" lon="7.817600">
        <ele>302.069379</ele>
        <time>2021-11-18T22:02:39.900Z</time>
      </trkpt>
      <trkpt lat="47.550457" lon="7.816559">
        <ele>301.426032</ele>
        <time>2021-11-18T22:02:53.872Z</time>
      </trkpt>
      <trkpt lat="47.550839" lon="7.816590">
        <ele>301.091329</ele>
        <time>2021-11-18T22:03:00.150Z</time>
      </trkpt>
      <trkpt lat="47.551537" lon="7.816539">
        <ele>300.438627</ele>
        <time>2021-11-18T22:03:11.716Z</time>
      </trkpt>
      <trkpt lat="47.551563" lon="7.816537">
        <ele>300.405605</ele>
        <time>2021-11-18T22:03:12.037Z</time>
      </trkpt>
      <trkpt lat="47.552368" lon="7.816478">
        <ele>299.383338</ele>
        <time>2021-11-18T22:03:24.720Z</time>
      </trkpt>
      <trkpt lat="47.552844" lon="7.816432">
        <ele>298.778322</ele>
        <time>2021-11-18T22:03:32.719Z</time>
      </trkpt>
      <trkpt lat="47.552711" lon="7.812955">
        <ele>298.722642</ele>
        <time>2021-11-18T22:04:09.502Z</time>
      </trkpt>
      <trkpt lat="47.552566" lon="7.810386">
        <ele>299.726100</ele>
        <time>2021-11-18T22:04:39.534Z</time>
      </trkpt>
      <trkpt lat="47.552398" lon="7.808880">
        <ele>300.386895</ele>
        <time>2021-11-18T22:04:58.015Z</time>
      </trkpt>
      <trkpt lat="47.552068" lon="7.806445">
        <ele>300.762342</ele>
        <time>2021-11-18T22:05:26.379Z</time>
      </trkpt>
      <trkpt lat="47.552015" lon="7.806307">
        <ele>300.757289</ele>
        <time>2021-11-18T22:05:28.118Z</time>
      </trkpt>
      <trkpt lat="47.551895" lon="7.806278">
        <ele>300.751557</ele>
        <time>2021-11-18T22:05:29.423Z</time>
      </trkpt>
      <trkpt lat="47.551651" lon="7.806246">
        <ele>300.740008</ele>
        <time>2021-11-18T22:05:33.210Z</time>
      </trkpt>
      <trkpt lat="47.551671" lon="7.806117">
        <ele>300.735797</ele>
        <time>2021-11-18T22:05:34.520Z</time>
      </trkpt>
      <trkpt lat="47.551677" lon="7.805705">
        <ele>300.679994</ele>
        <time>2021-11-18T22:05:39.973Z</time>
      </trkpt>
      <trkpt lat="47.551681" lon="7.805477">
        <ele>300.560828</ele>
        <time>2021-11-18T22:05:42.415Z</time>
      </trkpt>
      <trkpt lat="47.551709" lon="7.805000">
        <ele>300.310663</ele>
        <time>2021-11-18T22:05:48.061Z</time>
      </trkpt>
      <trkpt lat="47.551731" lon="7.804667">
        <ele>300.135845</ele>
        <time>2021-11-18T22:05:52.722Z</time>
      </trkpt>
      <trkpt lat="47.551744" lon="7.804473">
        <ele>300.033986</ele>
        <time>2021-11-18T22:05:54.721Z</time>
      </trkpt>
      <trkpt lat="47.551741" lon="7.804294">
        <ele>299.940433</ele>
        <time>2021-11-18T22:05:57.108Z</time>
      </trkpt>
      <trkpt lat="47.551692" lon="7.803510">
        <ele>299.529054</ele>
        <time>2021-11-18T22:06:06.259Z</time>
      </trkpt>
      <trkpt lat="47.551751" lon="7.803369">
        <ele>299.442375</ele>
        <time>2021-11-18T22:06:08.247Z</time>
      </trkpt>
      <trkpt lat="47.551744" lon="7.803277">
        <ele>299.394002</ele>
        <time>2021-11-18T22:06:09.065Z</time>
      </trkpt>
      <trkpt lat="47.551732" lon="7.803125">
        <ele>299.336880</ele>
        <time>2021-11-18T22:06:10.453Z</time>
      </trkpt>
      <trkpt lat="47.551666" lon="7.803144">
        <ele>299.347326</ele>
        <time>2021-11-18T22:06:15.120Z</time>
      </trkpt>
      <trkpt lat="47.551598" lon="7.803160">
        <ele>299.358025</ele>
        <time>2021-11-18T22:06:19.865Z</time>
      </trkpt>
      <trkpt lat="47.551163" lon="7.803129">
        <ele>299.425693</ele>
        <time>2021-11-18T22:06:28.890Z</time>
      </trkpt>
      <trkpt lat="47.550981" lon="7.803132">
        <ele>299.453973</ele>
        <time>2021-11-18T22:06:32.903Z</time>
      </trkpt>
      <trkpt lat="47.550196" lon="7.803120">
        <ele>299.575953</ele>
        <time>2021-11-18T22:06:50.229Z</time>
      </trkpt>
      <trkpt lat="47.550134" lon="7.803051">
        <ele>299.588001</ele>
        <time>2021-11-18T22:06:51.911Z</time>
      </trkpt>
      <trkpt lat="47.550146" lon="7.802262">
        <ele>299.723265</ele>
        <time>2021-11-18T22:07:03.293Z</time>
      </trkpt>
      <trkpt lat="47.549879" lon="7.802247">
        <ele>299.802209</ele>
        <time>2021-11-18T22:07:09.073Z</time>
      </trkpt>
      <trkpt lat="47.549481" lon="7.802234">
        <ele>299.919830</ele>
        <time>2021-11-18T22:07:17.795Z</time>
      </trkpt>
      <trkpt lat="47.549410" lon="7.802226">
        <ele>299.940868</ele>
        <time>2021-11-18T22:07:19.398Z</time>
      </trkpt>
      <trkpt lat="47.548877" lon="7.802168">
        <ele>300.098772</ele>
        <time>2021-11-18T22:07:30.607Z</time>
      </trkpt>
      <trkpt lat="47.548626" lon="7.802129">
        <ele>300.150756</ele>
        <time>2021-11-18T22:07:35.816Z</time>
      </trkpt>
      <trkpt lat="47.548607" lon="7.801690">
        <ele>300.171051</ele>
        <time>2021-11-18T22:07:41.892Z</time>
      </trkpt>
      <trkpt lat="47.548601" lon="7.801418">
        <ele>300.183607</ele>
        <time>2021-11-18T22:07:45.572Z</time>
      </trkpt>
      <trkpt lat="47.548596" lon="7.801213">
        <ele>300.193071</ele>
        <time>2021-11-18T22:07:48.424Z</time>
      </trkpt>
      <trkpt lat="47.548576" lon="7.800968">
        <ele>300.204457</ele>
        <time>2021-11-18T22:07:51.784Z</time>
      </trkpt>
      <trkpt lat="47.548569" lon="7.800838">
        <ele>300.210474</ele>
        <time>2021-11-18T22:07:53.549Z</time>
      </trkpt>
      <trkpt lat="47.548560" lon="7.800672">
        <ele>300.218157</ele>
        <time>2021-11-18T22:07:55.868Z</time>
      </trkpt>
      <trkpt lat="47.548545" lon="7.800404">
        <ele>300.230564</ele>
        <time>2021-11-18T22:07:59.512Z</time>
      </trkpt>
      <trkpt lat="47.548519" lon="7.799896">
        <ele>300.254069</ele>
        <time>2021-11-18T22:08:06.628Z</time>
      </trkpt>
      <trkpt lat="47.548514" lon="7.799795">
        <ele>300.258741</ele>
        <time>2021-11-18T22:08:08.031Z</time>
      </trkpt>
      <trkpt lat="47.548535" lon="7.799720">
        <ele>300.262487</ele>
        <time>2021-11-18T22:08:09.183Z</time>
      </trkpt>
      <trkpt lat="47.548459" lon="7.799691">
        <ele>300.273543</ele>
        <time>2021-11-18T22:08:10.831Z</time>
      </trkpt>
      <trkpt lat="47.547912" lon="7.799646">
        <ele>300.535644</ele>
        <time>2021-11-18T22:08:22.074Z</time>
      </trkpt>
      <trkpt lat="47.547540" lon="7.799538">
        <ele>300.717003</ele>
        <time>2021-11-18T22:08:30.035Z</time>
      </trkpt>
      <trkpt lat="47.546418" lon="7.798980">
        <ele>301.174939</ele>
        <time>2021-11-18T22:08:58.491Z</time>
      </trkpt>
      <trkpt lat="47.545807" lon="7.798846">
        <ele>301.265063</ele>
        <time>2021-11-18T22:09:11.433Z</time>
      </trkpt>
      <trkpt lat="47.545731" lon="7.798810">
        <ele>301.276705</ele>
        <time>2021-11-18T22:09:13.476Z</time>
      </trkpt>
      <trkpt lat="47.545581" lon="7.798713">
        <ele>301.300586</ele>
        <time>2021-11-18T22:09:16.282Z</time>
      </trkpt>
      <trkpt lat="47.545511" lon="7.798680">
        <ele>301.311304</ele>
        <time>2021-11-18T22:09:17.774Z</time>
      </trkpt>
      <trkpt lat="47.545558" lon="7.798144">
        <ele>301.364539</ele>
        <time>2021-11-18T22:09:24.562Z</time>
      </trkpt>
      <trkpt lat="47.545637" lon="7.797310">
        <ele>301.332388</ele>
        <time>2021-11-18T22:09:35.606Z</time>
      </trkpt>
      <trkpt lat="47.545645" lon="7.797258">
        <ele>301.327149</ele>
        <time>2021-11-18T22:09:36.110Z</time>
      </trkpt>
      <trkpt lat="47.545670" lon="7.797142">
        <ele>301.315187</ele>
        <time>2021-11-18T22:09:37.851Z</time>
      </trkpt>
      <trkpt lat="47.545689" lon="7.797076">
        <ele>301.308138</ele>
        <time>2021-11-18T22:09:38.737Z</time>
      </trkpt>
      <trkpt lat="47.545728" lon="7.796950">
        <ele>301.294522</ele>
        <time>2021-11-18T22:09:41.170Z</time>
      </trkpt>
      <trkpt lat="47.545754" lon="7.796863">
        <ele>301.285176</ele>
        <time>2021-11-18T22:09:42.479Z</time>
      </trkpt>
      <trkpt lat="47.545788" lon="7.796748">
        <ele>301.272843</ele>
        <time>2021-11-18T22:09:43.890Z</time>
      </trkpt>
      <trkpt lat="47.545889" lon="7.796500">
        <ele>301.244390</ele>
        <time>2021-11-18T22:09:47.862Z</time>
      </trkpt>
      <trkpt lat="47.546038" lon="7.796107">
        <ele>301.200112</ele>
        <time>2021-11-18T22:09:53.245Z</time>
      </trkpt>
      <trkpt lat="47.546105" lon="7.795928">
        <ele>301.180006</ele>
        <time>2021-11-18T22:09:56.346Z</time>
      </trkpt>
      <trkpt lat="47.546154" lon="7.795747">
        <ele>301.160850</ele>
        <time>2021-11-18T22:09:58.746Z</time>
      </trkpt>
      <trkpt lat="47.546254" lon="7.795798">
        <ele>301.145458</ele>
        <time>2021-11-18T22:10:00.284Z</time>
      </trkpt>
      <trkpt lat="47.546269" lon="7.795732">
        <ele>301.138617</ele>
        <time>2021-11-18T22:10:01.548Z</time>
      </trkpt>
      <trkpt lat="47.546238" lon="7.795632">
        <ele>301.128997</ele>
        <time>2021-11-18T22:10:03.198Z</time>
      </trkpt>
      <trkpt lat="47.546235" lon="7.795530">
        <ele>301.159016</ele>
        <time>2021-11-18T22:10:04.391Z</time>
      </trkpt>
      <trkpt lat="47.546153" lon="7.795241">
        <ele>301.251191</ele>
        <time>2021-11-18T22:10:09.320Z</time>
      </trkpt>
      <trkpt lat="47.545990" lon="7.794538">
        <ele>301.469746</ele>
        <time>2021-11-18T22:10:21.347Z</time>
      </trkpt>
      <trkpt lat="47.545976" lon="7.794190">
        <ele>301.572248</ele>
        <time>2021-11-18T22:10:27.155Z</time>
      </trkpt>
      <trkpt lat="47.546037" lon="7.793636">
        <ele>301.737291</ele>
        <time>2021-11-18T22:10:35.527Z</time>
      </trkpt>
      <trkpt lat="47.546092" lon="7.793269">
        <ele>301.847826</ele>
        <time>2021-11-18T22:10:41.095Z</time>
      </trkpt>
      <trkpt lat="47.546198" lon="7.792662">
        <ele>301.700636</ele>
        <time>2021-11-18T22:10:49.303Z</time>
      </trkpt>
      <trkpt lat="47.546327" lon="7.792116">
        <ele>301.403099</ele>
        <time>2021-11-18T22:10:56.432Z</time>
      </trkpt>
      <trkpt lat="47.546348" lon="7.792043">
        <ele>301.362284</ele>
        <time>2021-11-18T22:10:57.286Z</time>
      </trkpt>
      <trkpt lat="47.546349" lon="7.791963">
        <ele>301.321130</ele>
        <time>2021-11-18T22:10:58.160Z</time>
      </trkpt>
      <trkpt lat="47.546325" lon="7.791912">
        <ele>301.289152</ele>
        <time>2021-11-18T22:10:58.959Z</time>
      </trkpt>
      <trkpt lat="47.546715" lon="7.788946">
        <ele>299.798312</ele>
        <time>2021-11-18T22:11:34.169Z</time>
      </trkpt>
      <trkpt lat="47.546755" lon="7.788783">
        <ele>299.716119</ele>
        <time>2021-11-18T22:11:36.193Z</time>
      </trkpt>
      <trkpt lat="47.546744" lon="7.788656">
        <ele>299.655440</ele>
        <time>2021-11-18T22:11:38.243Z</time>
      </trkpt>
      <trkpt lat="47.546940" lon="7.787224">
        <ele>300.027786</ele>
        <time>2021-11-18T22:11:57.226Z</time>
      </trkpt>
      <trkpt lat="47.546897" lon="7.787133">
        <ele>300.152968</ele>
        <time>2021-11-18T22:11:59.110Z</time>
      </trkpt>
      <trkpt lat="47.546959" lon="7.786598">
        <ele>300.764693</ele>
        <time>2021-11-18T22:12:06.868Z</time>
      </trkpt>
      <trkpt lat="47.546952" lon="7.786540">
        <ele>300.831091</ele>
        <time>2021-11-18T22:12:07.823Z</time>
      </trkpt>
      <trkpt lat="47.546913" lon="7.786470">
        <ele>300.933377</ele>
        <time>2021-11-18T22:12:09.558Z</time>
      </trkpt>
      <trkpt lat="47.546526" lon="7.786353">
        <ele>301.592808</ele>
        <time>2021-11-18T22:12:20.860Z</time>
      </trkpt>
      <trkpt lat="47.546464" lon="7.786335">
        <ele>301.698289</ele>
        <time>2021-11-18T22:12:22.632Z</time>
      </trkpt>
      <trkpt lat="47.546417" lon="7.786331">
        <ele>301.776887</ele>
        <time>2021-11-18T22:12:23.845Z</time>
      </trkpt>
      <trkpt lat="47.546102" lon="7.786217">
        <ele>302.415080</ele>
        <time>2021-11-18T22:12:35.465Z</time>
      </trkpt>
      <trkpt lat="47.545856" lon="7.785973">
        <ele>304.198482</ele>
        <time>2021-11-18T22:12:47.763Z</time>
      </trkpt>
      <trkpt lat="47.545672" lon="7.785654">
        <ele>305.904710</ele>
        <time>2021-11-18T22:12:59.089Z</time>
      </trkpt>
      <trkpt lat="47.545624" lon="7.785548">
        <ele>306.423744</ele>
        <time>2021-11-18T22:13:05.754Z</time>
      </trkpt>
      <trkpt lat="47.545250" lon="7.784778">
        <ele>310.281155</ele>
        <time>2021-11-18T22:13:37.280Z</time>
      </trkpt>
      <trkpt lat="47.545240" lon="7.784746">
        <ele>310.424545</ele>
        <time>2021-11-18T22:13:39.959Z</time>
      </trkpt>
      <trkpt lat="47.545054" lon="7.784227">
        <ele>312.813977</ele>
        <time>2021-11-18T22:13:58.109Z</time>
      </trkpt>
      <trkpt lat="47.544950" lon="7.784008">
        <ele>313.118644</ele>
        <time>2021-11-18T22:14:04.439Z</time>
      </trkpt>
      <trkpt lat="47.544627" lon="7.783499">
        <ele>313.126867</ele>
        <time>2021-11-18T22:14:20.303Z</time>
      </trkpt>
      <trkpt lat="47.544555" lon="7.783372">
        <ele>313.128819</ele>
        <time>2021-11-18T22:14:22.379Z</time>
      </trkpt>
      <trkpt lat="47.544490" lon="7.783060">
        <ele>313.132662</ele>
        <time>2021-11-18T22:14:27.125Z</time>
      </trkpt>
      <trkpt lat="47.544474" lon="7.782623">
        <ele>313.137813</ele>
        <time>2021-11-18T22:14:32.133Z</time>
      </trkpt>
      <trkpt lat="47.544469" lon="7.782455">
        <ele>313.139792</ele>
        <time>2021-11-18T22:14:33.433Z</time>
      </trkpt>
      <trkpt lat="47.544461" lon="7.782254">
        <ele>313.142162</ele>
        <time>2021-11-18T22:14:34.697Z</time>
      </trkpt>
      <trkpt lat="47.544100" lon="7.779438">
        <ele>303.362978</ele>
        <time>2021-11-18T22:14:52.186Z</time>
      </trkpt>
      <trkpt lat="47.543933" lon="7.778374">
        <ele>300.603401</ele>
        <time>2021-11-18T22:14:59.257Z</time>
      </trkpt>
      <trkpt lat="47.543707" lon="7.777394">
        <ele>298.521808</ele>
        <time>2021-11-18T22:15:06.477Z</time>
      </trkpt>
      <trkpt lat="47.543527" lon="7.776532">
        <ele>296.876525</ele>
        <time>2021-11-18T22:15:13.621Z</time>
      </trkpt>
      <trkpt lat="47.543482" lon="7.776095">
        <ele>296.776006</ele>
        <time>2021-11-18T22:15:17.498Z</time>
      </trkpt>
      <trkpt lat="47.543449" lon="7.775478">
        <ele>296.635266</ele>
        <time>2021-11-18T22:15:23.240Z</time>
      </trkpt>
      <trkpt lat="47.543402" lon="7.775016">
        <ele>296.529026</ele>
        <time>2021-11-18T22:15:27.909Z</time>
      </trkpt>
      <trkpt lat="47.543350" lon="7.774507">
        <ele>296.411966</ele>
        <time>2021-11-18T22:15:33.147Z</time>
      </trkpt>
      <trkpt lat="47.543145" lon="7.773277">
        <ele>296.154767</ele>
        <time>2021-11-18T22:15:46.046Z</time>
      </trkpt>
      <trkpt lat="47.543108" lon="7.773069">
        <ele>296.114836</ele>
        <time>2021-11-18T22:15:48.226Z</time>
      </trkpt>
      <trkpt lat="47.542720" lon="7.770771">
        <ele>295.786903</ele>
        <time>2021-11-18T22:16:09.448Z</time>
      </trkpt>
      <trkpt lat="47.542450" lon="7.769311">
        <ele>295.762630</ele>
        <time>2021-11-18T22:16:23.421Z</time>
      </trkpt>
      <trkpt lat="47.542317" lon="7.768533">
        <ele>296.371152</ele>
        <time>2021-11-18T22:16:31.794Z</time>
      </trkpt>
      <trkpt lat="47.541697" lon="7.765479">
        <ele>305.045740</ele>
        <time>2021-11-18T22:17:34.059Z</time>
      </trkpt>
      <trkpt lat="47.541552" lon="7.764869">
        <ele>308.150000</ele>
        <time>2021-11-18T22:17:53.799Z</time>
      </trkpt>
      <trkpt lat="47.541443" lon="7.764512">
        <ele>310.030751</ele>
        <time>2021-11-18T22:18:07.650Z</time>
      </trkpt>
      <trkpt lat="47.541364" lon="7.764150">
        <ele>311.856922</ele>
        <time>2021-11-18T22:18:18.617Z</time>
      </trkpt>
      <trkpt lat="47.541377" lon="7.764045">
        <ele>312.369337</ele>
        <time>2021-11-18T22:18:23.180Z</time>
      </trkpt>
      <trkpt lat="47.541334" lon="7.764020">
        <ele>312.697800</ele>
        <time>2021-11-18T22:18:28.023Z</time>
      </trkpt>
      <trkpt lat="47.541219" lon="7.763853">
        <ele>313.848074</ele>
        <time>2021-11-18T22:18:34.611Z</time>
      </trkpt>
      <trkpt lat="47.541023" lon="7.762922">
        <ele>319.783818</ele>
        <time>2021-11-18T22:19:12.943Z</time>
      </trkpt>
      <trkpt lat="47.541004" lon="7.762306">
        <ele>323.537051</ele>
        <time>2021-11-18T22:19:35.762Z</time>
      </trkpt>
      <trkpt lat="47.540921" lon="7.761599">
        <ele>327.904840</ele>
        <time>2021-11-18T22:20:00.431Z</time>
      </trkpt>
      <trkpt lat="47.540567" lon="7.759901">
        <ele>334.127961</ele>
        <time>2021-11-18T22:20:45.105Z</time>
      </trkpt>
      <trkpt lat="47.540447" lon="7.759585">
        <ele>335.167012</ele>
        <time>2021-11-18T22:20:52.687Z</time>
      </trkpt>
      <trkpt lat="47.539949" lon="7.758688">
        <ele>337.244358</ele>
        <time>2021-11-18T22:21:10.932Z</time>
      </trkpt>
      <trkpt lat="47.539722" lon="7.758107">
        <ele>336.229644</ele>
        <time>2021-11-18T22:21:17.222Z</time>
      </trkpt>
      <trkpt lat="47.539595" lon="7.757548">
        <ele>335.338096</ele>
        <time>2021-11-18T22:21:21.615Z</time>
      </trkpt>
      <trkpt lat="47.539346" lon="7.755736">
        <ele>330.972563</ele>
        <time>2021-11-18T22:21:33.359Z</time>
      </trkpt>
      <trkpt lat="47.539230" lon="7.755294">
        <ele>329.237947</ele>
        <time>2021-11-18T22:21:36.251Z</time>
      </trkpt>
      <trkpt lat="47.539079" lon="7.754976">
        <ele>327.815847</ele>
        <time>2021-11-18T22:21:38.642Z</time>
      </trkpt>
      <trkpt lat="47.538792" lon="7.754549">
        <ele>325.611840</ele>
        <time>2021-11-18T22:21:42.376Z</time>
      </trkpt>
      <trkpt lat="47.538723" lon="7.754445">
        <ele>325.078468</ele>
        <time>2021-11-18T22:21:43.274Z</time>
      </trkpt>
      <trkpt lat="47.538494" lon="7.754103">
        <ele>323.662541</ele>
        <time>2021-11-18T22:21:46.434Z</time>
      </trkpt>
      <trkpt lat="47.538359" lon="7.753900">
        <ele>323.234767</ele>
        <time>2021-11-18T22:21:48.336Z</time>
      </trkpt>
      <trkpt lat="47.538052" lon="7.753460">
        <ele>322.284842</ele>
        <time>2021-11-18T22:21:52.743Z</time>
      </trkpt>
      <trkpt lat="47.537715" lon="7.753194">
        <ele>321.435697</ele>
        <time>2021-11-18T22:21:56.861Z</time>
      </trkpt>
      <trkpt lat="47.537564" lon="7.753073">
        <ele>321.053932</ele>
        <time>2021-11-18T22:21:58.764Z</time>
      </trkpt>
      <trkpt lat="47.537371" lon="7.752851">
        <ele>320.510550</ele>
        <time>2021-11-18T22:22:02.200Z</time>
      </trkpt>
      <trkpt lat="47.537134" lon="7.752309">
        <ele>319.859501</ele>
        <time>2021-11-18T22:22:08.488Z</time>
      </trkpt>
      <trkpt lat="47.535912" lon="7.749669">
        <ele>319.239257</ele>
        <time>2021-11-18T22:22:38.668Z</time>
      </trkpt>
      <trkpt lat="47.534874" lon="7.746551">
        <ele>318.640284</ele>
        <time>2021-11-18T22:23:10.518Z</time>
      </trkpt>
      <trkpt lat="47.534429" lon="7.744856">
        <ele>318.705623</ele>
        <time>2021-11-18T22:23:29.429Z</time>
      </trkpt>
      <trkpt lat="47.534370" lon="7.744709">
        <ele>318.747184</ele>
        <time>2021-11-18T22:23:31.077Z</time>
      </trkpt>
      <trkpt lat="47.534179" lon="7.744495">
        <ele>318.833392</ele>
        <time>2021-11-18T22:23:34.959Z</time>
      </trkpt>
      <trkpt lat="47.534097" lon="7.744343">
        <ele>318.880677</ele>
        <time>2021-11-18T22:23:36.970Z</time>
      </trkpt>
      <trkpt lat="47.534043" lon="7.744207">
        <ele>318.919021</ele>
        <time>2021-11-18T22:23:38.716Z</time>
      </trkpt>
      <trkpt lat="47.533870" lon="7.743466">
        <ele>319.109570</ele>
        <time>2021-11-18T22:23:47.494Z</time>
      </trkpt>
      <trkpt lat="47.533707" lon="7.742025">
        <ele>319.659446</ele>
        <time>2021-11-18T22:24:06.044Z</time>
      </trkpt>
      <trkpt lat="47.533352" lon="7.740430">
        <ele>319.987070</ele>
        <time>2021-11-18T22:24:25.165Z</time>
      </trkpt>
      <trkpt lat="47.533191" lon="7.739816">
        <ele>319.197776</ele>
        <time>2021-11-18T22:24:31.236Z</time>
      </trkpt>
      <trkpt lat="47.533153" lon="7.739664">
        <ele>319.003550</ele>
        <time>2021-11-18T22:24:32.533Z</time>
      </trkpt>
      <trkpt lat="47.531874" lon="7.736048">
        <ele>312.419799</ele>
        <time>2021-11-18T22:25:01.006Z</time>
      </trkpt>
      <trkpt lat="47.531710" lon="7.735855">
        <ele>311.939085</ele>
        <time>2021-11-18T22:25:03.192Z</time>
      </trkpt>
      <trkpt lat="47.531389" lon="7.735745">
        <ele>311.505054</ele>
        <time>2021-11-18T22:25:06.757Z</time>
      </trkpt>
      <trkpt lat="47.531325" lon="7.735684">
        <ele>311.404796</ele>
        <time>2021-11-18T22:25:07.469Z</time>
      </trkpt>
      <trkpt lat="47.530882" lon="7.735983">
        <ele>310.763481</ele>
        <time>2021-11-18T22:25:13.082Z</time>
      </trkpt>
      <trkpt lat="47.530193" lon="7.736351">
        <ele>309.798629</ele>
        <time>2021-11-18T22:25:22.501Z</time>
      </trkpt>
      <trkpt lat="47.529741" lon="7.736731">
        <ele>309.671709</ele>
        <time>2021-11-18T22:25:30.980Z</time>
      </trkpt>
      <trkpt lat="47.529603" lon="7.736896">
        <ele>309.675429</ele>
        <time>2021-11-18T22:25:34.215Z</time>
      </trkpt>
      <trkpt lat="47.529534" lon="7.737005">
        <ele>309.677545</ele>
        <time>2021-11-18T22:25:36.385Z</time>
      </trkpt>
      <trkpt lat="47.528997" lon="7.738134">
        <ele>309.697103</ele>
        <time>2021-11-18T22:25:50.360Z</time>
      </trkpt>
      <trkpt lat="47.528896" lon="7.738303">
        <ele>309.700300</ele>
        <time>2021-11-18T22:25:52.548Z</time>
      </trkpt>
      <trkpt lat="47.528842" lon="7.738378">
        <ele>309.657223</ele>
        <time>2021-11-18T22:25:53.367Z</time>
      </trkpt>
      <trkpt lat="47.528601" lon="7.738620">
        <ele>309.428128</ele>
        <time>2021-11-18T22:25:56.985Z</time>
      </trkpt>
      <trkpt lat="47.528341" lon="7.738762">
        <ele>309.210092</ele>
        <time>2021-11-18T22:26:00.322Z</time>
      </trkpt>
      <trkpt lat="47.528292" lon="7.738774">
        <ele>309.171015</ele>
        <time>2021-11-18T22:26:00.917Z</time>
      </trkpt>
      <trkpt lat="47.527841" lon="7.738820">
        <ele>308.815327</ele>
        <time>2021-11-18T22:26:08.745Z</time>
      </trkpt>
      <trkpt lat="47.527567" lon="7.738827">
        <ele>308.599711</ele>
        <time>2021-11-18T22:26:12.301Z</time>
      </trkpt>
      <trkpt lat="47.527349" lon="7.738840">
        <ele>308.428049</ele>
        <time>2021-11-18T22:26:15.000Z</time>
      </trkpt>
      <trkpt lat="47.527103" lon="7.738847">
        <ele>308.292584</ele>
        <time>2021-11-18T22:26:18.013Z</time>
      </trkpt>
      <trkpt lat="47.527067" lon="7.739171">
        <ele>308.316730</ele>
        <time>2021-11-18T22:26:20.936Z</time>
      </trkpt>
      <trkpt lat="47.527038" lon="7.739424">
        <ele>308.335600</ele>
        <time>2021-11-18T22:26:23.120Z</time>
      </trkpt>
      <trkpt lat="47.526782" lon="7.740808">
        <ele>308.441121</ele>
        <time>2021-11-18T22:26:38.235Z</time>
      </trkpt>
      <trkpt lat="47.526389" lon="7.742195">
        <ele>309.168806</ele>
        <time>2021-11-18T22:26:57.050Z</time>
      </trkpt>
      <trkpt lat="47.526222" lon="7.742784">
        <ele>309.627895</ele>
        <time>2021-11-18T22:27:04.898Z</time>
      </trkpt>
      <trkpt lat="47.525969" lon="7.743974">
        <ele>310.617479</ele>
        <time>2021-11-18T22:27:21.901Z</time>
      </trkpt>
      <trkpt lat="47.525836" lon="7.744800">
        <ele>311.668212</ele>
        <time>2021-11-18T22:27:34.123Z</time>
      </trkpt>
      <trkpt lat="47.525817" lon="7.744920">
        <ele>311.820725</ele>
        <time>2021-11-18T22:27:36.053Z</time>
      </trkpt>
      <trkpt lat="47.525761" lon="7.745310">
        <ele>312.314095</ele>
        <time>2021-11-18T22:27:41.827Z</time>
      </trkpt>
      <trkpt lat="47.525754" lon="7.745361">
        <ele>312.378492</ele>
        <time>2021-11-18T22:27:42.601Z</time>
      </trkpt>
      <trkpt lat="47.525698" lon="7.745676">
        <ele>312.781550</ele>
        <time>2021-11-18T22:27:47.690Z</time>
      </trkpt>
      <trkpt lat="47.525493" lon="7.746648">
        <ele>314.186095</ele>
        <time>2021-11-18T22:28:03.819Z</time>
      </trkpt>
      <trkpt lat="47.525175" lon="7.747653">
        <ele>316.126436</ele>
        <time>2021-11-18T22:28:22.669Z</time>
      </trkpt>
      <trkpt lat="47.525102" lon="7.747843">
        <ele>316.508612</ele>
        <time>2021-11-18T22:28:26.746Z</time>
      </trkpt>
      <trkpt lat="47.525034" lon="7.748003">
        <ele>316.839128</ele>
        <time>2021-11-18T22:28:29.610Z</time>
      </trkpt>
      <trkpt lat="47.524939" lon="7.748210">
        <ele>317.276691</ele>
        <time>2021-11-18T22:28:33.884Z</time>
      </trkpt>
      <trkpt lat="47.524786" lon="7.748513">
        <ele>317.938148</ele>
        <time>2021-11-18T22:28:40.091Z</time>
      </trkpt>
      <trkpt lat="47.524595" lon="7.748826">
        <ele>318.773150</ele>
        <time>2021-11-18T22:28:47.830Z</time>
      </trkpt>
      <trkpt lat="47.523810" lon="7.749861">
        <ele>322.304347</ele>
        <time>2021-11-18T22:29:17.274Z</time>
      </trkpt>
      <trkpt lat="47.522660" lon="7.751079">
        <ele>327.034677</ele>
        <time>2021-11-18T22:29:59.140Z</time>
      </trkpt>
      <trkpt lat="47.522153" lon="7.751504">
        <ele>328.977461</ele>
        <time>2021-11-18T22:30:15.729Z</time>
      </trkpt>
      <trkpt lat="47.521128" lon="7.752139">
        <ele>331.625029</ele>
        <time>2021-11-18T22:30:44.231Z</time>
      </trkpt>
      <trkpt lat="47.520691" lon="7.752581">
        <ele>332.576031</ele>
        <time>2021-11-18T22:30:56.571Z</time>
      </trkpt>
      <trkpt lat="47.520500" lon="7.752840">
        <ele>333.041433</ele>
        <time>2021-11-18T22:31:01.327Z</time>
      </trkpt>
      <trkpt lat="47.520081" lon="7.753575">
        <ele>333.509481</ele>
        <time>2021-11-18T22:31:12.018Z</time>
      </trkpt>
      <trkpt lat="47.519771" lon="7.754124">
        <ele>333.344184</ele>
        <time>2021-11-18T22:31:18.672Z</time>
      </trkpt>
      <trkpt lat="47.519558" lon="7.754516">
        <ele>333.227969</ele>
        <time>2021-11-18T22:31:23.037Z</time>
      </trkpt>
      <trkpt lat="47.518866" lon="7.755813">
        <ele>332.856465</ele>
        <time>2021-11-18T22:31:36.999Z</time>
      </trkpt>
      <trkpt lat="47.517863" lon="7.757421">
        <ele>332.570033</ele>
        <time>2021-11-18T22:31:57.711Z</time>
      </trkpt>
      <trkpt lat="47.516954" lon="7.758506">
        <ele>333.676218</ele>
        <time>2021-11-18T22:32:19.336Z</time>
      </trkpt>
      <trkpt lat="47.516501" lon="7.759179">
        <ele>334.558428</ele>
        <time>2021-11-18T22:32:32.450Z</time>
      </trkpt>
      <trkpt lat="47.515929" lon="7.760077">
        <ele>336.796144</ele>
        <time>2021-11-18T22:32:52.156Z</time>
      </trkpt>
      <trkpt lat="47.515394" lon="7.761200">
        <ele>339.374635</ele>
        <time>2021-11-18T22:33:18.967Z</time>
      </trkpt>
      <trkpt lat="47.515265" lon="7.761533">
        <ele>340.257173</ele>
        <time>2021-11-18T22:33:26.844Z</time>
      </trkpt>
      <trkpt lat="47.515220" lon="7.761710">
        <ele>340.691962</ele>
        <time>2021-11-18T22:33:30.712Z</time>
      </trkpt>
      <trkpt lat="47.515194" lon="7.761991">
        <ele>341.344002</ele>
        <time>2021-11-18T22:33:36.743Z</time>
      </trkpt>
      <trkpt lat="47.515150" lon="7.762617">
        <ele>342.790919</ele>
        <time>2021-11-18T22:33:48.863Z</time>
      </trkpt>
      <trkpt lat="47.515108" lon="7.762767">
        <ele>343.164223</ele>
        <time>2021-11-18T22:33:52.326Z</time>
      </trkpt>
      <trkpt lat="47.515023" lon="7.762891">
        <ele>343.570395</ele>
        <time>2021-11-18T22:33:56.057Z</time>
      </trkpt>
      <trkpt lat="47.514492" lon="7.763207">
        <ele>345.303764</ele>
        <time>2021-11-18T22:34:11.455Z</time>
      </trkpt>
      <trkpt lat="47.514365" lon="7.763357">
        <ele>345.583048</ele>
        <time>2021-11-18T22:34:15.841Z</time>
      </trkpt>
      <trkpt lat="47.514022" lon="7.763802">
        <ele>346.367050</ele>
        <time>2021-11-18T22:34:24.014Z</time>
      </trkpt>
      <trkpt lat="47.513823" lon="7.764227">
        <ele>346.967505</ele>
        <time>2021-11-18T22:34:31.161Z</time>
      </trkpt>
      <trkpt lat="47.513810" lon="7.764252">
        <ele>347.004139</ele>
        <time>2021-11-18T22:34:31.550Z</time>
      </trkpt>
      <trkpt lat="47.513747" lon="7.764397">
        <ele>347.204326</ele>
        <time>2021-11-18T22:34:34.052Z</time>
      </trkpt>
      <trkpt lat="47.513707" lon="7.764494">
        <ele>347.336287</ele>
        <time>2021-11-18T22:34:36.068Z</time>
      </trkpt>
      <trkpt lat="47.513661" lon="7.764590">
        <ele>347.472955</ele>
        <time>2021-11-18T22:34:38.030Z</time>
      </trkpt>
      <trkpt lat="47.513615" lon="7.764654">
        <ele>347.581471</ele>
        <time>2021-11-18T22:34:38.703Z</time>
      </trkpt>
      <trkpt lat="47.513036" lon="7.765134">
        <ele>348.660126</ele>
        <time>2021-11-18T22:34:53.665Z</time>
      </trkpt>
      <trkpt lat="47.512959" lon="7.765198">
        <ele>348.794640</ele>
        <time>2021-11-18T22:34:54.788Z</time>
      </trkpt>
      <trkpt lat="47.512947" lon="7.765205">
        <ele>348.814287</ele>
        <time>2021-11-18T22:34:55.022Z</time>
      </trkpt>
      <trkpt lat="47.512876" lon="7.765238">
        <ele>348.927646</ele>
        <time>2021-11-18T22:34:56.518Z</time>
      </trkpt>
      <trkpt lat="47.512596" lon="7.765294">
        <ele>349.358045</ele>
        <time>2021-11-18T22:35:01.988Z</time>
      </trkpt>
      <trkpt lat="47.512523" lon="7.765308">
        <ele>349.470175</ele>
        <time>2021-11-18T22:35:03.447Z</time>
      </trkpt>
      <trkpt lat="47.512359" lon="7.765319">
        <ele>349.720254</ele>
        <time>2021-11-18T22:35:07.420Z</time>
      </trkpt>
      <trkpt lat="47.512026" lon="7.765311">
        <ele>350.227581</ele>
        <time>2021-11-18T22:35:13.415Z</time>
      </trkpt>
      <trkpt lat="47.511929" lon="7.765269">
        <ele>350.381531</ele>
        <time>2021-11-18T22:35:15.604Z</time>
      </trkpt>
      <trkpt lat="47.511866" lon="7.765218">
        <ele>350.490908</ele>
        <time>2021-11-18T22:35:16.679Z</time>
      </trkpt>
      <trkpt lat="47.511702" lon="7.765093">
        <ele>350.771892</ele>
        <time>2021-11-18T22:35:21.066Z</time>
      </trkpt>
      <trkpt lat="47.511360" lon="7.764807">
        <ele>351.476754</ele>
        <time>2021-11-18T22:35:30.500Z</time>
      </trkpt>
      <trkpt lat="47.511298" lon="7.764777">
        <ele>351.599455</ele>
        <time>2021-11-18T22:35:32.556Z</time>
      </trkpt>
      <trkpt lat="47.511261" lon="7.764772">
        <ele>351.669345</ele>
        <time>2021-11-18T22:35:33.456Z</time>
      </trkpt>
      <trkpt lat="47.510922" lon="7.764773">
        <ele>352.307047</ele>
        <time>2021-11-18T22:35:41.330Z</time>
      </trkpt>
      <trkpt lat="47.510628" lon="7.764909">
        <ele>352.886466</ele>
        <time>2021-11-18T22:35:47.157Z</time>
      </trkpt>
      <trkpt lat="47.510486" lon="7.765012">
        <ele>353.183922</ele>
        <time>2021-11-18T22:35:50.483Z</time>
      </trkpt>
      <trkpt lat="47.510392" lon="7.765088">
        <ele>353.385398</ele>
        <time>2021-11-18T22:35:52.456Z</time>
      </trkpt>
      <trkpt lat="47.510179" lon="7.765273">
        <ele>353.849940</ele>
        <time>2021-11-18T22:35:57.078Z</time>
      </trkpt>
      <trkpt lat="47.510078" lon="7.765363">
        <ele>354.071694</ele>
        <time>2021-11-18T22:35:59.761Z</time>
      </trkpt>
      <trkpt lat="47.510019" lon="7.765402">
        <ele>354.193241</ele>
        <time>2021-11-18T22:36:00.931Z</time>
      </trkpt>
      <trkpt lat="47.509942" lon="7.765436">
        <ele>354.382191</ele>
        <time>2021-11-18T22:36:02.964Z</time>
      </trkpt>
      <trkpt lat="47.509899" lon="7.765445">
        <ele>354.533730</ele>
        <time>2021-11-18T22:36:03.960Z</time>
      </trkpt>
      <trkpt lat="47.509741" lon="7.765454">
        <ele>355.085473</ele>
        <time>2021-11-18T22:36:08.083Z</time>
      </trkpt>
      <trkpt lat="47.509600" lon="7.765443">
        <ele>355.578169</ele>
        <time>2021-11-18T22:36:12.326Z</time>
      </trkpt>
      <trkpt lat="47.509436" lon="7.765441">
        <ele>356.150460</ele>
        <time>2021-11-18T22:36:17.352Z</time>
      </trkpt>
      <trkpt lat="47.509057" lon="7.765447">
        <ele>357.473040</ele>
        <time>2021-11-18T22:36:29.890Z</time>
      </trkpt>
      <trkpt lat="47.508744" lon="7.765478">
        <ele>358.567682</ele>
        <time>2021-11-18T22:36:39.864Z</time>
      </trkpt>
      <trkpt lat="47.508322" lon="7.765556">
        <ele>360.051667</ele>
        <time>2021-11-18T22:36:52.526Z</time>
      </trkpt>
      <trkpt lat="47.508137" lon="7.765584">
        <ele>360.687454</ele>
        <time>2021-11-18T22:36:57.309Z</time>
      </trkpt>
      <trkpt lat="47.507977" lon="7.765561">
        <ele>361.189060</ele>
        <time>2021-11-18T22:37:01.522Z</time>
      </trkpt>
      <trkpt lat="47.507650" lon="7.765503">
        <ele>362.216716</ele>
        <time>2021-11-18T22:37:09.757Z</time>
      </trkpt>
      <trkpt lat="47.507506" lon="7.765470">
        <ele>362.671400</ele>
        <time>2021-11-18T22:37:15.089Z</time>
      </trkpt>
      <trkpt lat="47.507429" lon="7.765409">
        <ele>362.943908</ele>
        <time>2021-11-18T22:37:16.745Z</time>
      </trkpt>
      <trkpt lat="47.506870" lon="7.765037">
        <ele>364.856324</ele>
        <time>2021-11-18T22:37:35.127Z</time>
      </trkpt>
      <trkpt lat="47.506716" lon="7.764971">
        <ele>365.356592</ele>
        <time>2021-11-18T22:37:38.488Z</time>
      </trkpt>
      <trkpt lat="47.506619" lon="7.764938">
        <ele>365.667157</ele>
        <time>2021-11-18T22:37:41.273Z</time>
      </trkpt>
      <trkpt lat="47.506377" lon="7.764894">
        <ele>366.421207</ele>
        <time>2021-11-18T22:37:46.719Z</time>
      </trkpt>
      <trkpt lat="47.506301" lon="7.764884">
        <ele>366.652566</ele>
        <time>2021-11-18T22:37:48.419Z</time>
      </trkpt>
      <trkpt lat="47.506143" lon="7.764883">
        <ele>367.131665</ele>
        <time>2021-11-18T22:37:53.117Z</time>
      </trkpt>
      <trkpt lat="47.505115" lon="7.765011">
        <ele>370.259817</ele>
        <time>2021-11-18T22:38:19.112Z</time>
      </trkpt>
      <trkpt lat="47.504400" lon="7.764478">
        <ele>372.290703</ele>
        <time>2021-11-18T22:38:44.371Z</time>
      </trkpt>
      <trkpt lat="47.503736" lon="7.764325">
        <ele>373.554707</ele>
        <time>2021-11-18T22:39:03.350Z</time>
      </trkpt>
      <trkpt lat="47.502578" lon="7.764620">
        <ele>375.112766</ele>
        <time>2021-11-18T22:39:18.373Z</time>
      </trkpt>
      <trkpt lat="47.502400" lon="7.764717">
        <ele>375.154659</ele>
        <time>2021-11-18T22:39:26.344Z</time>
      </trkpt>
      <trkpt lat="47.502299" lon="7.764761">
        <ele>375.177911</ele>
        <time>2021-11-18T22:39:27.413Z</time>
      </trkpt>
      <trkpt lat="47.501861" lon="7.764937">
        <ele>375.278149</ele>
        <time>2021-11-18T22:39:32.835Z</time>
      </trkpt>
      <trkpt lat="47.501785" lon="7.764941">
        <ele>375.294945</ele>
        <time>2021-11-18T22:39:39.366Z</time>
      </trkpt>
      <trkpt lat="47.501717" lon="7.764903">
        <ele>375.310998</ele>
        <time>2021-11-18T22:39:39.999Z</time>
      </trkpt>
      <trkpt lat="47.501402" lon="7.764367">
        <ele>375.416998</ele>
        <time>2021-11-18T22:39:46.274Z</time>
      </trkpt>
      <trkpt lat="47.501345" lon="7.764315">
        <ele>375.499089</ele>
        <time>2021-11-18T22:39:46.832Z</time>
      </trkpt>
      <trkpt lat="47.501281" lon="7.764267">
        <ele>375.639963</ele>
        <time>2021-11-18T22:39:54.407Z</time>
      </trkpt>
      <trkpt lat="47.501196" lon="7.764236">
        <ele>375.811852</ele>
        <time>2021-11-18T22:39:55.238Z</time>
      </trkpt>
      <trkpt lat="47.501035" lon="7.764209">
        <ele>376.129999</ele>
        <time>2021-11-18T22:39:56.752Z</time>
      </trkpt>
      <trkpt lat="47.500820" lon="7.764278">
        <ele>376.561961</ele>
        <time>2021-11-18T22:40:02.724Z</time>
      </trkpt>
      <trkpt lat="47.500727" lon="7.764330">
        <ele>376.757160</ele>
        <time>2021-11-18T22:40:04.634Z</time>
      </trkpt>
      <trkpt lat="47.500387" lon="7.764595">
        <ele>377.511646</ele>
        <time>2021-11-18T22:40:11.171Z</time>
      </trkpt>
      <trkpt lat="47.500077" lon="7.764821">
        <ele>378.190155</ele>
        <time>2021-11-18T22:40:21.912Z</time>
      </trkpt>
      <trkpt lat="47.499963" lon="7.764903">
        <ele>378.439025</ele>
        <time>2021-11-18T22:40:26.253Z</time>
      </trkpt>
      <trkpt lat="47.499422" lon="7.765260">
        <ele>380.152031</ele>
        <time>2021-11-18T22:40:44.437Z</time>
      </trkpt>
      <trkpt lat="47.499360" lon="7.765292">
        <ele>380.390520</ele>
        <time>2021-11-18T22:40:46.766Z</time>
      </trkpt>
      <trkpt lat="47.498800" lon="7.765582">
        <ele>382.545399</ele>
        <time>2021-11-18T22:41:05.274Z</time>
      </trkpt>
      <trkpt lat="47.498586" lon="7.765657">
        <ele>383.344164</ele>
        <time>2021-11-18T22:41:11.865Z</time>
      </trkpt>
      <trkpt lat="47.498351" lon="7.765739">
        <ele>384.221109</ele>
        <time>2021-11-18T22:41:17.824Z</time>
      </trkpt>
      <trkpt lat="47.498155" lon="7.765801">
        <ele>384.949080</ele>
        <time>2021-11-18T22:41:23.333Z</time>
      </trkpt>
      <trkpt lat="47.497958" lon="7.765844">
        <ele>385.757647</ele>
        <time>2021-11-18T22:41:28.074Z</time>
      </trkpt>
      <trkpt lat="47.497754" lon="7.765880">
        <ele>386.848727</ele>
        <time>2021-11-18T22:41:34.194Z</time>
      </trkpt>
      <trkpt lat="47.497723" lon="7.766185">
        <ele>387.955408</ele>
        <time>2021-11-18T22:41:39.019Z</time>
      </trkpt>
      <trkpt lat="47.497675" lon="7.766623">
        <ele>389.547533</ele>
        <time>2021-11-18T22:41:48.166Z</time>
      </trkpt>
      <trkpt lat="47.497649" lon="7.766873">
        <ele>390.455123</ele>
        <time>2021-11-18T22:41:54.705Z</time>
      </trkpt>
      <trkpt lat="47.497611" lon="7.767211">
        <ele>391.684576</ele>
        <time>2021-11-18T22:42:04.700Z</time>
      </trkpt>
      <trkpt lat="47.497511" lon="7.768079">
        <ele>394.844004</ele>
        <time>2021-11-18T22:42:30.486Z</time>
      </trkpt>
      <trkpt lat="47.497361" lon="7.768561">
        <ele>397.985405</ele>
        <time>2021-11-18T22:42:45.446Z</time>
      </trkpt>
      <trkpt lat="47.497291" lon="7.768691">
        <ele>399.013951</ele>
        <time>2021-11-18T22:42:50.049Z</time>
      </trkpt>
      <trkpt lat="47.497192" lon="7.768830">
        <ele>400.263597</ele>
        <time>2021-11-18T22:42:55.660Z</time>
      </trkpt>
      <trkpt lat="47.497103" lon="7.768933">
        <ele>401.298216</ele>
        <time>2021-11-18T22:43:01.985Z</time>
      </trkpt>
      <trkpt lat="47.495667" lon="7.770224">
        <ele>416.896141</ele>
        <time>2021-11-18T22:44:36.937Z</time>
      </trkpt>
      <trkpt lat="47.493379" lon="7.771903">
        <ele>439.375847</ele>
        <time>2021-11-18T22:46:48.039Z</time>
      </trkpt>
      <trkpt lat="47.492787" lon="7.772160">
        <ele>443.832002</ele>
        <time>2021-11-18T22:47:13.318Z</time>
      </trkpt>
      <trkpt lat="47.491693" lon="7.772220">
        <ele>448.339626</ele>
        <time>2021-11-18T22:47:45.228Z</time>
      </trkpt>
      <trkpt lat="47.491378" lon="7.772372">
        <ele>449.703836</ele>
        <time>2021-11-18T22:47:54.396Z</time>
      </trkpt>
      <trkpt lat="47.490979" lon="7.772729">
        <ele>452.124570</ele>
        <time>2021-11-18T22:48:07.944Z</time>
      </trkpt>
      <trkpt lat="47.490789" lon="7.773001">
        <ele>453.783778</ele>
        <time>2021-11-18T22:48:15.920Z</time>
      </trkpt>
      <trkpt lat="47.490600" lon="7.773314">
        <ele>455.564082</ele>
        <time>2021-11-18T22:48:25.121Z</time>
      </trkpt>
      <trkpt lat="47.490509" lon="7.773483">
        <ele>456.480587</ele>
        <time>2021-11-18T22:48:30.388Z</time>
      </trkpt>
      <trkpt lat="47.490333" lon="7.773772">
        <ele>458.130641</ele>
        <time>2021-11-18T22:48:39.848Z</time>
      </trkpt>
      <trkpt lat="47.489507" lon="7.774592">
        <ele>466.946079</ele>
        <time>2021-11-18T22:49:31.254Z</time>
      </trkpt>
      <trkpt lat="47.489299" lon="7.774864">
        <ele>470.543464</ele>
        <time>2021-11-18T22:49:52.285Z</time>
      </trkpt>
      <trkpt lat="47.489027" lon="7.775404">
        <ele>476.441892</ele>
        <time>2021-11-18T22:50:25.750Z</time>
      </trkpt>
      <trkpt lat="47.488856" lon="7.776072">
        <ele>482.697721</ele>
        <time>2021-11-18T22:50:59.789Z</time>
      </trkpt>
      <trkpt lat="47.488821" lon="7.776320">
        <ele>484.916487</ele>
        <time>2021-11-18T22:51:12.792Z</time>
      </trkpt>
      <trkpt lat="47.488804" lon="7.776561">
        <ele>486.659943</ele>
        <time>2021-11-18T22:51:24.030Z</time>
      </trkpt>
      <trkpt lat="47.488828" lon="7.777228">
        <ele>491.258319</ele>
        <time>2021-11-18T22:51:54.514Z</time>
      </trkpt>
      <trkpt lat="47.488939" lon="7.777976">
        <ele>496.530527</ele>
        <time>2021-11-18T22:52:26.641Z</time>
      </trkpt>
      <trkpt lat="47.489070" lon="7.778258">
        <ele>498.886412</ele>
        <time>2021-11-18T22:52:39.390Z</time>
      </trkpt>
      <trkpt lat="47.489510" lon="7.778865">
        <ele>504.110493</ele>
        <time>2021-11-18T22:53:01.953Z</time>
      </trkpt>
      <trkpt lat="47.489751" lon="7.779285">
        <ele>505.490994</ele>
        <time>2021-11-18T22:53:11.559Z</time>
      </trkpt>
      <trkpt lat="47.489935" lon="7.779599">
        <ele>506.532313</ele>
        <time>2021-11-18T22:53:18.198Z</time>
      </trkpt>
      <trkpt lat="47.490085" lon="7.779841">
        <ele>507.355075</ele>
        <time>2021-11-18T22:53:23.139Z</time>
      </trkpt>
      <trkpt lat="47.490300" lon="7.780156">
        <ele>508.476828</ele>
        <time>2021-11-18T22:53:32.745Z</time>
      </trkpt>
      <trkpt lat="47.490637" lon="7.780677">
        <ele>510.289149</ele>
        <time>2021-11-18T22:53:49.097Z</time>
      </trkpt>
      <trkpt lat="47.491131" lon="7.781314">
        <ele>513.316429</ele>
        <time>2021-11-18T22:54:04.010Z</time>
      </trkpt>
      <trkpt lat="47.491257" lon="7.781415">
        <ele>513.978497</ele>
        <time>2021-11-18T22:54:10.097Z</time>
      </trkpt>
      <trkpt lat="47.491593" lon="7.781786">
        <ele>515.915388</ele>
        <time>2021-11-18T22:54:26.287Z</time>
      </trkpt>
      <trkpt lat="47.491764" lon="7.781979">
        <ele>516.908997</ele>
        <time>2021-11-18T22:54:30.853Z</time>
      </trkpt>
      <trkpt lat="47.491932" lon="7.782190">
        <ele>517.927046</ele>
        <time>2021-11-18T22:54:41.193Z</time>
      </trkpt>
      <trkpt lat="47.491994" lon="7.782263">
        <ele>518.293103</ele>
        <time>2021-11-18T22:54:41.895Z</time>
      </trkpt>
      <trkpt lat="47.492051" lon="7.782347">
        <ele>518.717871</ele>
        <time>2021-11-18T22:54:46.549Z</time>
      </trkpt>
      <trkpt lat="47.492170" lon="7.783077">
        <ele>522.409920</ele>
        <time>2021-11-18T22:55:11.086Z</time>
      </trkpt>
      <trkpt lat="47.492224" lon="7.783215">
        <ele>523.193964</ele>
        <time>2021-11-18T22:55:13.644Z</time>
      </trkpt>
      <trkpt lat="47.492208" lon="7.783343">
        <ele>523.833959</ele>
        <time>2021-11-18T22:55:18.127Z</time>
      </trkpt>
      <trkpt lat="47.492115" lon="7.783471">
        <ele>524.758057</ele>
        <time>2021-11-18T22:55:26.069Z</time>
      </trkpt>
      <trkpt lat="47.492008" lon="7.783519">
        <ele>525.571604</ele>
        <time>2021-11-18T22:55:29.405Z</time>
      </trkpt>
      <trkpt lat="47.491443" lon="7.783484">
        <ele>529.686320</ele>
        <time>2021-11-18T22:55:51.342Z</time>
      </trkpt>
      <trkpt lat="47.491316" lon="7.783486">
        <ele>530.610464</ele>
        <time>2021-11-18T22:55:59.137Z</time>
      </trkpt>
      <trkpt lat="47.491026" lon="7.783504">
        <ele>533.005350</ele>
        <time>2021-11-18T22:56:14.423Z</time>
      </trkpt>
      <trkpt lat="47.490801" lon="7.783516">
        <ele>535.079737</ele>
        <time>2021-11-18T22:56:27.546Z</time>
      </trkpt>
      <trkpt lat="47.490527" lon="7.783532">
        <ele>537.606206</ele>
        <time>2021-11-18T22:56:41.483Z</time>
      </trkpt>
      <trkpt lat="47.490609" lon="7.783692">
        <ele>538.856416</ele>
        <time>2021-11-18T22:56:46.811Z</time>
      </trkpt>
      <trkpt lat="47.490633" lon="7.783833">
        <ele>539.761659</ele>
        <time>2021-11-18T22:56:52.392Z</time>
      </trkpt>
      <trkpt lat="47.490689" lon="7.784199">
        <ele>542.097939</ele>
        <time>2021-11-18T22:57:03.782Z</time>
      </trkpt>
      <trkpt lat="47.490723" lon="7.784422">
        <ele>543.521166</ele>
        <time>2021-11-18T22:57:13.336Z</time>
      </trkpt>
      <trkpt lat="47.490860" lon="7.785128">
        <ele>548.094135</ele>
        <time>2021-11-18T22:57:40.405Z</time>
      </trkpt>
      <trkpt lat="47.490876" lon="7.785414">
        <ele>550.026641</ele>
        <time>2021-11-18T22:57:50.944Z</time>
      </trkpt>
      <trkpt lat="47.490808" lon="7.785962">
        <ele>553.802193</ele>
        <time>2021-11-18T22:58:10.543Z</time>
      </trkpt>
      <trkpt lat="47.490637" lon="7.786369">
        <ele>557.049860</ele>
        <time>2021-11-18T22:58:29.042Z</time>
      </trkpt>
      <trkpt lat="47.490588" lon="7.786449">
        <ele>557.781543</ele>
        <time>2021-11-18T22:58:34.144Z</time>
      </trkpt>
      <trkpt lat="47.490524" lon="7.786562">
        <ele>558.780689</ele>
        <time>2021-11-18T22:58:38.781Z</time>
      </trkpt>
      <trkpt lat="47.490217" lon="7.787045">
        <ele>563.274180</ele>
        <time>2021-11-18T22:59:03.508Z</time>
      </trkpt>
      <trkpt lat="47.489788" lon="7.787865">
        <ele>569.174212</ele>
        <time>2021-11-18T22:59:41.591Z</time>
      </trkpt>
      <trkpt lat="47.489723" lon="7.788036">
        <ele>570.131984</ele>
        <time>2021-11-18T22:59:49.992Z</time>
      </trkpt>
      <trkpt lat="47.489691" lon="7.788200">
        <ele>570.965282</ele>
        <time>2021-11-18T22:59:56.011Z</time>
      </trkpt>
      <trkpt lat="47.489663" lon="7.788691">
        <ele>573.370686</ele>
        <time>2021-11-18T23:00:12.336Z</time>
      </trkpt>
      <trkpt lat="47.489823" lon="7.789549">
        <ele>577.715696</ele>
        <time>2021-11-18T23:00:35.083Z</time>
      </trkpt>
      <trkpt lat="47.489925" lon="7.791008">
        <ele>580.224890</ele>
        <time>2021-11-18T23:00:59.548Z</time>
      </trkpt>
      <trkpt lat="47.489971" lon="7.791599">
        <ele>580.722369</ele>
        <time>2021-11-18T23:01:06.512Z</time>
      </trkpt>
      <trkpt lat="47.489987" lon="7.791819">
        <ele>580.907402</ele>
        <time>2021-11-18T23:01:09.004Z</time>
      </trkpt>
      <trkpt lat="47.490118" lon="7.793776">
        <ele>578.830368</ele>
        <time>2021-11-18T23:01:25.797Z</time>
      </trkpt>
      <trkpt lat="47.490137" lon="7.796120">
        <ele>571.195096</ele>
        <time>2021-11-18T23:01:40.623Z</time>
      </trkpt>
      <trkpt lat="47.490229" lon="7.796508">
        <ele>569.156763</ele>
        <time>2021-11-18T23:01:43.066Z</time>
      </trkpt>
      <trkpt lat="47.490482" lon="7.797579">
        <ele>563.532652</ele>
        <time>2021-11-18T23:01:49.802Z</time>
      </trkpt>
      <trkpt lat="47.490613" lon="7.798182">
        <ele>560.497299</ele>
        <time>2021-11-18T23:01:53.510Z</time>
      </trkpt>
      <trkpt lat="47.490919" lon="7.798941">
        <ele>556.312372</ele>
        <time>2021-11-18T23:01:58.737Z</time>
      </trkpt>
      <trkpt lat="47.491125" lon="7.799903">
        <ele>551.534087</ele>
        <time>2021-11-18T23:02:04.968Z</time>
      </trkpt>
      <trkpt lat="47.491207" lon="7.800233">
        <ele>550.118213</ele>
        <time>2021-11-18T23:02:07.215Z</time>
      </trkpt>
      <trkpt lat="47.491266" lon="7.800470">
        <ele>550.107437</ele>
        <time>2021-11-18T23:02:08.989Z</time>
      </trkpt>
      <trkpt lat="47.491393" lon="7.801006">
        <ele>550.083204</ele>
        <time>2021-11-18T23:02:13.003Z</time>
      </trkpt>
      <trkpt lat="47.491405" lon="7.801118">
        <ele>550.078366</ele>
        <time>2021-11-18T23:02:13.771Z</time>
      </trkpt>
      <trkpt lat="47.491420" lon="7.801300">
        <ele>550.070544</ele>
        <time>2021-11-18T23:02:15.198Z</time>
      </trkpt>
      <trkpt lat="47.491399" lon="7.802037">
        <ele>550.039073</ele>
        <time>2021-11-18T23:02:23.180Z</time>
      </trkpt>
      <trkpt lat="47.491604" lon="7.802704">
        <ele>550.007810</ele>
        <time>2021-11-18T23:02:34.644Z</time>
      </trkpt>
      <trkpt lat="47.491641" lon="7.802949">
        <ele>551.587821</ele>
        <time>2021-11-18T23:02:39.948Z</time>
      </trkpt>
      <trkpt lat="47.491627" lon="7.803075">
        <ele>552.465736</ele>
        <time>2021-11-18T23:02:45.426Z</time>
      </trkpt>
      <trkpt lat="47.491556" lon="7.803362">
        <ele>554.567025</ele>
        <time>2021-11-18T23:02:54.649Z</time>
      </trkpt>
      <trkpt lat="47.491486" lon="7.803573">
        <ele>556.183125</ele>
        <time>2021-11-18T23:03:05.822Z</time>
      </trkpt>
      <trkpt lat="47.491467" lon="7.803711">
        <ele>557.151408</ele>
        <time>2021-11-18T23:03:12.805Z</time>
      </trkpt>
      <trkpt lat="47.491463" lon="7.803928">
        <ele>558.643897</ele>
        <time>2021-11-18T23:03:22.268Z</time>
      </trkpt>
      <trkpt lat="47.491423" lon="7.804002">
        <ele>559.295432</ele>
        <time>2021-11-18T23:03:29.092Z</time>
      </trkpt>
      <trkpt lat="47.491177" lon="7.804268">
        <ele>562.395418</ele>
        <time>2021-11-18T23:03:46.398Z</time>
      </trkpt>
      <trkpt lat="47.490972" lon="7.804817">
        <ele>566.707976</ele>
        <time>2021-11-18T23:04:17.417Z</time>
      </trkpt>
      <trkpt lat="47.490914" lon="7.804913">
        <ele>567.593370</ele>
        <time>2021-11-18T23:04:22.197Z</time>
      </trkpt>
      <trkpt lat="47.490692" lon="7.805224">
        <ele>570.417703</ele>
        <time>2021-11-18T23:04:42.640Z</time>
      </trkpt>
      <trkpt lat="47.490528" lon="7.805558">
        <ele>572.917394</ele>
        <time>2021-11-18T23:04:54.973Z</time>
      </trkpt>
      <trkpt lat="47.490509" lon="7.805657">
        <ele>573.540489</ele>
        <time>2021-11-18T23:05:02.406Z</time>
      </trkpt>
      <trkpt lat="47.490507" lon="7.805711">
        <ele>573.867918</ele>
        <time>2021-11-18T23:05:02.771Z</time>
      </trkpt>
      <trkpt lat="47.490538" lon="7.805979">
        <ele>575.514104</ele>
        <time>2021-11-18T23:05:11.759Z</time>
      </trkpt>
      <trkpt lat="47.490574" lon="7.806137">
        <ele>576.523621</ele>
        <time>2021-11-18T23:05:17.717Z</time>
      </trkpt>
      <trkpt lat="47.490633" lon="7.806304">
        <ele>577.664568</ele>
        <time>2021-11-18T23:05:23.979Z</time>
      </trkpt>
      <trkpt lat="47.490886" lon="7.806854">
        <ele>581.692859</ele>
        <time>2021-11-18T23:05:47.191Z</time>
      </trkpt>
      <trkpt lat="47.490987" lon="7.807452">
        <ele>584.814398</ele>
        <time>2021-11-18T23:06:03.102Z</time>
      </trkpt>
      <trkpt lat="47.491021" lon="7.807539">
        <ele>585.051728</ele>
        <time>2021-11-18T23:06:05.381Z</time>
      </trkpt>
      <trkpt lat="47.491259" lon="7.808151">
        <ele>586.719170</ele>
        <time>2021-11-18T23:06:16.003Z</time>
      </trkpt>
      <trkpt lat="47.491350" lon="7.808391">
        <ele>587.369039</ele>
        <time>2021-11-18T23:06:20.640Z</time>
      </trkpt>
      <trkpt lat="47.491452" lon="7.808947">
        <ele>588.729508</ele>
        <time>2021-11-18T23:06:28.111Z</time>
      </trkpt>
      <trkpt lat="47.491490" lon="7.809341">
        <ele>589.669329</ele>
        <time>2021-11-18T23:06:36.699Z</time>
      </trkpt>
      <trkpt lat="47.491540" lon="7.809874">
        <ele>590.970467</ele>
        <time>2021-11-18T23:06:48.418Z</time>
      </trkpt>
      <trkpt lat="47.491544" lon="7.810309">
        <ele>592.133674</ele>
        <time>2021-11-18T23:06:58.372Z</time>
      </trkpt>
      <trkpt lat="47.491483" lon="7.810733">
        <ele>593.292774</ele>
        <time>2021-11-18T23:07:08.669Z</time>
      </trkpt>
      <trkpt lat="47.491462" lon="7.810822">
        <ele>593.544833</ele>
        <time>2021-11-18T23:07:10.866Z</time>
      </trkpt>
      <trkpt lat="47.491417" lon="7.811033">
        <ele>594.136439</ele>
        <time>2021-11-18T23:07:14.660Z</time>
      </trkpt>
      <trkpt lat="47.491356" lon="7.811021">
        <ele>594.379943</ele>
        <time>2021-11-18T23:07:17.223Z</time>
      </trkpt>
      <trkpt lat="47.491305" lon="7.811022">
        <ele>594.581772</ele>
        <time>2021-11-18T23:07:18.860Z</time>
      </trkpt>
      <trkpt lat="47.491210" lon="7.811067">
        <ele>594.976480</ele>
        <time>2021-11-18T23:07:22.404Z</time>
      </trkpt>
      <trkpt lat="47.491168" lon="7.811103">
        <ele>595.168539</ele>
        <time>2021-11-18T23:07:24.557Z</time>
      </trkpt>
      <trkpt lat="47.491099" lon="7.811167">
        <ele>595.490771</ele>
        <time>2021-11-18T23:07:25.672Z</time>
      </trkpt>
      <trkpt lat="47.490921" lon="7.811332">
        <ele>596.321891</ele>
        <time>2021-11-18T23:07:32.088Z</time>
      </trkpt>
      <trkpt lat="47.490608" lon="7.811558">
        <ele>597.700006</ele>
        <time>2021-11-18T23:07:41.259Z</time>
      </trkpt>
      <trkpt lat="47.490230" lon="7.811766">
        <ele>599.030301</ele>
        <time>2021-11-18T23:07:51.932Z</time>
      </trkpt>
      <trkpt lat="47.489734" lon="7.811930">
        <ele>600.677776</ele>
        <time>2021-11-18T23:08:06.994Z</time>
      </trkpt>
      <trkpt lat="47.488654" lon="7.812154">
        <ele>604.272056</ele>
        <time>2021-11-18T23:08:36.158Z</time>
      </trkpt>
      <trkpt lat="47.488525" lon="7.812197">
        <ele>604.746357</ele>
        <time>2021-11-18T23:08:40.532Z</time>
      </trkpt>
      <trkpt lat="47.486782" lon="7.812718">
        <ele>610.307605</ele>
        <time>2021-11-18T23:09:33.708Z</time>
      </trkpt>
      <trkpt lat="47.486531" lon="7.812839">
        <ele>610.492563</ele>
        <time>2021-11-18T23:09:40.657Z</time>
      </trkpt>
      <trkpt lat="47.485925" lon="7.813196">
        <ele>610.949563</ele>
        <time>2021-11-18T23:09:54.648Z</time>
      </trkpt>
      <trkpt lat="47.485144" lon="7.813866">
        <ele>609.161198</ele>
        <time>2021-11-18T23:10:04.657Z</time>
      </trkpt>
      <trkpt lat="47.484810" lon="7.814067">
        <ele>606.536847</ele>
        <time>2021-11-18T23:10:07.866Z</time>
      </trkpt>
      <trkpt lat="47.484732" lon="7.814081">
        <ele>605.964966</ele>
        <time>2021-11-18T23:10:08.516Z</time>
      </trkpt>
      <trkpt lat="47.484689" lon="7.814083">
        <ele>605.651837</ele>
        <time>2021-11-18T23:10:09.617Z</time>
      </trkpt>
      <trkpt lat="47.484558" lon="7.814061">
        <ele>604.692238</ele>
        <time>2021-11-18T23:10:13.325Z</time>
      </trkpt>
      <trkpt lat="47.484474" lon="7.814023">
        <ele>604.052915</ele>
        <time>2021-11-18T23:10:15.718Z</time>
      </trkpt>
      <trkpt lat="47.484375" lon="7.813958">
        <ele>603.264602</ele>
        <time>2021-11-18T23:10:16.609Z</time>
      </trkpt>
      <trkpt lat="47.483867" lon="7.813452">
        <ele>598.807502</ele>
        <time>2021-11-18T23:10:22.069Z</time>
      </trkpt>
      <trkpt lat="47.483804" lon="7.813389">
        <ele>598.228912</ele>
        <time>2021-11-18T23:10:22.697Z</time>
      </trkpt>
      <trkpt lat="47.483708" lon="7.813293">
        <ele>596.504288</ele>
        <time>2021-11-18T23:10:23.712Z</time>
      </trkpt>
      <trkpt lat="47.483493" lon="7.813178">
        <ele>593.101439</ele>
        <time>2021-11-18T23:10:25.666Z</time>
      </trkpt>
      <trkpt lat="47.483220" lon="7.813099">
        <ele>588.960967</ele>
        <time>2021-11-18T23:10:28.040Z</time>
      </trkpt>
      <trkpt lat="47.482949" lon="7.813114">
        <ele>584.924417</ele>
        <time>2021-11-18T23:10:30.286Z</time>
      </trkpt>
      <trkpt lat="47.482420" lon="7.813239">
        <ele>576.950693</ele>
        <time>2021-11-18T23:10:34.692Z</time>
      </trkpt>
      <trkpt lat="47.482097" lon="7.813263">
        <ele>572.136907</ele>
        <time>2021-11-18T23:10:37.348Z</time>
      </trkpt>
      <trkpt lat="47.481920" lon="7.813196">
        <ele>569.488266</ele>
        <time>2021-11-18T23:10:38.845Z</time>
      </trkpt>
      <trkpt lat="47.481456" lon="7.813058">
        <ele>562.682401</ele>
        <time>2021-11-18T23:10:42.741Z</time>
      </trkpt>
      <trkpt lat="47.480872" lon="7.813093">
        <ele>554.277478</ele>
        <time>2021-11-18T23:10:47.592Z</time>
      </trkpt>
      <trkpt lat="47.480713" lon="7.812994">
        <ele>551.796835</ele>
        <time>2021-11-18T23:10:49.049Z</time>
      </trkpt>
      <trkpt lat="47.479735" lon="7.811893">
        <ele>541.683399</ele>
        <time>2021-11-18T23:10:59.665Z</time>
      </trkpt>
      <trkpt lat="47.479687" lon="7.811839">
        <ele>541.385395</ele>
        <time>2021-11-18T23:11:06.756Z</time>
      </trkpt>
      <trkpt lat="47.479473" lon="7.811584">
        <ele>540.027453</ele>
        <time>2021-11-18T23:11:09.036Z</time>
      </trkpt>
      <trkpt lat="47.478943" lon="7.810849">
        <ele>536.380874</ele>
        <time>2021-11-18T23:11:17.421Z</time>
      </trkpt>
      <trkpt lat="47.478809" lon="7.810763">
        <ele>535.529166</ele>
        <time>2021-11-18T23:11:28.769Z</time>
      </trkpt>
      <trkpt lat="47.478566" lon="7.810790">
        <ele>534.108220</ele>
        <time>2021-11-18T23:11:30.898Z</time>
      </trkpt>
      <trkpt lat="47.478335" lon="7.810955">
        <ele>532.612486</ele>
        <time>2021-11-18T23:11:36.434Z</time>
      </trkpt>
      <trkpt lat="47.478231" lon="7.811139">
        <ele>531.667176</ele>
        <time>2021-11-18T23:11:37.811Z</time>
      </trkpt>
      <trkpt lat="47.478204" lon="7.811401">
        <ele>530.622683</ele>
        <time>2021-11-18T23:11:39.405Z</time>
      </trkpt>
      <trkpt lat="47.478262" lon="7.811831">
        <ele>528.894606</ele>
        <time>2021-11-18T23:11:41.968Z</time>
      </trkpt>
      <trkpt lat="47.478245" lon="7.812069">
        <ele>527.951410</ele>
        <time>2021-11-18T23:11:43.436Z</time>
      </trkpt>
      <trkpt lat="47.478216" lon="7.812137">
        <ele>527.634526</ele>
        <time>2021-11-18T23:11:43.888Z</time>
      </trkpt>
      <trkpt lat="47.478172" lon="7.812240">
        <ele>527.154311</ele>
        <time>2021-11-18T23:11:44.613Z</time>
      </trkpt>
      <trkpt lat="47.477609" lon="7.813223">
        <ele>519.471037</ele>
        <time>2021-11-18T23:11:52.168Z</time>
      </trkpt>
      <trkpt lat="47.477546" lon="7.813318">
        <ele>518.620183</ele>
        <time>2021-11-18T23:11:52.918Z</time>
      </trkpt>
      <trkpt lat="47.477516" lon="7.813359">
        <ele>518.233887</ele>
        <time>2021-11-18T23:11:53.263Z</time>
      </trkpt>
      <trkpt lat="47.477155" lon="7.813696">
        <ele>514.196408</ele>
        <time>2021-11-18T23:11:57.185Z</time>
      </trkpt>
      <trkpt lat="47.476980" lon="7.813791">
        <ele>512.433222</ele>
        <time>2021-11-18T23:11:59.353Z</time>
      </trkpt>
      <trkpt lat="47.476884" lon="7.813858">
        <ele>511.429224</ele>
        <time>2021-11-18T23:12:00.220Z</time>
      </trkpt>
      <trkpt lat="47.476563" lon="7.814189">
        <ele>507.568389</ele>
        <time>2021-11-18T23:12:03.599Z</time>
      </trkpt>
      <trkpt lat="47.476534" lon="7.814226">
        <ele>507.168141</ele>
        <time>2021-11-18T23:12:07.642Z</time>
      </trkpt>
      <trkpt lat="47.476334" lon="7.814450">
        <ele>504.546314</ele>
        <time>2021-11-18T23:12:09.803Z</time>
      </trkpt>
      <trkpt lat="47.476204" lon="7.814552">
        <ele>503.008298</ele>
        <time>2021-11-18T23:12:11.015Z</time>
      </trkpt>
      <trkpt lat="47.476150" lon="7.814569">
        <ele>502.431250</ele>
        <time>2021-11-18T23:12:15.801Z</time>
      </trkpt>
      <trkpt lat="47.476077" lon="7.814575">
        <ele>501.667071</ele>
        <time>2021-11-18T23:12:16.404Z</time>
      </trkpt>
      <trkpt lat="47.475705" lon="7.814474">
        <ele>497.713970</ele>
        <time>2021-11-18T23:12:19.591Z</time>
      </trkpt>
      <trkpt lat="47.475471" lon="7.814482">
        <ele>495.267531</ele>
        <time>2021-11-18T23:12:21.538Z</time>
      </trkpt>
      <trkpt lat="47.475276" lon="7.814567">
        <ele>493.142755</ele>
        <time>2021-11-18T23:12:23.301Z</time>
      </trkpt>
      <trkpt lat="47.475210" lon="7.814595">
        <ele>492.425117</ele>
        <time>2021-11-18T23:12:23.870Z</time>
      </trkpt>
      <trkpt lat="47.474961" lon="7.814741">
        <ele>489.164308</ele>
        <time>2021-11-18T23:12:26.478Z</time>
      </trkpt>
      <trkpt lat="47.474804" lon="7.814845">
        <ele>486.362102</ele>
        <time>2021-11-18T23:12:27.895Z</time>
      </trkpt>
      <trkpt lat="47.474584" lon="7.814993">
        <ele>482.425174</ele>
        <time>2021-11-18T23:12:30.031Z</time>
      </trkpt>
      <trkpt lat="47.474430" lon="7.815154">
        <ele>479.353354</ele>
        <time>2021-11-18T23:12:31.672Z</time>
      </trkpt>
      <trkpt lat="47.474375" lon="7.815394">
        <ele>476.563003</ele>
        <time>2021-11-18T23:12:33.135Z</time>
      </trkpt>
      <trkpt lat="47.474616" lon="7.816226">
        <ele>466.596232</ele>
        <time>2021-11-18T23:12:38.140Z</time>
      </trkpt>
      <trkpt lat="47.474739" lon="7.816928">
        <ele>459.094671</ele>
        <time>2021-11-18T23:12:42.167Z</time>
      </trkpt>
      <trkpt lat="47.474739" lon="7.817281">
        <ele>455.947658</ele>
        <time>2021-11-18T23:12:44.118Z</time>
      </trkpt>
      <trkpt lat="47.474702" lon="7.817367">
        <ele>455.038824</ele>
        <time>2021-11-18T23:12:44.823Z</time>
      </trkpt>
      <trkpt lat="47.474641" lon="7.817509">
        <ele>453.538848</ele>
        <time>2021-11-18T23:12:46.337Z</time>
      </trkpt>
      <trkpt lat="47.474613" lon="7.817546">
        <ele>453.043676</ele>
        <time>2021-11-18T23:12:47.606Z</time>
      </trkpt>
      <trkpt lat="47.474555" lon="7.817587">
        <ele>452.195841</ele>
        <time>2021-11-18T23:12:48.392Z</time>
      </trkpt>
      <trkpt lat="47.474389" lon="7.817613">
        <ele>449.994132</ele>
        <time>2021-11-18T23:13:03.583Z</time>
      </trkpt>
      <trkpt lat="47.474233" lon="7.817507">
        <ele>447.729920</ele>
        <time>2021-11-18T23:13:05.041Z</time>
      </trkpt>
      <trkpt lat="47.474210" lon="7.817475">
        <ele>447.313488</ele>
        <time>2021-11-18T23:13:05.620Z</time>
      </trkpt>
      <trkpt lat="47.474182" lon="7.817417">
        <ele>446.678068</ele>
        <time>2021-11-18T23:13:12.574Z</time>
      </trkpt>
      <trkpt lat="47.473926" lon="7.816632">
        <ele>438.907694</ele>
        <time>2021-11-18T23:13:18.167Z</time>
      </trkpt>
      <trkpt lat="47.473743" lon="7.816298">
        <ele>436.304027</ele>
        <time>2021-11-18T23:13:20.580Z</time>
      </trkpt>
      <trkpt lat="47.473230" lon="7.815705">
        <ele>432.203066</ele>
        <time>2021-11-18T23:13:26.193Z</time>
      </trkpt>
      <trkpt lat="47.472623" lon="7.815140">
        <ele>427.685573</ele>
        <time>2021-11-18T23:13:34.710Z</time>
      </trkpt>
      <trkpt lat="47.472505" lon="7.815033">
        <ele>426.813745</ele>
        <time>2021-11-18T23:13:36.073Z</time>
      </trkpt>
      <trkpt lat="47.472320" lon="7.814860">
        <ele>425.279784</ele>
        <time>2021-11-18T23:13:38.210Z</time>
      </trkpt>
      <trkpt lat="47.471093" lon="7.813407">
        <ele>413.059428</ele>
        <time>2021-11-18T23:13:51.791Z</time>
      </trkpt>
      <trkpt lat="47.470923" lon="7.812993">
        <ele>411.309637</ele>
        <time>2021-11-18T23:13:54.853Z</time>
      </trkpt>
      <trkpt lat="47.470835" lon="7.812891">
        <ele>410.873122</ele>
        <time>2021-11-18T23:13:55.987Z</time>
      </trkpt>
      <trkpt lat="47.470794" lon="7.812878">
        <ele>410.709396</ele>
        <time>2021-11-18T23:13:56.754Z</time>
      </trkpt>
      <trkpt lat="47.470744" lon="7.812887">
        <ele>410.512724</ele>
        <time>2021-11-18T23:13:57.204Z</time>
      </trkpt>
      <trkpt lat="47.470614" lon="7.813052">
        <ele>409.843901</ele>
        <time>2021-11-18T23:13:58.830Z</time>
      </trkpt>
      <trkpt lat="47.470607" lon="7.813259">
        <ele>409.296859</ele>
        <time>2021-11-18T23:14:00.528Z</time>
      </trkpt>
      <trkpt lat="47.470938" lon="7.813871">
        <ele>407.228130</ele>
        <time>2021-11-18T23:14:05.919Z</time>
      </trkpt>
      <trkpt lat="47.470969" lon="7.814299">
        <ele>406.092002</ele>
        <time>2021-11-18T23:14:09.393Z</time>
      </trkpt>
      <trkpt lat="47.470838" lon="7.814669">
        <ele>404.923018</ele>
        <time>2021-11-18T23:14:12.482Z</time>
      </trkpt>
      <trkpt lat="47.470596" lon="7.814760">
        <ele>403.300013</ele>
        <time>2021-11-18T23:14:14.837Z</time>
      </trkpt>
      <trkpt lat="47.470163" lon="7.814758">
        <ele>400.485527</ele>
        <time>2021-11-18T23:14:18.831Z</time>
      </trkpt>
      <trkpt lat="47.469960" lon="7.814754">
        <ele>399.165923</ele>
        <time>2021-11-18T23:14:20.849Z</time>
      </trkpt>
      <trkpt lat="47.469647" lon="7.814557">
        <ele>396.954964</ele>
        <time>2021-11-18T23:14:23.852Z</time>
      </trkpt>
      <trkpt lat="47.469608" lon="7.814504">
        <ele>396.610739</ele>
        <time>2021-11-18T23:14:24.328Z</time>
      </trkpt>
      <trkpt lat="47.469564" lon="7.814419">
        <ele>396.140336</ele>
        <time>2021-11-18T23:14:24.931Z</time>
      </trkpt>
      <trkpt lat="47.469477" lon="7.814056">
        <ele>394.448091</ele>
        <time>2021-11-18T23:14:27.295Z</time>
      </trkpt>
      <trkpt lat="47.469471" lon="7.813955">
        <ele>394.002602</ele>
        <time>2021-11-18T23:14:27.868Z</time>
      </trkpt>
      <trkpt lat="47.469445" lon="7.813683">
        <ele>392.537405</ele>
        <time>2021-11-18T23:14:29.500Z</time>
      </trkpt>
      <trkpt lat="47.469382" lon="7.813432">
        <ele>390.857329</ele>
        <time>2021-11-18T23:14:31.045Z</time>
      </trkpt>
      <trkpt lat="47.469261" lon="7.813214">
        <ele>389.087345</ele>
        <time>2021-11-18T23:14:32.693Z</time>
      </trkpt>
      <trkpt lat="47.468968" lon="7.813033">
        <ele>386.139903</ele>
        <time>2021-11-18T23:14:35.409Z</time>
      </trkpt>
      <trkpt lat="47.468898" lon="7.813028">
        <ele>385.489359</ele>
        <time>2021-11-18T23:14:35.996Z</time>
      </trkpt>
      <trkpt lat="47.468231" lon="7.813117">
        <ele>379.272678</ele>
        <time>2021-11-18T23:14:41.746Z</time>
      </trkpt>
      <trkpt lat="47.468087" lon="7.813122">
        <ele>377.935605</ele>
        <time>2021-11-18T23:14:43.019Z</time>
      </trkpt>
      <trkpt lat="47.467986" lon="7.813069">
        <ele>376.940813</ele>
        <time>2021-11-18T23:14:44.029Z</time>
      </trkpt>
      <trkpt lat="47.467958" lon="7.813047">
        <ele>376.682955</ele>
        <time>2021-11-18T23:14:44.365Z</time>
      </trkpt>
      <trkpt lat="47.467857" lon="7.812969">
        <ele>376.314658</ele>
        <time>2021-11-18T23:14:45.371Z</time>
      </trkpt>
      <trkpt lat="47.467746" lon="7.812871">
        <ele>375.896804</ele>
        <time>2021-11-18T23:14:46.588Z</time>
      </trkpt>
      <trkpt lat="47.467739" lon="7.812865">
        <ele>375.870652</ele>
        <time>2021-11-18T23:14:46.655Z</time>
      </trkpt>
      <trkpt lat="47.467426" lon="7.812608">
        <ele>374.713468</ele>
        <time>2021-11-18T23:14:50.023Z</time>
      </trkpt>
      <trkpt lat="47.467146" lon="7.812375">
        <ele>373.674987</ele>
        <time>2021-11-18T23:14:53.338Z</time>
      </trkpt>
      <trkpt lat="47.467077" lon="7.812317">
        <ele>373.418449</ele>
        <time>2021-11-18T23:14:54.132Z</time>
      </trkpt>
      <trkpt lat="47.467013" lon="7.812269">
        <ele>373.186498</ele>
        <time>2021-11-18T23:14:54.980Z</time>
      </trkpt>
      <trkpt lat="47.466796" lon="7.812117">
        <ele>372.410377</ele>
        <time>2021-11-18T23:14:57.564Z</time>
      </trkpt>
      <trkpt lat="47.466676" lon="7.812018">
        <ele>371.966228</ele>
        <time>2021-11-18T23:14:59.178Z</time>
      </trkpt>
      <trkpt lat="47.466578" lon="7.811937">
        <ele>371.603346</ele>
        <time>2021-11-18T23:15:00.584Z</time>
      </trkpt>
      <trkpt lat="47.466490" lon="7.811850">
        <ele>371.261203</ele>
        <time>2021-11-18T23:15:01.908Z</time>
      </trkpt>
      <trkpt lat="47.466315" lon="7.811646">
        <ele>371.039399</ele>
        <time>2021-11-18T23:15:05.702Z</time>
      </trkpt>
      <trkpt lat="47.466262" lon="7.811579">
        <ele>371.137431</ele>
        <time>2021-11-18T23:15:06.767Z</time>
      </trkpt>
      <trkpt lat="47.466196" lon="7.811499">
        <ele>371.257414</ele>
        <time>2021-11-18T23:15:08.383Z</time>
      </trkpt>
      <trkpt lat="47.466094" lon="7.811396">
        <ele>371.431074</ele>
        <time>2021-11-18T23:15:10.848Z</time>
      </trkpt>
      <trkpt lat="47.466010" lon="7.811328">
        <ele>371.565720</ele>
        <time>2021-11-18T23:15:12.751Z</time>
      </trkpt>
      <trkpt lat="47.465897" lon="7.811237">
        <ele>371.746635</ele>
        <time>2021-11-18T23:15:15.024Z</time>
      </trkpt>
      <trkpt lat="47.465656" lon="7.811068">
        <ele>372.121666</ele>
        <time>2021-11-18T23:15:21.417Z</time>
      </trkpt>
      <trkpt lat="47.465536" lon="7.811007">
        <ele>372.300088</ele>
        <time>2021-11-18T23:15:24.356Z</time>
      </trkpt>
      <trkpt lat="47.465394" lon="7.810939">
        <ele>372.509963</ele>
        <time>2021-11-18T23:15:28.216Z</time>
      </trkpt>
      <trkpt lat="47.465245" lon="7.810868">
        <ele>372.730080</ele>
        <time>2021-11-18T23:15:31.554Z</time>
      </trkpt>
      <trkpt lat="47.465212" lon="7.810852">
        <ele>372.778912</ele>
        <time>2021-11-18T23:15:32.437Z</time>
      </trkpt>
      <trkpt lat="47.465087" lon="7.810791">
        <ele>372.963998</ele>
        <time>2021-11-18T23:15:35.593Z</time>
      </trkpt>
      <trkpt lat="47.464636" lon="7.810572">
        <ele>373.651037</ele>
        <time>2021-11-18T23:15:45.877Z</time>
      </trkpt>
      <trkpt lat="47.464496" lon="7.810462">
        <ele>373.894333</ele>
        <time>2021-11-18T23:15:49.098Z</time>
      </trkpt>
      <trkpt lat="47.464452" lon="7.810429">
        <ele>373.970046</ele>
        <time>2021-11-18T23:15:50.295Z</time>
      </trkpt>
      <trkpt lat="47.464417" lon="7.810573">
        <ele>374.128817</ele>
        <time>2021-11-18T23:15:52.585Z</time>
      </trkpt>
      <trkpt lat="47.464385" lon="7.810619">
        <ele>374.197300</ele>
        <time>2021-11-18T23:15:53.322Z</time>
      </trkpt>
      <trkpt lat="47.464364" lon="7.810630">
        <ele>374.231491</ele>
        <time>2021-11-18T23:15:53.806Z</time>
      </trkpt>
      <trkpt lat="47.464340" lon="7.810632">
        <ele>374.268383</ele>
        <time>2021-11-18T23:15:54.347Z</time>
      </trkpt>
      <trkpt lat="47.464200" lon="7.810621">
        <ele>374.483550</ele>
        <time>2021-11-18T23:15:57.113Z</time>
      </trkpt>
      <trkpt lat="47.463897" lon="7.810575">
        <ele>374.951021</ele>
        <time>2021-11-18T23:16:03.758Z</time>
      </trkpt>
      <trkpt lat="47.463886" lon="7.810514">
        <ele>375.016526</ele>
        <time>2021-11-18T23:16:04.791Z</time>
      </trkpt>
      <trkpt lat="47.463831" lon="7.810395">
        <ele>375.166093</ele>
        <time>2021-11-18T23:16:07.361Z</time>
      </trkpt>
      <trkpt lat="47.463753" lon="7.810251">
        <ele>375.357545</ele>
        <time>2021-11-18T23:16:10.657Z</time>
      </trkpt>
      <trkpt lat="47.463689" lon="7.810134">
        <ele>375.513702</ele>
        <time>2021-11-18T23:16:13.350Z</time>
      </trkpt>
      <trkpt lat="47.463652" lon="7.810060">
        <ele>375.609200</ele>
        <time>2021-11-18T23:16:14.823Z</time>
      </trkpt>
      <trkpt lat="47.463616" lon="7.809990">
        <ele>375.700457</ele>
        <time>2021-11-18T23:16:16.338Z</time>
      </trkpt>
      <trkpt lat="47.463603" lon="7.809961">
        <ele>375.736560</ele>
        <time>2021-11-18T23:16:16.957Z</time>
      </trkpt>
      <trkpt lat="47.463403" lon="7.809601">
        <ele>376.214182</ele>
        <time>2021-11-18T23:16:25.010Z</time>
      </trkpt>
      <trkpt lat="47.463347" lon="7.809533">
        <ele>376.309944</ele>
        <time>2021-11-18T23:16:27.140Z</time>
      </trkpt>
      <trkpt lat="47.463122" lon="7.809317">
        <ele>376.664472</ele>
        <time>2021-11-18T23:16:33.660Z</time>
      </trkpt>
      <trkpt lat="47.463007" lon="7.809215">
        <ele>376.841701</ele>
        <time>2021-11-18T23:16:37.188Z</time>
      </trkpt>
      <trkpt lat="47.462918" lon="7.809150">
        <ele>376.972891</ele>
        <time>2021-11-18T23:16:38.890Z</time>
      </trkpt>
      <trkpt lat="47.462879" lon="7.809121">
        <ele>377.030585</ele>
        <time>2021-11-18T23:16:39.937Z</time>
      </trkpt>
      <trkpt lat="47.462185" lon="7.808547">
        <ele>378.081516</ele>
        <time>2021-11-18T23:16:55.459Z</time>
      </trkpt>
      <trkpt lat="47.462087" lon="7.808494">
        <ele>378.219431</ele>
        <time>2021-11-18T23:16:57.858Z</time>
      </trkpt>
      <trkpt lat="47.462052" lon="7.808470">
        <ele>378.270420</ele>
        <time>2021-11-18T23:16:58.566Z</time>
      </trkpt>
      <trkpt lat="47.461997" lon="7.808450">
        <ele>378.345279</ele>
        <time>2021-11-18T23:16:59.625Z</time>
      </trkpt>
      <trkpt lat="47.461822" lon="7.808433">
        <ele>378.579787</ele>
        <time>2021-11-18T23:17:03.462Z</time>
      </trkpt>
      <trkpt lat="47.461296" lon="7.808372">
        <ele>379.363546</ele>
        <time>2021-11-18T23:17:14.722Z</time>
      </trkpt>
      <trkpt lat="47.460938" lon="7.808308">
        <ele>379.899217</ele>
        <time>2021-11-18T23:17:22.057Z</time>
      </trkpt>
      <trkpt lat="47.460870" lon="7.808289">
        <ele>380.002016</ele>
        <time>2021-11-18T23:17:23.390Z</time>
      </trkpt>
      <trkpt lat="47.460827" lon="7.808276">
        <ele>380.067213</ele>
        <time>2021-11-18T23:17:24.388Z</time>
      </trkpt>
      <trkpt lat="47.460439" lon="7.808155">
        <ele>380.656250</ele>
        <time>2021-11-18T23:17:32.651Z</time>
      </trkpt>
      <trkpt lat="47.460298" lon="7.808103">
        <ele>380.872115</ele>
        <time>2021-11-18T23:17:35.646Z</time>
      </trkpt>
      <trkpt lat="47.460078" lon="7.808023">
        <ele>381.208652</ele>
        <time>2021-11-18T23:17:40.325Z</time>
      </trkpt>
      <trkpt lat="47.459865" lon="7.807952">
        <ele>381.521418</ele>
        <time>2021-11-18T23:17:44.753Z</time>
      </trkpt>
      <trkpt lat="47.459423" lon="7.807775">
        <ele>382.175901</ele>
        <time>2021-11-18T23:17:54.350Z</time>
      </trkpt>
      <trkpt lat="47.459282" lon="7.807707">
        <ele>382.387871</ele>
        <time>2021-11-18T23:17:57.223Z</time>
      </trkpt>
      <trkpt lat="47.459007" lon="7.807577">
        <ele>382.800508</ele>
        <time>2021-11-18T23:18:02.624Z</time>
      </trkpt>
      <trkpt lat="47.458678" lon="7.807409">
        <ele>383.297975</ele>
        <time>2021-11-18T23:18:09.590Z</time>
      </trkpt>
      <trkpt lat="47.458342" lon="7.807254">
        <ele>383.802444</ele>
        <time>2021-11-18T23:18:17.101Z</time>
      </trkpt>
      <trkpt lat="47.458237" lon="7.807215">
        <ele>384.024914</ele>
        <time>2021-11-18T23:18:19.517Z</time>
      </trkpt>
      <trkpt lat="47.458181" lon="7.807191">
        <ele>384.144726</ele>
        <time>2021-11-18T23:18:20.867Z</time>
      </trkpt>
      <trkpt lat="47.457732" lon="7.807037">
        <ele>385.091884</ele>
        <time>2021-11-18T23:18:31.369Z</time>
      </trkpt>
      <trkpt lat="47.457326" lon="7.806926">
        <ele>385.940329</ele>
        <time>2021-11-18T23:18:41.292Z</time>
      </trkpt>
      <trkpt lat="47.457291" lon="7.806917">
        <ele>386.013332</ele>
        <time>2021-11-18T23:18:42.016Z</time>
      </trkpt>
      <trkpt lat="47.456988" lon="7.806840">
        <ele>386.645107</ele>
        <time>2021-11-18T23:18:49.453Z</time>
      </trkpt>
      <trkpt lat="47.456502" lon="7.806745">
        <ele>387.644777</ele>
        <time>2021-11-18T23:19:00.764Z</time>
      </trkpt>
      <trkpt lat="47.456331" lon="7.806727">
        <ele>387.979910</ele>
        <time>2021-11-18T23:19:04.913Z</time>
      </trkpt>
      <trkpt lat="47.456100" lon="7.806718">
        <ele>388.431648</ele>
        <time>2021-11-18T23:19:10.283Z</time>
      </trkpt>
      <trkpt lat="47.455379" lon="7.806783">
        <ele>389.843747</ele>
        <time>2021-11-18T23:19:26.976Z</time>
      </trkpt>
      <trkpt lat="47.454559" lon="7.807067">
        <ele>391.361333</ele>
        <time>2021-11-18T23:19:45.744Z</time>
      </trkpt>
      <trkpt lat="47.454428" lon="7.807128">
        <ele>391.557784</ele>
        <time>2021-11-18T23:19:48.079Z</time>
      </trkpt>
      <trkpt lat="47.454310" lon="7.807191">
        <ele>391.737232</ele>
        <time>2021-11-18T23:19:50.585Z</time>
      </trkpt>
      <trkpt lat="47.453985" lon="7.807368">
        <ele>392.232630</ele>
        <time>2021-11-18T23:19:57.055Z</time>
      </trkpt>
      <trkpt lat="47.453901" lon="7.807402">
        <ele>392.357202</ele>
        <time>2021-11-18T23:19:58.934Z</time>
      </trkpt>
      <trkpt lat="47.453815" lon="7.807438">
        <ele>392.485048</ele>
        <time>2021-11-18T23:20:00.629Z</time>
      </trkpt>
      <trkpt lat="47.453677" lon="7.807487">
        <ele>392.688052</ele>
        <time>2021-11-18T23:20:03.237Z</time>
      </trkpt>
      <trkpt lat="47.453371" lon="7.807571">
        <ele>393.133229</ele>
        <time>2021-11-18T23:20:09.291Z</time>
      </trkpt>
      <trkpt lat="47.453183" lon="7.807608">
        <ele>393.404514</ele>
        <time>2021-11-18T23:20:13.514Z</time>
      </trkpt>
      <trkpt lat="47.452830" lon="7.807686">
        <ele>393.960359</ele>
        <time>2021-11-18T23:20:21.787Z</time>
      </trkpt>
      <trkpt lat="47.452649" lon="7.807724">
        <ele>394.257524</ele>
        <time>2021-11-18T23:20:25.698Z</time>
      </trkpt>
      <trkpt lat="47.452556" lon="7.807739">
        <ele>394.409592</ele>
        <time>2021-11-18T23:20:27.701Z</time>
      </trkpt>
      <trkpt lat="47.452456" lon="7.807753">
        <ele>394.572868</ele>
        <time>2021-11-18T23:20:30.222Z</time>
      </trkpt>
      <trkpt lat="47.452253" lon="7.807773">
        <ele>394.903575</ele>
        <time>2021-11-18T23:20:34.561Z</time>
      </trkpt>
      <trkpt lat="47.451923" lon="7.807754">
        <ele>395.440395</ele>
        <time>2021-11-18T23:20:41.446Z</time>
      </trkpt>
      <trkpt lat="47.451791" lon="7.807759">
        <ele>395.655031</ele>
        <time>2021-11-18T23:20:44.203Z</time>
      </trkpt>
      <trkpt lat="47.451415" lon="7.807774">
        <ele>396.266440</ele>
        <time>2021-11-18T23:20:52.023Z</time>
      </trkpt>
      <trkpt lat="47.450005" lon="7.807761">
        <ele>398.446133</ele>
        <time>2021-11-18T23:21:21.437Z</time>
      </trkpt>
      <trkpt lat="47.449896" lon="7.807771">
        <ele>398.613937</ele>
        <time>2021-11-18T23:21:23.438Z</time>
      </trkpt>
      <trkpt lat="47.449829" lon="7.807782">
        <ele>398.717518</ele>
        <time>2021-11-18T23:21:24.796Z</time>
      </trkpt>
      <trkpt lat="47.449353" lon="7.807942">
        <ele>399.571603</ele>
        <time>2021-11-18T23:21:34.858Z</time>
      </trkpt>
      <trkpt lat="47.449267" lon="7.807971">
        <ele>399.778584</ele>
        <time>2021-11-18T23:21:37.180Z</time>
      </trkpt>
      <trkpt lat="47.449015" lon="7.808053">
        <ele>400.384056</ele>
        <time>2021-11-18T23:21:42.989Z</time>
      </trkpt>
      <trkpt lat="47.448903" lon="7.808078">
        <ele>400.649844</ele>
        <time>2021-11-18T23:21:45.833Z</time>
      </trkpt>
      <trkpt lat="47.448807" lon="7.808072">
        <ele>400.875311</ele>
        <time>2021-11-18T23:21:47.709Z</time>
      </trkpt>
      <trkpt lat="47.448442" lon="7.807881">
        <ele>401.783839</ele>
        <time>2021-11-18T23:21:57.111Z</time>
      </trkpt>
      <trkpt lat="47.448284" lon="7.807767">
        <ele>402.196370</ele>
        <time>2021-11-18T23:22:01.798Z</time>
      </trkpt>
      <trkpt lat="47.448245" lon="7.807740">
        <ele>402.297417</ele>
        <time>2021-11-18T23:22:03.230Z</time>
      </trkpt>
      <trkpt lat="47.447914" lon="7.807549">
        <ele>403.131159</ele>
        <time>2021-11-18T23:22:12.223Z</time>
      </trkpt>
      <trkpt lat="47.447689" lon="7.807548">
        <ele>403.840874</ele>
        <time>2021-11-18T23:22:17.160Z</time>
      </trkpt>
      <trkpt lat="47.447668" lon="7.807553">
        <ele>403.944665</ele>
        <time>2021-11-18T23:22:18.279Z</time>
      </trkpt>
      <trkpt lat="47.447633" lon="7.807562">
        <ele>404.118012</ele>
        <time>2021-11-18T23:22:19.211Z</time>
      </trkpt>
      <trkpt lat="47.447457" lon="7.807654">
        <ele>405.028897</ele>
        <time>2021-11-18T23:22:23.457Z</time>
      </trkpt>
      <trkpt lat="47.447388" lon="7.807704">
        <ele>405.403841</ele>
        <time>2021-11-18T23:22:25.192Z</time>
      </trkpt>
      <trkpt lat="47.447314" lon="7.807756">
        <ele>405.803628</ele>
        <time>2021-11-18T23:22:28.215Z</time>
      </trkpt>
      <trkpt lat="47.446662" lon="7.808234">
        <ele>409.354665</ele>
        <time>2021-11-18T23:22:53.252Z</time>
      </trkpt>
      <trkpt lat="47.446473" lon="7.808376">
        <ele>410.389122</ele>
        <time>2021-11-18T23:23:02.261Z</time>
      </trkpt>
      <trkpt lat="47.446375" lon="7.808453">
        <ele>410.930636</ele>
        <time>2021-11-18T23:23:06.970Z</time>
      </trkpt>
      <trkpt lat="47.446142" lon="7.808642">
        <ele>412.227410</ele>
        <time>2021-11-18T23:23:18.449Z</time>
      </trkpt>
      <trkpt lat="47.446096" lon="7.808680">
        <ele>412.546958</ele>
        <time>2021-11-18T23:23:20.776Z</time>
      </trkpt>
      <trkpt lat="47.446066" lon="7.808703">
        <ele>412.759261</ele>
        <time>2021-11-18T23:23:21.694Z</time>
      </trkpt>
      <trkpt lat="47.445880" lon="7.808843">
        <ele>414.070490</ele>
        <time>2021-11-18T23:23:30.473Z</time>
      </trkpt>
      <trkpt lat="47.445298" lon="7.809256">
        <ele>418.126175</ele>
        <time>2021-11-18T23:23:54.062Z</time>
      </trkpt>
      <trkpt lat="47.445120" lon="7.809369">
        <ele>419.343171</ele>
        <time>2021-11-18T23:24:01.597Z</time>
      </trkpt>
      <trkpt lat="47.445054" lon="7.809404">
        <ele>419.783677</ele>
        <time>2021-11-18T23:24:04.899Z</time>
      </trkpt>
      <trkpt lat="47.444386" lon="7.809626">
        <ele>423.890491</ele>
        <time>2021-11-18T23:24:38.060Z</time>
      </trkpt>
      <trkpt lat="47.443991" lon="7.809623">
        <ele>425.439340</ele>
        <time>2021-11-18T23:24:56.289Z</time>
      </trkpt>
      <trkpt lat="47.443720" lon="7.809596">
        <ele>426.504363</ele>
        <time>2021-11-18T23:25:08.409Z</time>
      </trkpt>
      <trkpt lat="47.443441" lon="7.809553">
        <ele>427.604272</ele>
        <time>2021-11-18T23:25:18.578Z</time>
      </trkpt>
      <trkpt lat="47.442919" lon="7.809465">
        <ele>429.664339</ele>
        <time>2021-11-18T23:25:33.002Z</time>
      </trkpt>
      <trkpt lat="47.442683" lon="7.809428">
        <ele>430.594902</ele>
        <time>2021-11-18T23:25:39.809Z</time>
      </trkpt>
      <trkpt lat="47.442177" lon="7.809333">
        <ele>429.766275</ele>
        <time>2021-11-18T23:25:51.882Z</time>
      </trkpt>
      <trkpt lat="47.440417" lon="7.808777">
        <ele>426.004175</ele>
        <time>2021-11-18T23:26:18.401Z</time>
      </trkpt>
      <trkpt lat="47.439717" lon="7.808754">
        <ele>423.830351</ele>
        <time>2021-11-18T23:26:28.248Z</time>
      </trkpt>
      <trkpt lat="47.439561" lon="7.808777">
        <ele>423.343617</ele>
        <time>2021-11-18T23:26:30.414Z</time>
      </trkpt>
      <trkpt lat="47.439256" lon="7.808836">
        <ele>422.388614</ele>
        <time>2021-11-18T23:26:35.108Z</time>
      </trkpt>
      <trkpt lat="47.439160" lon="7.808856">
        <ele>422.087618</ele>
        <time>2021-11-18T23:26:36.573Z</time>
      </trkpt>
      <trkpt lat="47.438917" lon="7.808920">
        <ele>422.027646</ele>
        <time>2021-11-18T23:26:40.598Z</time>
      </trkpt>
      <trkpt lat="47.438351" lon="7.809132">
        <ele>422.138280</ele>
        <time>2021-11-18T23:26:51.269Z</time>
      </trkpt>
      <trkpt lat="47.437880" lon="7.809448">
        <ele>422.236284</ele>
        <time>2021-11-18T23:27:03.800Z</time>
      </trkpt>
      <trkpt lat="47.437530" lon="7.809761">
        <ele>422.313791</ele>
        <time>2021-11-18T23:27:15.166Z</time>
      </trkpt>
      <trkpt lat="47.437405" lon="7.809871">
        <ele>422.461060</ele>
        <time>2021-11-18T23:27:19.171Z</time>
      </trkpt>
      <trkpt lat="47.436971" lon="7.810198">
        <ele>423.369961</ele>
        <time>2021-11-18T23:27:32.449Z</time>
      </trkpt>
      <trkpt lat="47.436910" lon="7.810231">
        <ele>423.491162</ele>
        <time>2021-11-18T23:27:34.359Z</time>
      </trkpt>
      <trkpt lat="47.436754" lon="7.810295">
        <ele>423.793242</ele>
        <time>2021-11-18T23:27:38.828Z</time>
      </trkpt>
      <trkpt lat="47.436714" lon="7.810307">
        <ele>423.869399</ele>
        <time>2021-11-18T23:27:40.101Z</time>
      </trkpt>
      <trkpt lat="47.436286" lon="7.810439">
        <ele>424.685196</ele>
        <time>2021-11-18T23:27:52.281Z</time>
      </trkpt>
      <trkpt lat="47.436034" lon="7.810517">
        <ele>425.165597</ele>
        <time>2021-11-18T23:27:59.789Z</time>
      </trkpt>
      <trkpt lat="47.435676" lon="7.810622">
        <ele>425.838180</ele>
        <time>2021-11-18T23:28:09.826Z</time>
      </trkpt>
      <trkpt lat="47.435107" lon="7.810718">
        <ele>426.851409</ele>
        <time>2021-11-18T23:28:24.930Z</time>
      </trkpt>
      <trkpt lat="47.434890" lon="7.810694">
        <ele>427.236406</ele>
        <time>2021-11-18T23:28:30.920Z</time>
      </trkpt>
      <trkpt lat="47.434532" lon="7.810638">
        <ele>427.873327</ele>
        <time>2021-11-18T23:28:40.685Z</time>
      </trkpt>
      <trkpt lat="47.434221" lon="7.810592">
        <ele>428.426307</ele>
        <time>2021-11-18T23:28:49.188Z</time>
      </trkpt>
      <trkpt lat="47.434093" lon="7.810572">
        <ele>428.654030</ele>
        <time>2021-11-18T23:28:52.597Z</time>
      </trkpt>
      <trkpt lat="47.433643" lon="7.810504">
        <ele>429.566845</ele>
        <time>2021-11-18T23:29:05.211Z</time>
      </trkpt>
      <trkpt lat="47.433316" lon="7.810451">
        <ele>430.260177</ele>
        <time>2021-11-18T23:29:15.034Z</time>
      </trkpt>
      <trkpt lat="47.432928" lon="7.810342">
        <ele>431.092581</ele>
        <time>2021-11-18T23:29:26.197Z</time>
      </trkpt>
      <trkpt lat="47.432554" lon="7.810136">
        <ele>431.933781</ele>
        <time>2021-11-18T23:29:37.508Z</time>
      </trkpt>
      <trkpt lat="47.432174" lon="7.809836">
        <ele>432.863167</ele>
        <time>2021-11-18T23:29:49.946Z</time>
      </trkpt>
      <trkpt lat="47.432022" lon="7.809706">
        <ele>433.276210</ele>
        <time>2021-11-18T23:29:55.475Z</time>
      </trkpt>
      <trkpt lat="47.431419" lon="7.809325">
        <ele>434.818649</ele>
        <time>2021-11-18T23:30:14.716Z</time>
      </trkpt>
      <trkpt lat="47.430938" lon="7.809138">
        <ele>435.988482</ele>
        <time>2021-11-18T23:30:29.443Z</time>
      </trkpt>
      <trkpt lat="47.430797" lon="7.809083">
        <ele>436.331480</ele>
        <time>2021-11-18T23:30:33.609Z</time>
      </trkpt>
      <trkpt lat="47.430630" lon="7.809037">
        <ele>436.731041</ele>
        <time>2021-11-18T23:30:38.593Z</time>
      </trkpt>
      <trkpt lat="47.430471" lon="7.809009">
        <ele>437.326445</ele>
        <time>2021-11-18T23:30:42.992Z</time>
      </trkpt>
      <trkpt lat="47.429678" lon="7.808980">
        <ele>441.047354</ele>
        <time>2021-11-18T23:31:08.883Z</time>
      </trkpt>
      <trkpt lat="47.428816" lon="7.809184">
        <ele>445.142279</ele>
        <time>2021-11-18T23:31:47.658Z</time>
      </trkpt>
      <trkpt lat="47.428531" lon="7.809311">
        <ele>447.275217</ele>
        <time>2021-11-18T23:32:02.975Z</time>
      </trkpt>
      <trkpt lat="47.428078" lon="7.809508">
        <ele>450.834277</ele>
        <time>2021-11-18T23:32:27.678Z</time>
      </trkpt>
      <trkpt lat="47.427626" lon="7.809699">
        <ele>454.377578</ele>
        <time>2021-11-18T23:32:52.594Z</time>
      </trkpt>
      <trkpt lat="47.427284" lon="7.809847">
        <ele>457.063508</ele>
        <time>2021-11-18T23:33:11.361Z</time>
      </trkpt>
      <trkpt lat="47.426541" lon="7.810106">
        <ele>461.159742</ele>
        <time>2021-11-18T23:33:48.079Z</time>
      </trkpt>
      <trkpt lat="47.425184" lon="7.810445">
        <ele>467.048189</ele>
        <time>2021-11-18T23:34:33.877Z</time>
      </trkpt>
      <trkpt lat="47.424871" lon="7.810565">
        <ele>468.082707</ele>
        <time>2021-11-18T23:34:41.984Z</time>
      </trkpt>
      <trkpt lat="47.424697" lon="7.810643">
        <ele>468.664425</ele>
        <time>2021-11-18T23:34:48.007Z</time>
      </trkpt>
      <trkpt lat="47.423941" lon="7.811048">
        <ele>471.237061</ele>
        <time>2021-11-18T23:35:13.400Z</time>
      </trkpt>
      <trkpt lat="47.423767" lon="7.811175">
        <ele>471.857915</ele>
        <time>2021-11-18T23:35:20.603Z</time>
      </trkpt>
      <trkpt lat="47.423172" lon="7.811608">
        <ele>474.279600</ele>
        <time>2021-11-18T23:35:46.774Z</time>
      </trkpt>
      <trkpt lat="47.422978" lon="7.811734">
        <ele>475.093403</ele>
        <time>2021-11-18T23:35:54.802Z</time>
      </trkpt>
      <trkpt lat="47.422720" lon="7.811867">
        <ele>476.142771</ele>
        <time>2021-11-18T23:36:05.543Z</time>
      </trkpt>
      <trkpt lat="47.422397" lon="7.812011">
        <ele>477.438433</ele>
        <time>2021-11-18T23:36:19.447Z</time>
      </trkpt>
      <trkpt lat="47.421893" lon="7.812157">
        <ele>479.376188</ele>
        <time>2021-11-18T23:36:36.685Z</time>
      </trkpt>
      <trkpt lat="47.421441" lon="7.812208">
        <ele>478.094001</ele>
        <time>2021-11-18T23:36:47.164Z</time>
      </trkpt>
      <trkpt lat="47.421065" lon="7.812200">
        <ele>477.030388</ele>
        <time>2021-11-18T23:36:52.610Z</time>
      </trkpt>
      <trkpt lat="47.421065" lon="7.812200">
        <ele>477.030388</ele>
        <time>2021-11-18T23:36:52.740Z</time>
      </trkpt>
      <trkpt lat="47.420870" lon="7.812170">
        <ele>476.475857</ele>
        <time>2021-11-18T23:36:55.342Z</time>
      </trkpt>
      <trkpt lat="47.420767" lon="7.812138">
        <ele>476.178158</ele>
        <time>2021-11-18T23:36:56.713Z</time>
      </trkpt>
      <trkpt lat="47.420607" lon="7.812071">
        <ele>475.707789</ele>
        <time>2021-11-18T23:36:59.161Z</time>
      </trkpt>
      <trkpt lat="47.420458" lon="7.811986">
        <ele>475.256043</ele>
        <time>2021-11-18T23:37:01.152Z</time>
      </trkpt>
      <trkpt lat="47.420135" lon="7.811734">
        <ele>474.196876</ele>
        <time>2021-11-18T23:37:06.092Z</time>
      </trkpt>
      <trkpt lat="47.419766" lon="7.811395">
        <ele>472.569700</ele>
        <time>2021-11-18T23:37:11.993Z</time>
      </trkpt>
      <trkpt lat="47.419632" lon="7.811270">
        <ele>471.976253</ele>
        <time>2021-11-18T23:37:14.174Z</time>
      </trkpt>
      <trkpt lat="47.419508" lon="7.811160">
        <ele>471.434627</ele>
        <time>2021-11-18T23:37:15.999Z</time>
      </trkpt>
      <trkpt lat="47.419414" lon="7.811078">
        <ele>471.025837</ele>
        <time>2021-11-18T23:37:17.635Z</time>
      </trkpt>
      <trkpt lat="47.419155" lon="7.810934">
        <ele>469.989488</ele>
        <time>2021-11-18T23:37:21.214Z</time>
      </trkpt>
      <trkpt lat="47.419134" lon="7.810926">
        <ele>469.908270</ele>
        <time>2021-11-18T23:37:21.726Z</time>
      </trkpt>
      <trkpt lat="47.419069" lon="7.810903">
        <ele>469.657958</ele>
        <time>2021-11-18T23:37:23.025Z</time>
      </trkpt>
      <trkpt lat="47.419015" lon="7.810884">
        <ele>469.450070</ele>
        <time>2021-11-18T23:37:23.870Z</time>
      </trkpt>
      <trkpt lat="47.418762" lon="7.810815">
        <ele>468.486560</ele>
        <time>2021-11-18T23:37:27.767Z</time>
      </trkpt>
      <trkpt lat="47.418377" lon="7.810720">
        <ele>467.693830</ele>
        <time>2021-11-18T23:37:34.801Z</time>
      </trkpt>
      <trkpt lat="47.417828" lon="7.810432">
        <ele>468.202266</ele>
        <time>2021-11-18T23:37:50.086Z</time>
      </trkpt>
      <trkpt lat="47.417743" lon="7.810418">
        <ele>468.276910</ele>
        <time>2021-11-18T23:37:52.293Z</time>
      </trkpt>
      <trkpt lat="47.417675" lon="7.810419">
        <ele>468.336261</ele>
        <time>2021-11-18T23:37:54.698Z</time>
      </trkpt>
      <trkpt lat="47.417067" lon="7.810695">
        <ele>468.891368</ele>
        <time>2021-11-18T23:38:10.006Z</time>
      </trkpt>
      <trkpt lat="47.416690" lon="7.810617">
        <ele>469.238141</ele>
        <time>2021-11-18T23:38:19.627Z</time>
      </trkpt>
      <trkpt lat="47.416598" lon="7.810554">
        <ele>469.341513</ele>
        <time>2021-11-18T23:38:22.999Z</time>
      </trkpt>
      <trkpt lat="47.416432" lon="7.810407">
        <ele>469.538803</ele>
        <time>2021-11-18T23:38:27.491Z</time>
      </trkpt>
      <trkpt lat="47.416349" lon="7.810346">
        <ele>469.633306</ele>
        <time>2021-11-18T23:38:29.630Z</time>
      </trkpt>
      <trkpt lat="47.416026" lon="7.810233">
        <ele>469.971699</ele>
        <time>2021-11-18T23:38:38.006Z</time>
      </trkpt>
      <trkpt lat="47.415983" lon="7.810241">
        <ele>470.015883</ele>
        <time>2021-11-18T23:38:39.033Z</time>
      </trkpt>
      <trkpt lat="47.415923" lon="7.810254">
        <ele>470.077706</ele>
        <time>2021-11-18T23:38:40.970Z</time>
      </trkpt>
      <trkpt lat="47.415633" lon="7.810382">
        <ele>470.386260</ele>
        <time>2021-11-18T23:38:47.781Z</time>
      </trkpt>
      <trkpt lat="47.415390" lon="7.810500">
        <ele>470.647025</ele>
        <time>2021-11-18T23:38:53.807Z</time>
      </trkpt>
      <trkpt lat="47.414706" lon="7.810912">
        <ele>471.372216</ele>
        <time>2021-11-18T23:39:10.382Z</time>
      </trkpt>
      <trkpt lat="47.414237" lon="7.811081">
        <ele>471.832447</ele>
        <time>2021-11-18T23:39:21.690Z</time>
      </trkpt>
      <trkpt lat="47.413959" lon="7.811165">
        <ele>472.102968</ele>
        <time>2021-11-18T23:39:28.874Z</time>
      </trkpt>
      <trkpt lat="47.413799" lon="7.811208">
        <ele>472.258009</ele>
        <time>2021-11-18T23:39:32.765Z</time>
      </trkpt>
      <trkpt lat="47.413716" lon="7.811229">
        <ele>472.338290</ele>
        <time>2021-11-18T23:39:34.605Z</time>
      </trkpt>
      <trkpt lat="47.413652" lon="7.811232">
        <ele>472.399337</ele>
        <time>2021-11-18T23:39:36.518Z</time>
      </trkpt>
      <trkpt lat="47.413454" lon="7.811217">
        <ele>472.588352</ele>
        <time>2021-11-18T23:39:41.296Z</time>
      </trkpt>
      <trkpt lat="47.413351" lon="7.811196">
        <ele>472.689317</ele>
        <time>2021-11-18T23:39:43.828Z</time>
      </trkpt>
      <trkpt lat="47.413295" lon="7.811180">
        <ele>472.797262</ele>
        <time>2021-11-18T23:39:45.569Z</time>
      </trkpt>
      <trkpt lat="47.413209" lon="7.811148">
        <ele>472.965101</ele>
        <time>2021-11-18T23:39:47.771Z</time>
      </trkpt>
      <trkpt lat="47.412829" lon="7.810950">
        <ele>473.727663</ele>
        <time>2021-11-18T23:39:58.242Z</time>
      </trkpt>
      <trkpt lat="47.412719" lon="7.810865">
        <ele>473.962587</ele>
        <time>2021-11-18T23:40:01.617Z</time>
      </trkpt>
      <trkpt lat="47.411512" lon="7.810306">
        <ele>476.379657</ele>
        <time>2021-11-18T23:40:38.315Z</time>
      </trkpt>
      <trkpt lat="47.411038" lon="7.810167">
        <ele>477.373774</ele>
        <time>2021-11-18T23:40:52.504Z</time>
      </trkpt>
      <trkpt lat="47.410795" lon="7.810008">
        <ele>477.920483</ele>
        <time>2021-11-18T23:40:59.766Z</time>
      </trkpt>
      <trkpt lat="47.410574" lon="7.809784">
        <ele>478.471793</ele>
        <time>2021-11-18T23:41:07.132Z</time>
      </trkpt>
      <trkpt lat="47.410407" lon="7.809617">
        <ele>478.886616</ele>
        <time>2021-11-18T23:41:12.692Z</time>
      </trkpt>
      <trkpt lat="47.410267" lon="7.809486">
        <ele>479.227508</ele>
        <time>2021-11-18T23:41:17.219Z</time>
      </trkpt>
      <trkpt lat="47.410057" lon="7.809308">
        <ele>479.725543</ele>
        <time>2021-11-18T23:41:24.426Z</time>
      </trkpt>
      <trkpt lat="47.409973" lon="7.809245">
        <ele>479.936268</ele>
        <time>2021-11-18T23:41:26.935Z</time>
      </trkpt>
      <trkpt lat="47.409739" lon="7.809061">
        <ele>480.552832</ele>
        <time>2021-11-18T23:41:34.777Z</time>
      </trkpt>
      <trkpt lat="47.409009" lon="7.808554">
        <ele>482.429060</ele>
        <time>2021-11-18T23:41:58.043Z</time>
      </trkpt>
      <trkpt lat="47.408924" lon="7.808529">
        <ele>482.630654</ele>
        <time>2021-11-18T23:42:00.855Z</time>
      </trkpt>
      <trkpt lat="47.408899" lon="7.808522">
        <ele>482.689840</ele>
        <time>2021-11-18T23:42:01.594Z</time>
      </trkpt>
      <trkpt lat="47.408773" lon="7.808493">
        <ele>482.986456</ele>
        <time>2021-11-18T23:42:05.605Z</time>
      </trkpt>
      <trkpt lat="47.408203" lon="7.808546">
        <ele>484.368119</ele>
        <time>2021-11-18T23:42:22.819Z</time>
      </trkpt>
      <trkpt lat="47.407661" lon="7.808646">
        <ele>485.836553</ele>
        <time>2021-11-18T23:42:39.694Z</time>
      </trkpt>
      <trkpt lat="47.407303" lon="7.808718">
        <ele>486.807878</ele>
        <time>2021-11-18T23:42:51.673Z</time>
      </trkpt>
      <trkpt lat="47.406932" lon="7.808849">
        <ele>487.833362</ele>
        <time>2021-11-18T23:43:02.830Z</time>
      </trkpt>
      <trkpt lat="47.406259" lon="7.809218">
        <ele>489.690503</ele>
        <time>2021-11-18T23:43:25.126Z</time>
      </trkpt>
      <trkpt lat="47.406093" lon="7.809301">
        <ele>490.125739</ele>
        <time>2021-11-18T23:43:31.247Z</time>
      </trkpt>
      <trkpt lat="47.405944" lon="7.809350">
        <ele>490.504843</ele>
        <time>2021-11-18T23:43:35.299Z</time>
      </trkpt>
      <trkpt lat="47.405843" lon="7.809380">
        <ele>490.760701</ele>
        <time>2021-11-18T23:43:38.502Z</time>
      </trkpt>
      <trkpt lat="47.405740" lon="7.809402">
        <ele>491.019166</ele>
        <time>2021-11-18T23:43:41.922Z</time>
      </trkpt>
      <trkpt lat="47.405651" lon="7.809411">
        <ele>491.240720</ele>
        <time>2021-11-18T23:43:43.746Z</time>
      </trkpt>
      <trkpt lat="47.405362" lon="7.809433">
        <ele>491.959419</ele>
        <time>2021-11-18T23:43:52.800Z</time>
      </trkpt>
      <trkpt lat="47.405269" lon="7.809435">
        <ele>492.190414</ele>
        <time>2021-11-18T23:43:55.094Z</time>
      </trkpt>
      <trkpt lat="47.404882" lon="7.809460">
        <ele>493.152468</ele>
        <time>2021-11-18T23:44:06.727Z</time>
      </trkpt>
      <trkpt lat="47.404543" lon="7.809480">
        <ele>494.235311</ele>
        <time>2021-11-18T23:44:17.263Z</time>
      </trkpt>
      <trkpt lat="47.404082" lon="7.809543">
        <ele>495.769279</ele>
        <time>2021-11-18T23:44:31.440Z</time>
      </trkpt>
      <trkpt lat="47.403833" lon="7.809618">
        <ele>496.611269</ele>
        <time>2021-11-18T23:44:40.327Z</time>
      </trkpt>
      <trkpt lat="47.403732" lon="7.809654">
        <ele>496.955517</ele>
        <time>2021-11-18T23:44:43.701Z</time>
      </trkpt>
      <trkpt lat="47.403507" lon="7.809728">
        <ele>497.719264</ele>
        <time>2021-11-18T23:44:51.730Z</time>
      </trkpt>
      <trkpt lat="47.403310" lon="7.809800">
        <ele>498.391666</ele>
        <time>2021-11-18T23:44:58.830Z</time>
      </trkpt>
      <trkpt lat="47.403266" lon="7.809816">
        <ele>498.541803</ele>
        <time>2021-11-18T23:45:00.512Z</time>
      </trkpt>
      <trkpt lat="47.403065" lon="7.809891">
        <ele>499.228695</ele>
        <time>2021-11-18T23:45:07.942Z</time>
      </trkpt>
      <trkpt lat="47.402761" lon="7.810009">
        <ele>500.759619</ele>
        <time>2021-11-18T23:45:19.588Z</time>
      </trkpt>
      <trkpt lat="47.402137" lon="7.810207">
        <ele>503.874757</ele>
        <time>2021-11-18T23:45:44.798Z</time>
      </trkpt>
      <trkpt lat="47.401421" lon="7.810310">
        <ele>507.386015</ele>
        <time>2021-11-18T23:46:14.663Z</time>
      </trkpt>
      <trkpt lat="47.400552" lon="7.810295">
        <ele>511.850466</ele>
        <time>2021-11-18T23:46:51.274Z</time>
      </trkpt>
      <trkpt lat="47.400026" lon="7.810485">
        <ele>514.656308</ele>
        <time>2021-11-18T23:47:13.100Z</time>
      </trkpt>
      <trkpt lat="47.399771" lon="7.810732">
        <ele>516.236311</ele>
        <time>2021-11-18T23:47:25.855Z</time>
      </trkpt>
      <trkpt lat="47.399530" lon="7.811091">
        <ele>517.900469</ele>
        <time>2021-11-18T23:47:39.840Z</time>
      </trkpt>
      <trkpt lat="47.399034" lon="7.812265">
        <ele>521.969166</ele>
        <time>2021-11-18T23:48:14.915Z</time>
      </trkpt>
      <trkpt lat="47.399003" lon="7.812335">
        <ele>522.215099</ele>
        <time>2021-11-18T23:48:17.373Z</time>
      </trkpt>
      <trkpt lat="47.398873" lon="7.812642">
        <ele>523.279747</ele>
        <time>2021-11-18T23:48:26.023Z</time>
      </trkpt>
      <trkpt lat="47.398378" lon="7.813502">
        <ele>526.825127</ele>
        <time>2021-11-18T23:48:53.390Z</time>
      </trkpt>
      <trkpt lat="47.397971" lon="7.814039">
        <ele>529.564924</ele>
        <time>2021-11-18T23:49:14.372Z</time>
      </trkpt>
      <trkpt lat="47.397420" lon="7.814610">
        <ele>532.944159</ele>
        <time>2021-11-18T23:49:43.450Z</time>
      </trkpt>
      <trkpt lat="47.396819" lon="7.815041">
        <ele>536.049669</ele>
        <time>2021-11-18T23:50:12.178Z</time>
      </trkpt>
      <trkpt lat="47.396655" lon="7.815127">
        <ele>536.820952</ele>
        <time>2021-11-18T23:50:19.878Z</time>
      </trkpt>
      <trkpt lat="47.396481" lon="7.815220">
        <ele>537.641043</ele>
        <time>2021-11-18T23:50:27.440Z</time>
      </trkpt>
      <trkpt lat="47.395894" lon="7.815362">
        <ele>540.277279</ele>
        <time>2021-11-18T23:50:51.037Z</time>
      </trkpt>
      <trkpt lat="47.395284" lon="7.815226">
        <ele>542.061694</ele>
        <time>2021-11-18T23:51:10.632Z</time>
      </trkpt>
      <trkpt lat="47.394617" lon="7.815011">
        <ele>541.755582</ele>
        <time>2021-11-18T23:51:24.278Z</time>
      </trkpt>
      <trkpt lat="47.394138" lon="7.814860">
        <ele>541.535967</ele>
        <time>2021-11-18T23:51:31.965Z</time>
      </trkpt>
      <trkpt lat="47.392812" lon="7.814454">
        <ele>540.798639</ele>
        <time>2021-11-18T23:51:53.310Z</time>
      </trkpt>
      <trkpt lat="47.392674" lon="7.814421">
        <ele>540.716239</ele>
        <time>2021-11-18T23:51:55.741Z</time>
      </trkpt>
      <trkpt lat="47.392571" lon="7.814403">
        <ele>540.655104</ele>
        <time>2021-11-18T23:51:58.462Z</time>
      </trkpt>
      <trkpt lat="47.392247" lon="7.814378">
        <ele>540.463869</ele>
        <time>2021-11-18T23:52:05.985Z</time>
      </trkpt>
      <trkpt lat="47.392009" lon="7.814397">
        <ele>540.323380</ele>
        <time>2021-11-18T23:52:11.654Z</time>
      </trkpt>
      <trkpt lat="47.391965" lon="7.814402">
        <ele>540.297369</ele>
        <time>2021-11-18T23:52:12.514Z</time>
      </trkpt>
      <trkpt lat="47.391873" lon="7.814418">
        <ele>540.564977</ele>
        <time>2021-11-18T23:52:14.789Z</time>
      </trkpt>
      <trkpt lat="47.391815" lon="7.814430">
        <ele>540.811909</ele>
        <time>2021-11-18T23:52:16.533Z</time>
      </trkpt>
      <trkpt lat="47.391510" lon="7.814535">
        <ele>542.132342</ele>
        <time>2021-11-18T23:52:24.824Z</time>
      </trkpt>
      <trkpt lat="47.391330" lon="7.814611">
        <ele>542.921670</ele>
        <time>2021-11-18T23:52:30.665Z</time>
      </trkpt>
      <trkpt lat="47.391072" lon="7.814743">
        <ele>544.072878</ele>
        <time>2021-11-18T23:52:40.361Z</time>
      </trkpt>
      <trkpt lat="47.390680" lon="7.814949">
        <ele>545.827146</ele>
        <time>2021-11-18T23:52:57.104Z</time>
      </trkpt>
      <trkpt lat="47.390484" lon="7.815052">
        <ele>546.704281</ele>
        <time>2021-11-18T23:53:05.777Z</time>
      </trkpt>
      <trkpt lat="47.389865" lon="7.815413">
        <ele>550.783882</ele>
        <time>2021-11-18T23:53:39.665Z</time>
      </trkpt>
      <trkpt lat="47.389319" lon="7.815732">
        <ele>555.177084</ele>
        <time>2021-11-18T23:54:12.211Z</time>
      </trkpt>
      <trkpt lat="47.388771" lon="7.816079">
        <ele>559.638167</ele>
        <time>2021-11-18T23:54:42.108Z</time>
      </trkpt>
      <trkpt lat="47.388346" lon="7.816395">
        <ele>562.293813</ele>
        <time>2021-11-18T23:55:04.839Z</time>
      </trkpt>
      <trkpt lat="47.388090" lon="7.816620">
        <ele>563.447393</ele>
        <time>2021-11-18T23:55:16.463Z</time>
      </trkpt>
      <trkpt lat="47.387912" lon="7.816788">
        <ele>564.265398</ele>
        <time>2021-11-18T23:55:23.567Z</time>
      </trkpt>
      <trkpt lat="47.387708" lon="7.817012">
        <ele>565.249758</ele>
        <time>2021-11-18T23:55:31.872Z</time>
      </trkpt>
      <trkpt lat="47.387576" lon="7.817190">
        <ele>565.941911</ele>
        <time>2021-11-18T23:55:37.214Z</time>
      </trkpt>
      <trkpt lat="47.387476" lon="7.817327">
        <ele>566.470090</ele>
        <time>2021-11-18T23:55:41.649Z</time>
      </trkpt>
      <trkpt lat="47.387291" lon="7.817580">
        <ele>567.446421</ele>
        <time>2021-11-18T23:55:48.734Z</time>
      </trkpt>
      <trkpt lat="47.387125" lon="7.817809">
        <ele>568.340370</ele>
        <time>2021-11-18T23:55:55.895Z</time>
      </trkpt>
      <trkpt lat="47.386756" lon="7.818366">
        <ele>571.169187</ele>
        <time>2021-11-18T23:56:11.109Z</time>
      </trkpt>
      <trkpt lat="47.387295" lon="7.819228">
        <ele>575.428566</ele>
        <time>2021-11-18T23:56:42.260Z</time>
      </trkpt>
      <trkpt lat="47.387344" lon="7.819291">
        <ele>575.776873</ele>
        <time>2021-11-18T23:56:46.458Z</time>
      </trkpt>
      <trkpt lat="47.387455" lon="7.819356">
        <ele>576.417070</ele>
        <time>2021-11-18T23:56:51.731Z</time>
      </trkpt>
      <trkpt lat="47.387515" lon="7.819333">
        <ele>576.749420</ele>
        <time>2021-11-18T23:56:55.755Z</time>
      </trkpt>
      <trkpt lat="47.387616" lon="7.819226">
        <ele>577.415826</ele>
        <time>2021-11-18T23:57:01.736Z</time>
      </trkpt>
      <trkpt lat="47.387844" lon="7.818926">
        <ele>580.606155</ele>
        <time>2021-11-18T23:57:19.883Z</time>
      </trkpt>
      <trkpt lat="47.388042" lon="7.818733">
        <ele>583.640744</ele>
        <time>2021-11-18T23:57:35.961Z</time>
      </trkpt>
      <trkpt lat="47.388385" lon="7.818625">
        <ele>588.126912</ele>
        <time>2021-11-18T23:58:00.208Z</time>
      </trkpt>
      <trkpt lat="47.389637" lon="7.818812">
        <ele>604.937343</ele>
        <time>2021-11-18T23:59:37.707Z</time>
      </trkpt>
      <trkpt lat="47.390457" lon="7.819279">
        <ele>618.621676</ele>
        <time>2021-11-19T00:00:57.700Z</time>
      </trkpt>
      <trkpt lat="47.390992" lon="7.819409">
        <ele>627.064085</ele>
        <time>2021-11-19T00:01:39.636Z</time>
      </trkpt>
      <trkpt lat="47.391427" lon="7.819670">
        <ele>633.335704</ele>
        <time>2021-11-19T00:02:12.648Z</time>
      </trkpt>
      <trkpt lat="47.391460" lon="7.819671">
        <ele>633.751262</ele>
        <time>2021-11-19T00:02:16.465Z</time>
      </trkpt>
      <trkpt lat="47.391498" lon="7.819654">
        <ele>634.251144</ele>
        <time>2021-11-19T00:02:19.048Z</time>
      </trkpt>
      <trkpt lat="47.391809" lon="7.819450">
        <ele>638.535346</ele>
        <time>2021-11-19T00:02:44.600Z</time>
      </trkpt>
      <trkpt lat="47.392298" lon="7.818874">
        <ele>646.409645</ele>
        <time>2021-11-19T00:03:24.355Z</time>
      </trkpt>
      <trkpt lat="47.392423" lon="7.818649">
        <ele>648.890430</ele>
        <time>2021-11-19T00:03:41.122Z</time>
      </trkpt>
      <trkpt lat="47.392460" lon="7.818257">
        <ele>652.138660</ele>
        <time>2021-11-19T00:04:00.685Z</time>
      </trkpt>
      <trkpt lat="47.392590" lon="7.818159">
        <ele>653.634081</ele>
        <time>2021-11-19T00:04:06.922Z</time>
      </trkpt>
      <trkpt lat="47.392629" lon="7.818162">
        <ele>654.034221</ele>
        <time>2021-11-19T00:04:07.948Z</time>
      </trkpt>
      <trkpt lat="47.392659" lon="7.818175">
        <ele>654.354558</ele>
        <time>2021-11-19T00:04:09.866Z</time>
      </trkpt>
      <trkpt lat="47.392690" lon="7.818200">
        <ele>654.716440</ele>
        <time>2021-11-19T00:04:11.909Z</time>
      </trkpt>
      <trkpt lat="47.392787" lon="7.818334">
        <ele>656.077207</ele>
        <time>2021-11-19T00:04:21.419Z</time>
      </trkpt>
      <trkpt lat="47.393503" lon="7.819621">
        <ele>667.631882</ele>
        <time>2021-11-19T00:05:29.386Z</time>
      </trkpt>
      <trkpt lat="47.393779" lon="7.820343">
        <ele>672.082794</ele>
        <time>2021-11-19T00:06:04.334Z</time>
      </trkpt>
      <trkpt lat="47.393867" lon="7.820917">
        <ele>674.586323</ele>
        <time>2021-11-19T00:06:25.046Z</time>
      </trkpt>
      <trkpt lat="47.393914" lon="7.821827">
        <ele>678.468549</ele>
        <time>2021-11-19T00:06:52.082Z</time>
      </trkpt>
      <trkpt lat="47.393730" lon="7.822240">
        <ele>680.571708</ele>
        <time>2021-11-19T00:07:03.916Z</time>
      </trkpt>
      <trkpt lat="47.393708" lon="7.822494">
        <ele>681.280534</ele>
        <time>2021-11-19T00:07:08.712Z</time>
      </trkpt>
      <trkpt lat="47.393714" lon="7.822603">
        <ele>681.222194</ele>
        <time>2021-11-19T00:07:13.287Z</time>
      </trkpt>
      <trkpt lat="47.393742" lon="7.822702">
        <ele>681.164956</ele>
        <time>2021-11-19T00:07:14.273Z</time>
      </trkpt>
      <trkpt lat="47.393945" lon="7.823263">
        <ele>680.825605</ele>
        <time>2021-11-19T00:07:23.700Z</time>
      </trkpt>
      <trkpt lat="47.394014" lon="7.823879">
        <ele>680.492519</ele>
        <time>2021-11-19T00:07:31.057Z</time>
      </trkpt>
      <trkpt lat="47.395259" lon="7.823953">
        <ele>678.177507</ele>
        <time>2021-11-19T00:07:49.375Z</time>
      </trkpt>
      <trkpt lat="47.395402" lon="7.824071">
        <ele>677.612690</ele>
        <time>2021-11-19T00:07:51.733Z</time>
      </trkpt>
      <trkpt lat="47.396478" lon="7.825710">
        <ele>672.115096</ele>
        <time>2021-11-19T00:08:13.791Z</time>
      </trkpt>
      <trkpt lat="47.396828" lon="7.826473">
        <ele>669.709010</ele>
        <time>2021-11-19T00:08:22.273Z</time>
      </trkpt>
      <trkpt lat="47.397050" lon="7.827229">
        <ele>667.557766</ele>
        <time>2021-11-19T00:08:30.186Z</time>
      </trkpt>
      <trkpt lat="47.397238" lon="7.827401">
        <ele>666.773118</ele>
        <time>2021-11-19T00:08:33.351Z</time>
      </trkpt>
      <trkpt lat="47.397884" lon="7.827503">
        <ele>667.025417</ele>
        <time>2021-11-19T00:08:43.396Z</time>
      </trkpt>
      <trkpt lat="47.398064" lon="7.827549">
        <ele>667.096357</ele>
        <time>2021-11-19T00:08:47.563Z</time>
      </trkpt>
      <trkpt lat="47.398959" lon="7.827999">
        <ele>667.463502</ele>
        <time>2021-11-19T00:09:11.180Z</time>
      </trkpt>
      <trkpt lat="47.399021" lon="7.828050">
        <ele>668.038777</ele>
        <time>2021-11-19T00:09:15.594Z</time>
      </trkpt>
      <trkpt lat="47.399021" lon="7.828050">
        <ele>668.038777</ele>
        <time>2021-11-19T00:09:15.677Z</time>
      </trkpt>
      <trkpt lat="47.399059" lon="7.828318">
        <ele>669.645614</ele>
        <time>2021-11-19T00:09:20.567Z</time>
      </trkpt>
      <trkpt lat="47.399066" lon="7.828878">
        <ele>672.932417</ele>
        <time>2021-11-19T00:09:42.558Z</time>
      </trkpt>
      <trkpt lat="47.399041" lon="7.828986">
        <ele>673.602228</ele>
        <time>2021-11-19T00:09:45.927Z</time>
      </trkpt>
      <trkpt lat="47.399027" lon="7.829110">
        <ele>674.339949</ele>
        <time>2021-11-19T00:09:59.781Z</time>
      </trkpt>
      <trkpt lat="47.398921" lon="7.829472">
        <ele>676.654525</ele>
        <time>2021-11-19T00:10:39.386Z</time>
      </trkpt>
      <trkpt lat="47.398906" lon="7.829522">
        <ele>676.975467</ele>
        <time>2021-11-19T00:10:46.831Z</time>
      </trkpt>
      <trkpt lat="47.398845" lon="7.829974">
        <ele>679.680149</ele>
        <time>2021-11-19T00:11:33.879Z</time>
      </trkpt>
      <trkpt lat="47.398884" lon="7.830391">
        <ele>682.150483</ele>
        <time>2021-11-19T00:12:20.561Z</time>
      </trkpt>
      <trkpt lat="47.398920" lon="7.830784">
        <ele>684.603026</ele>
        <time>2021-11-19T00:12:58.628Z</time>
      </trkpt>
      <trkpt lat="47.398914" lon="7.830838">
        <ele>684.952506</ele>
        <time>2021-11-19T00:13:06.190Z</time>
      </trkpt>
      <trkpt lat="47.398935" lon="7.830846">
        <ele>685.157120</ele>
        <time>2021-11-19T00:13:08.677Z</time>
      </trkpt>
      <trkpt lat="47.400076" lon="7.833981">
        <ele>704.906666</ele>
        <time>2021-11-19T00:15:22.595Z</time>
      </trkpt>
      <trkpt lat="47.400118" lon="7.834167">
        <ele>705.683764</ele>
        <time>2021-11-19T00:15:27.406Z</time>
      </trkpt>
      <trkpt lat="47.400079" lon="7.834478">
        <ele>706.937302</ele>
        <time>2021-11-19T00:15:35.178Z</time>
      </trkpt>
      <trkpt lat="47.400046" lon="7.834530">
        <ele>707.219803</ele>
        <time>2021-11-19T00:15:36.645Z</time>
      </trkpt>
      <trkpt lat="47.399986" lon="7.834561">
        <ele>707.591978</ele>
        <time>2021-11-19T00:15:39.147Z</time>
      </trkpt>
      <trkpt lat="47.398598" lon="7.834858">
        <ele>712.355765</ele>
        <time>2021-11-19T00:16:23.190Z</time>
      </trkpt>
      <trkpt lat="47.398507" lon="7.834895">
        <ele>712.545008</ele>
        <time>2021-11-19T00:16:26.246Z</time>
      </trkpt>
      <trkpt lat="47.398404" lon="7.835002">
        <ele>712.797475</ele>
        <time>2021-11-19T00:16:29.437Z</time>
      </trkpt>
      <trkpt lat="47.398385" lon="7.835032">
        <ele>712.853235</ele>
        <time>2021-11-19T00:16:30.103Z</time>
      </trkpt>
      <trkpt lat="47.398216" lon="7.835378">
        <ele>713.432321</ele>
        <time>2021-11-19T00:16:37.786Z</time>
      </trkpt>
      <trkpt lat="47.397143" lon="7.838280">
        <ele>714.369694</ele>
        <time>2021-11-19T00:17:26.960Z</time>
      </trkpt>
      <trkpt lat="47.396349" lon="7.839501">
        <ele>711.521340</ele>
        <time>2021-11-19T00:17:44.692Z</time>
      </trkpt>
      <trkpt lat="47.396241" lon="7.839701">
        <ele>711.090935</ele>
        <time>2021-11-19T00:17:47.321Z</time>
      </trkpt>
      <trkpt lat="47.396203" lon="7.839767">
        <ele>710.945171</ele>
        <time>2021-11-19T00:17:48.136Z</time>
      </trkpt>
      <trkpt lat="47.396133" lon="7.839911">
        <ele>710.646924</ele>
        <time>2021-11-19T00:17:49.884Z</time>
      </trkpt>
      <trkpt lat="47.396102" lon="7.839984">
        <ele>710.501949</ele>
        <time>2021-11-19T00:17:50.682Z</time>
      </trkpt>
      <trkpt lat="47.396029" lon="7.840179">
        <ele>710.127072</ele>
        <time>2021-11-19T00:17:52.869Z</time>
      </trkpt>
      <trkpt lat="47.395488" lon="7.841652">
        <ele>702.055842</ele>
        <time>2021-11-19T00:18:08.050Z</time>
      </trkpt>
      <trkpt lat="47.395400" lon="7.841921">
        <ele>700.601826</ele>
        <time>2021-11-19T00:18:10.494Z</time>
      </trkpt>
      <trkpt lat="47.395316" lon="7.842556">
        <ele>697.452974</ele>
        <time>2021-11-19T00:18:15.842Z</time>
      </trkpt>
      <trkpt lat="47.395366" lon="7.843284">
        <ele>690.595835</ele>
        <time>2021-11-19T00:18:21.789Z</time>
      </trkpt>
      <trkpt lat="47.395492" lon="7.843901">
        <ele>684.287757</ele>
        <time>2021-11-19T00:18:26.939Z</time>
      </trkpt>
      <trkpt lat="47.395528" lon="7.844012">
        <ele>683.083020</ele>
        <time>2021-11-19T00:18:27.887Z</time>
      </trkpt>
      <trkpt lat="47.395580" lon="7.844173">
        <ele>681.336957</ele>
        <time>2021-11-19T00:18:29.311Z</time>
      </trkpt>
      <trkpt lat="47.395621" lon="7.844300">
        <ele>679.959745</ele>
        <time>2021-11-19T00:18:30.482Z</time>
      </trkpt>
      <trkpt lat="47.395650" lon="7.844362">
        <ele>679.222107</ele>
        <time>2021-11-19T00:18:31.085Z</time>
      </trkpt>
      <trkpt lat="47.395691" lon="7.844570">
        <ele>677.101635</ele>
        <time>2021-11-19T00:18:32.755Z</time>
      </trkpt>
      <trkpt lat="47.395717" lon="7.844793">
        <ele>674.886763</ele>
        <time>2021-11-19T00:18:34.605Z</time>
      </trkpt>
      <trkpt lat="47.395721" lon="7.844953">
        <ele>673.319610</ele>
        <time>2021-11-19T00:18:35.840Z</time>
      </trkpt>
      <trkpt lat="47.395719" lon="7.845127">
        <ele>671.616245</ele>
        <time>2021-11-19T00:18:37.188Z</time>
      </trkpt>
      <trkpt lat="47.395654" lon="7.845767">
        <ele>664.544474</ele>
        <time>2021-11-19T00:18:42.267Z</time>
      </trkpt>
      <trkpt lat="47.395642" lon="7.845887">
        <ele>663.207823</ele>
        <time>2021-11-19T00:18:43.246Z</time>
      </trkpt>
      <trkpt lat="47.395451" lon="7.846896">
        <ele>651.662931</ele>
        <time>2021-11-19T00:18:51.442Z</time>
      </trkpt>
      <trkpt lat="47.395408" lon="7.847208">
        <ele>648.154406</ele>
        <time>2021-11-19T00:18:53.917Z</time>
      </trkpt>
      <trkpt lat="47.395320" lon="7.847661">
        <ele>642.961224</ele>
        <time>2021-11-19T00:18:57.672Z</time>
      </trkpt>
      <trkpt lat="47.395189" lon="7.848023">
        <ele>639.328454</ele>
        <time>2021-11-19T00:19:00.952Z</time>
      </trkpt>
      <trkpt lat="47.395004" lon="7.848355">
        <ele>635.821072</ele>
        <time>2021-11-19T00:19:04.369Z</time>
      </trkpt>
      <trkpt lat="47.394829" lon="7.848557">
        <ele>633.145117</ele>
        <time>2021-11-19T00:19:07.004Z</time>
      </trkpt>
      <trkpt lat="47.394706" lon="7.848628">
        <ele>631.553958</ele>
        <time>2021-11-19T00:19:08.561Z</time>
      </trkpt>
      <trkpt lat="47.394558" lon="7.848667">
        <ele>629.742551</ele>
        <time>2021-11-19T00:19:10.328Z</time>
      </trkpt>
      <trkpt lat="47.394272" lon="7.848809">
        <ele>626.107089</ele>
        <time>2021-11-19T00:19:13.970Z</time>
      </trkpt>
      <trkpt lat="47.393822" lon="7.849356">
        <ele>619.405739</ele>
        <time>2021-11-19T00:19:21.206Z</time>
      </trkpt>
      <trkpt lat="47.393741" lon="7.849387">
        <ele>618.689085</ele>
        <time>2021-11-19T00:19:22.179Z</time>
      </trkpt>
      <trkpt lat="47.393682" lon="7.849411">
        <ele>618.164952</ele>
        <time>2021-11-19T00:19:22.943Z</time>
      </trkpt>
      <trkpt lat="47.392869" lon="7.849215">
        <ele>611.109641</ele>
        <time>2021-11-19T00:19:33.364Z</time>
      </trkpt>
      <trkpt lat="47.392479" lon="7.849322">
        <ele>607.712241</ele>
        <time>2021-11-19T00:19:38.415Z</time>
      </trkpt>
      <trkpt lat="47.392167" lon="7.849685">
        <ele>604.181427</ele>
        <time>2021-11-19T00:19:43.264Z</time>
      </trkpt>
      <trkpt lat="47.391799" lon="7.850323">
        <ele>598.006598</ele>
        <time>2021-11-19T00:19:50.262Z</time>
      </trkpt>
      <trkpt lat="47.391560" lon="7.850863">
        <ele>593.253656</ele>
        <time>2021-11-19T00:19:55.518Z</time>
      </trkpt>
      <trkpt lat="47.391509" lon="7.850967">
        <ele>592.307591</ele>
        <time>2021-11-19T00:19:56.532Z</time>
      </trkpt>
      <trkpt lat="47.391307" lon="7.851550">
        <ele>587.482742</ele>
        <time>2021-11-19T00:20:01.879Z</time>
      </trkpt>
      <trkpt lat="47.391391" lon="7.852032">
        <ele>583.790706</ele>
        <time>2021-11-19T00:20:05.916Z</time>
      </trkpt>
      <trkpt lat="47.391460" lon="7.852289">
        <ele>581.717038</ele>
        <time>2021-11-19T00:20:08.120Z</time>
      </trkpt>
      <trkpt lat="47.391595" lon="7.852537">
        <ele>579.330183</ele>
        <time>2021-11-19T00:20:10.697Z</time>
      </trkpt>
      <trkpt lat="47.391640" lon="7.852608">
        <ele>578.600695</ele>
        <time>2021-11-19T00:20:11.461Z</time>
      </trkpt>
      <trkpt lat="47.391640" lon="7.852608">
        <ele>578.600695</ele>
        <time>2021-11-19T00:20:11.485Z</time>
      </trkpt>
      <trkpt lat="47.391783" lon="7.852784">
        <ele>576.538497</ele>
        <time>2021-11-19T00:20:13.690Z</time>
      </trkpt>
      <trkpt lat="47.392434" lon="7.853433">
        <ele>567.837033</ele>
        <time>2021-11-19T00:20:23.259Z</time>
      </trkpt>
      <trkpt lat="47.392531" lon="7.853545">
        <ele>566.472998</ele>
        <time>2021-11-19T00:20:24.725Z</time>
      </trkpt>
      <trkpt lat="47.392606" lon="7.853710">
        <ele>565.109433</ele>
        <time>2021-11-19T00:20:26.379Z</time>
      </trkpt>
      <trkpt lat="47.392826" lon="7.854008">
        <ele>563.178386</ele>
        <time>2021-11-19T00:20:30.085Z</time>
      </trkpt>
      <trkpt lat="47.393127" lon="7.854024">
        <ele>561.229856</ele>
        <time>2021-11-19T00:20:34.032Z</time>
      </trkpt>
      <trkpt lat="47.393189" lon="7.854045">
        <ele>560.818349</ele>
        <time>2021-11-19T00:20:34.811Z</time>
      </trkpt>
      <trkpt lat="47.393275" lon="7.853890">
        <ele>559.940659</ele>
        <time>2021-11-19T00:20:36.673Z</time>
      </trkpt>
      <trkpt lat="47.393398" lon="7.853765">
        <ele>558.974808</ele>
        <time>2021-11-19T00:20:38.608Z</time>
      </trkpt>
      <trkpt lat="47.393675" lon="7.853681">
        <ele>557.145432</ele>
        <time>2021-11-19T00:20:42.316Z</time>
      </trkpt>
      <trkpt lat="47.393781" lon="7.853664">
        <ele>556.455653</ele>
        <time>2021-11-19T00:20:43.643Z</time>
      </trkpt>
      <trkpt lat="47.393826" lon="7.853658">
        <ele>556.163350</ele>
        <time>2021-11-19T00:20:44.204Z</time>
      </trkpt>
      <trkpt lat="47.394105" lon="7.853679">
        <ele>554.356065</ele>
        <time>2021-11-19T00:20:48.120Z</time>
      </trkpt>
      <trkpt lat="47.394696" lon="7.853664">
        <ele>552.287919</ele>
        <time>2021-11-19T00:20:56.660Z</time>
      </trkpt>
      <trkpt lat="47.395089" lon="7.853542">
        <ele>551.152148</ele>
        <time>2021-11-19T00:21:02.696Z</time>
      </trkpt>
      <trkpt lat="47.395123" lon="7.853546">
        <ele>551.055683</ele>
        <time>2021-11-19T00:21:03.127Z</time>
      </trkpt>
      <trkpt lat="47.395202" lon="7.853591">
        <ele>550.816218</ele>
        <time>2021-11-19T00:21:04.326Z</time>
      </trkpt>
      <trkpt lat="47.395275" lon="7.853638">
        <ele>550.591000</ele>
        <time>2021-11-19T00:21:05.714Z</time>
      </trkpt>
      <trkpt lat="47.395464" lon="7.853851">
        <ele>549.918673</ele>
        <time>2021-11-19T00:21:09.271Z</time>
      </trkpt>
      <trkpt lat="47.395509" lon="7.853930">
        <ele>549.721002</ele>
        <time>2021-11-19T00:21:10.428Z</time>
      </trkpt>
      <trkpt lat="47.395568" lon="7.854054">
        <ele>549.430825</ele>
        <time>2021-11-19T00:21:12.391Z</time>
      </trkpt>
      <trkpt lat="47.395599" lon="7.854137">
        <ele>549.249337</ele>
        <time>2021-11-19T00:21:13.740Z</time>
      </trkpt>
      <trkpt lat="47.395681" lon="7.854098">
        <ele>549.005699</ele>
        <time>2021-11-19T00:21:14.931Z</time>
      </trkpt>
      <trkpt lat="47.396618" lon="7.853483">
        <ele>547.596417</ele>
        <time>2021-11-19T00:21:31.766Z</time>
      </trkpt>
      <trkpt lat="47.397017" lon="7.853300">
        <ele>547.131092</ele>
        <time>2021-11-19T00:21:39.101Z</time>
      </trkpt>
      <trkpt lat="47.397100" lon="7.853327">
        <ele>547.036433</ele>
        <time>2021-11-19T00:21:40.454Z</time>
      </trkpt>
      <trkpt lat="47.397171" lon="7.853390">
        <ele>546.944186</ele>
        <time>2021-11-19T00:21:42.303Z</time>
      </trkpt>
      <trkpt lat="47.397240" lon="7.853282">
        <ele>546.832221</ele>
        <time>2021-11-19T00:21:43.480Z</time>
      </trkpt>
      <trkpt lat="47.397399" lon="7.853113">
        <ele>546.614056</ele>
        <time>2021-11-19T00:21:46.026Z</time>
      </trkpt>
      <trkpt lat="47.397466" lon="7.853058">
        <ele>546.553696</ele>
        <time>2021-11-19T00:21:47.259Z</time>
      </trkpt>
      <trkpt lat="47.397584" lon="7.852978">
        <ele>546.519458</ele>
        <time>2021-11-19T00:21:48.914Z</time>
      </trkpt>
      <trkpt lat="47.399819" lon="7.851860">
        <ele>543.822776</ele>
        <time>2021-11-19T00:22:22.585Z</time>
      </trkpt>
      <trkpt lat="47.400748" lon="7.852175">
        <ele>540.826214</ele>
        <time>2021-11-19T00:22:31.841Z</time>
      </trkpt>
      <trkpt lat="47.400993" lon="7.852181">
        <ele>539.348930</ele>
        <time>2021-11-19T00:22:34.053Z</time>
      </trkpt>
      <trkpt lat="47.401133" lon="7.852146">
        <ele>538.064644</ele>
        <time>2021-11-19T00:22:35.300Z</time>
      </trkpt>
      <trkpt lat="47.401481" lon="7.852058">
        <ele>534.871250</ele>
        <time>2021-11-19T00:22:38.375Z</time>
      </trkpt>
      <trkpt lat="47.401845" lon="7.851841">
        <ele>531.320985</ele>
        <time>2021-11-19T00:22:41.750Z</time>
      </trkpt>
      <trkpt lat="47.402868" lon="7.850841">
        <ele>521.346836</ele>
        <time>2021-11-19T00:22:52.282Z</time>
      </trkpt>
      <trkpt lat="47.403486" lon="7.850249">
        <ele>516.580944</ele>
        <time>2021-11-19T00:22:58.891Z</time>
      </trkpt>
      <trkpt lat="47.404383" lon="7.849389">
        <ele>511.973824</ele>
        <time>2021-11-19T00:23:09.780Z</time>
      </trkpt>
      <trkpt lat="47.404599" lon="7.849165">
        <ele>511.644924</ele>
        <time>2021-11-19T00:23:13.000Z</time>
      </trkpt>
      <trkpt lat="47.404726" lon="7.848932">
        <ele>511.392569</ele>
        <time>2021-11-19T00:23:15.481Z</time>
      </trkpt>
      <trkpt lat="47.404852" lon="7.848646">
        <ele>511.104711</ele>
        <time>2021-11-19T00:23:19.538Z</time>
      </trkpt>
      <trkpt lat="47.404908" lon="7.848505">
        <ele>510.966807</ele>
        <time>2021-11-19T00:23:20.801Z</time>
      </trkpt>
      <trkpt lat="47.405700" lon="7.846541">
        <ele>509.841214</ele>
        <time>2021-11-19T00:23:41.800Z</time>
      </trkpt>
      <trkpt lat="47.405939" lon="7.846047">
        <ele>509.659220</ele>
        <time>2021-11-19T00:23:47.250Z</time>
      </trkpt>
      <trkpt lat="47.406156" lon="7.845724">
        <ele>509.522819</ele>
        <time>2021-11-19T00:23:51.485Z</time>
      </trkpt>
      <trkpt lat="47.406444" lon="7.845434">
        <ele>508.803696</ele>
        <time>2021-11-19T00:23:56.300Z</time>
      </trkpt>
      <trkpt lat="47.406668" lon="7.845324">
        <ele>508.201879</ele>
        <time>2021-11-19T00:23:59.511Z</time>
      </trkpt>
      <trkpt lat="47.407704" lon="7.845059">
        <ele>505.521251</ele>
        <time>2021-11-19T00:24:10.595Z</time>
      </trkpt>
      <trkpt lat="47.408170" lon="7.844961">
        <ele>503.499043</ele>
        <time>2021-11-19T00:24:14.950Z</time>
      </trkpt>
      <trkpt lat="47.408437" lon="7.844931">
        <ele>501.849089</ele>
        <time>2021-11-19T00:24:17.408Z</time>
      </trkpt>
      <trkpt lat="47.409142" lon="7.844968">
        <ele>497.502271</ele>
        <time>2021-11-19T00:24:23.829Z</time>
      </trkpt>
      <trkpt lat="47.409210" lon="7.844968">
        <ele>497.083267</ele>
        <time>2021-11-19T00:24:24.412Z</time>
      </trkpt>
      <trkpt lat="47.409459" lon="7.844940">
        <ele>495.544539</ele>
        <time>2021-11-19T00:24:26.661Z</time>
      </trkpt>
      <trkpt lat="47.409665" lon="7.844882">
        <ele>494.252368</ele>
        <time>2021-11-19T00:24:28.532Z</time>
      </trkpt>
      <trkpt lat="47.409752" lon="7.844850">
        <ele>493.736513</ele>
        <time>2021-11-19T00:24:29.319Z</time>
      </trkpt>
      <trkpt lat="47.409830" lon="7.844820">
        <ele>493.393036</ele>
        <time>2021-11-19T00:24:30.060Z</time>
      </trkpt>
      <trkpt lat="47.409986" lon="7.844760">
        <ele>492.706083</ele>
        <time>2021-11-19T00:24:31.525Z</time>
      </trkpt>
      <trkpt lat="47.410148" lon="7.844709">
        <ele>492.000217</ele>
        <time>2021-11-19T00:24:33.084Z</time>
      </trkpt>
      <trkpt lat="47.410293" lon="7.844651">
        <ele>491.360052</ele>
        <time>2021-11-19T00:24:34.524Z</time>
      </trkpt>
      <trkpt lat="47.410433" lon="7.844607">
        <ele>490.750089</ele>
        <time>2021-11-19T00:24:35.874Z</time>
      </trkpt>
      <trkpt lat="47.411166" lon="7.844371">
        <ele>487.553081</ele>
        <time>2021-11-19T00:24:43.253Z</time>
      </trkpt>
      <trkpt lat="47.411235" lon="7.844348">
        <ele>487.251645</ele>
        <time>2021-11-19T00:24:44.022Z</time>
      </trkpt>
      <trkpt lat="47.411264" lon="7.844343">
        <ele>487.127222</ele>
        <time>2021-11-19T00:24:44.419Z</time>
      </trkpt>
      <trkpt lat="47.411785" lon="7.844178">
        <ele>485.353031</ele>
        <time>2021-11-19T00:24:50.286Z</time>
      </trkpt>
      <trkpt lat="47.412769" lon="7.843850">
        <ele>482.699872</ele>
        <time>2021-11-19T00:25:00.803Z</time>
      </trkpt>
      <trkpt lat="47.413211" lon="7.843720">
        <ele>481.514514</ele>
        <time>2021-11-19T00:25:05.568Z</time>
      </trkpt>
      <trkpt lat="47.413373" lon="7.843690">
        <ele>481.186152</ele>
        <time>2021-11-19T00:25:07.285Z</time>
      </trkpt>
      <trkpt lat="47.413506" lon="7.843673">
        <ele>480.940132</ele>
        <time>2021-11-19T00:25:08.648Z</time>
      </trkpt>
      <trkpt lat="47.413637" lon="7.843662">
        <ele>480.698322</ele>
        <time>2021-11-19T00:25:09.936Z</time>
      </trkpt>
      <trkpt lat="47.414117" lon="7.843651">
        <ele>479.813625</ele>
        <time>2021-11-19T00:25:15.089Z</time>
      </trkpt>
      <trkpt lat="47.414374" lon="7.843693">
        <ele>479.337113</ele>
        <time>2021-11-19T00:25:17.847Z</time>
      </trkpt>
      <trkpt lat="47.414946" lon="7.843787">
        <ele>478.276477</ele>
        <time>2021-11-19T00:25:24.815Z</time>
      </trkpt>
      <trkpt lat="47.415142" lon="7.843840">
        <ele>478.122267</ele>
        <time>2021-11-19T00:25:27.135Z</time>
      </trkpt>
      <trkpt lat="47.415237" lon="7.843876">
        <ele>478.135241</ele>
        <time>2021-11-19T00:25:29.094Z</time>
      </trkpt>
      <trkpt lat="47.416024" lon="7.844180">
        <ele>478.242844</ele>
        <time>2021-11-19T00:25:42.899Z</time>
      </trkpt>
      <trkpt lat="47.416384" lon="7.844392">
        <ele>478.294107</ele>
        <time>2021-11-19T00:25:50.205Z</time>
      </trkpt>
      <trkpt lat="47.417194" lon="7.844871">
        <ele>477.379432</ele>
        <time>2021-11-19T00:26:02.551Z</time>
      </trkpt>
      <trkpt lat="47.417656" lon="7.845163">
        <ele>476.369102</ele>
        <time>2021-11-19T00:26:08.162Z</time>
      </trkpt>
      <trkpt lat="47.417890" lon="7.845315">
        <ele>475.855156</ele>
        <time>2021-11-19T00:26:10.736Z</time>
      </trkpt>
      <trkpt lat="47.418500" lon="7.845668">
        <ele>474.389818</ele>
        <time>2021-11-19T00:26:17.348Z</time>
      </trkpt>
      <trkpt lat="47.418807" lon="7.845832">
        <ele>473.225563</ele>
        <time>2021-11-19T00:26:20.621Z</time>
      </trkpt>
      <trkpt lat="47.418807" lon="7.845832">
        <ele>473.225563</ele>
        <time>2021-11-19T00:26:20.631Z</time>
      </trkpt>
      <trkpt lat="47.419169" lon="7.846002">
        <ele>471.870869</ele>
        <time>2021-11-19T00:26:24.303Z</time>
      </trkpt>
      <trkpt lat="47.420080" lon="7.846369">
        <ele>468.503223</ele>
        <time>2021-11-19T00:26:33.721Z</time>
      </trkpt>
      <trkpt lat="47.421238" lon="7.846733">
        <ele>465.004451</ele>
        <time>2021-11-19T00:26:45.960Z</time>
      </trkpt>
      <trkpt lat="47.421347" lon="7.846767">
        <ele>464.678414</ele>
        <time>2021-11-19T00:26:47.081Z</time>
      </trkpt>
      <trkpt lat="47.421465" lon="7.846804">
        <ele>464.325378</ele>
        <time>2021-11-19T00:26:48.291Z</time>
      </trkpt>
      <trkpt lat="47.421687" lon="7.846878">
        <ele>463.659333</ele>
        <time>2021-11-19T00:26:50.678Z</time>
      </trkpt>
      <trkpt lat="47.421803" lon="7.846922">
        <ele>463.308834</ele>
        <time>2021-11-19T00:26:51.871Z</time>
      </trkpt>
      <trkpt lat="47.422108" lon="7.847049">
        <ele>462.578818</ele>
        <time>2021-11-19T00:26:55.204Z</time>
      </trkpt>
      <trkpt lat="47.422323" lon="7.847156">
        <ele>462.110758</ele>
        <time>2021-11-19T00:26:57.754Z</time>
      </trkpt>
      <trkpt lat="47.422364" lon="7.847175">
        <ele>462.022107</ele>
        <time>2021-11-19T00:26:58.165Z</time>
      </trkpt>
      <trkpt lat="47.422548" lon="7.847264">
        <ele>461.622666</ele>
        <time>2021-11-19T00:27:00.190Z</time>
      </trkpt>
      <trkpt lat="47.422908" lon="7.847446">
        <ele>460.837666</ele>
        <time>2021-11-19T00:27:04.360Z</time>
      </trkpt>
      <trkpt lat="47.423181" lon="7.847568">
        <ele>460.249230</ele>
        <time>2021-11-19T00:27:07.517Z</time>
      </trkpt>
      <trkpt lat="47.423353" lon="7.847631">
        <ele>459.883625</ele>
        <time>2021-11-19T00:27:09.754Z</time>
      </trkpt>
      <trkpt lat="47.423932" lon="7.847756">
        <ele>458.853569</ele>
        <time>2021-11-19T00:27:16.395Z</time>
      </trkpt>
      <trkpt lat="47.424206" lon="7.847792">
        <ele>458.437699</ele>
        <time>2021-11-19T00:27:19.580Z</time>
      </trkpt>
      <trkpt lat="47.424633" lon="7.847853">
        <ele>457.789146</ele>
        <time>2021-11-19T00:27:24.657Z</time>
      </trkpt>
      <trkpt lat="47.424670" lon="7.847858">
        <ele>457.732975</ele>
        <time>2021-11-19T00:27:25.158Z</time>
      </trkpt>
      <trkpt lat="47.425071" lon="7.847917">
        <ele>457.123742</ele>
        <time>2021-11-19T00:27:29.888Z</time>
      </trkpt>
      <trkpt lat="47.425106" lon="7.847922">
        <ele>457.070582</ele>
        <time>2021-11-19T00:27:30.220Z</time>
      </trkpt>
      <trkpt lat="47.425284" lon="7.847944">
        <ele>456.800539</ele>
        <time>2021-11-19T00:27:32.253Z</time>
      </trkpt>
      <trkpt lat="47.427462" lon="7.848210">
        <ele>452.917375</ele>
        <time>2021-11-19T00:27:56.472Z</time>
      </trkpt>
      <trkpt lat="47.428116" lon="7.848137">
        <ele>451.957359</ele>
        <time>2021-11-19T00:28:04.355Z</time>
      </trkpt>
      <trkpt lat="47.428949" lon="7.847864">
        <ele>450.708450</ele>
        <time>2021-11-19T00:28:14.262Z</time>
      </trkpt>
      <trkpt lat="47.429302" lon="7.847731">
        <ele>449.910466</ele>
        <time>2021-11-19T00:28:18.393Z</time>
      </trkpt>
      <trkpt lat="47.429959" lon="7.847482">
        <ele>448.392998</ele>
        <time>2021-11-19T00:28:25.822Z</time>
      </trkpt>
      <trkpt lat="47.430262" lon="7.847417">
        <ele>447.707986</ele>
        <time>2021-11-19T00:28:29.088Z</time>
      </trkpt>
      <trkpt lat="47.430492" lon="7.847367">
        <ele>447.187866</ele>
        <time>2021-11-19T00:28:31.540Z</time>
      </trkpt>
      <trkpt lat="47.430930" lon="7.847353">
        <ele>446.146434</ele>
        <time>2021-11-19T00:28:36.006Z</time>
      </trkpt>
      <trkpt lat="47.431428" lon="7.847422">
        <ele>444.873100</ele>
        <time>2021-11-19T00:28:41.041Z</time>
      </trkpt>
      <trkpt lat="47.432096" lon="7.847653">
        <ele>443.126637</ele>
        <time>2021-11-19T00:28:48.291Z</time>
      </trkpt>
      <trkpt lat="47.432389" lon="7.847784">
        <ele>442.347367</ele>
        <time>2021-11-19T00:28:51.771Z</time>
      </trkpt>
      <trkpt lat="47.432368" lon="7.847858">
        <ele>442.209173</ele>
        <time>2021-11-19T00:28:57.170Z</time>
      </trkpt>
      <trkpt lat="47.432515" lon="7.847914">
        <ele>441.895232</ele>
        <time>2021-11-19T00:28:59.743Z</time>
      </trkpt>
      <trkpt lat="47.433365" lon="7.848309">
        <ele>440.283664</ele>
        <time>2021-11-19T00:29:13.786Z</time>
      </trkpt>
      <trkpt lat="47.433528" lon="7.848396">
        <ele>439.970218</ele>
        <time>2021-11-19T00:29:16.577Z</time>
      </trkpt>
      <trkpt lat="47.433544" lon="7.848319">
        <ele>439.871665</ele>
        <time>2021-11-19T00:29:17.485Z</time>
      </trkpt>
      <trkpt lat="47.434095" lon="7.848607">
        <ele>438.815331</ele>
        <time>2021-11-19T00:29:24.192Z</time>
      </trkpt>
      <trkpt lat="47.434705" lon="7.849013">
        <ele>437.768144</ele>
        <time>2021-11-19T00:29:31.856Z</time>
      </trkpt>
      <trkpt lat="47.436350" lon="7.850108">
        <ele>435.578611</ele>
        <time>2021-11-19T00:29:52.462Z</time>
      </trkpt>
      <trkpt lat="47.436557" lon="7.850181">
        <ele>435.444829</ele>
        <time>2021-11-19T00:29:55.215Z</time>
      </trkpt>
      <trkpt lat="47.436670" lon="7.850213">
        <ele>435.372501</ele>
        <time>2021-11-19T00:29:56.800Z</time>
      </trkpt>
      <trkpt lat="47.436809" lon="7.850224">
        <ele>435.284994</ele>
        <time>2021-11-19T00:29:58.888Z</time>
      </trkpt>
      <trkpt lat="47.437043" lon="7.850211">
        <ele>435.137786</ele>
        <time>2021-11-19T00:30:02.219Z</time>
      </trkpt>
      <trkpt lat="47.437212" lon="7.850178">
        <ele>435.030622</ele>
        <time>2021-11-19T00:30:04.748Z</time>
      </trkpt>
      <trkpt lat="47.437326" lon="7.850142">
        <ele>434.957340</ele>
        <time>2021-11-19T00:30:06.569Z</time>
      </trkpt>
      <trkpt lat="47.437622" lon="7.849998">
        <ele>434.987001</ele>
        <time>2021-11-19T00:30:11.284Z</time>
      </trkpt>
      <trkpt lat="47.438089" lon="7.849574">
        <ele>435.334672</ele>
        <time>2021-11-19T00:30:20.629Z</time>
      </trkpt>
      <trkpt lat="47.438227" lon="7.849403">
        <ele>435.448902</ele>
        <time>2021-11-19T00:30:24.875Z</time>
      </trkpt>
      <trkpt lat="47.438366" lon="7.849212">
        <ele>435.569290</ele>
        <time>2021-11-19T00:30:27.858Z</time>
      </trkpt>
      <trkpt lat="47.438605" lon="7.848874">
        <ele>435.779109</ele>
        <time>2021-11-19T00:30:34.208Z</time>
      </trkpt>
      <trkpt lat="47.438927" lon="7.848420">
        <ele>435.986636</ele>
        <time>2021-11-19T00:30:42.043Z</time>
      </trkpt>
      <trkpt lat="47.438961" lon="7.848371">
        <ele>435.968457</ele>
        <time>2021-11-19T00:30:43.504Z</time>
      </trkpt>
      <trkpt lat="47.440202" lon="7.846615">
        <ele>435.225809</ele>
        <time>2021-11-19T00:31:06.650Z</time>
      </trkpt>
      <trkpt lat="47.440435" lon="7.846294">
        <ele>434.428864</ele>
        <time>2021-11-19T00:31:10.075Z</time>
      </trkpt>
      <trkpt lat="47.440848" lon="7.845724">
        <ele>433.015083</ele>
        <time>2021-11-19T00:31:16.058Z</time>
      </trkpt>
      <trkpt lat="47.441172" lon="7.845276">
        <ele>431.905007</ele>
        <time>2021-11-19T00:31:20.548Z</time>
      </trkpt>
      <trkpt lat="47.442350" lon="7.843611">
        <ele>427.530624</ele>
        <time>2021-11-19T00:31:37.224Z</time>
      </trkpt>
      <trkpt lat="47.442611" lon="7.843200">
        <ele>426.482157</ele>
        <time>2021-11-19T00:31:41.428Z</time>
      </trkpt>
      <trkpt lat="47.443035" lon="7.842530">
        <ele>424.858849</ele>
        <time>2021-11-19T00:31:48.020Z</time>
      </trkpt>
      <trkpt lat="47.443546" lon="7.841569">
        <ele>422.756617</ele>
        <time>2021-11-19T00:31:56.775Z</time>
      </trkpt>
      <trkpt lat="47.443626" lon="7.841391">
        <ele>422.389089</ele>
        <time>2021-11-19T00:31:58.282Z</time>
      </trkpt>
      <trkpt lat="47.443792" lon="7.841068">
        <ele>421.691460</ele>
        <time>2021-11-19T00:32:01.186Z</time>
      </trkpt>
      <trkpt lat="47.444056" lon="7.840544">
        <ele>420.400492</ele>
        <time>2021-11-19T00:32:05.776Z</time>
      </trkpt>
      <trkpt lat="47.444912" lon="7.838914">
        <ele>416.047317</ele>
        <time>2021-11-19T00:32:19.836Z</time>
      </trkpt>
      <trkpt lat="47.445033" lon="7.838726">
        <ele>415.498696</ele>
        <time>2021-11-19T00:32:21.696Z</time>
      </trkpt>
      <trkpt lat="47.445033" lon="7.838726">
        <ele>415.498696</ele>
        <time>2021-11-19T00:32:21.701Z</time>
      </trkpt>
      <trkpt lat="47.445225" lon="7.838480">
        <ele>414.701540</ele>
        <time>2021-11-19T00:32:24.275Z</time>
      </trkpt>
      <trkpt lat="47.445517" lon="7.838127">
        <ele>413.518072</ele>
        <time>2021-11-19T00:32:28.107Z</time>
      </trkpt>
      <trkpt lat="47.445999" lon="7.837719">
        <ele>411.775388</ele>
        <time>2021-11-19T00:32:33.819Z</time>
      </trkpt>
      <trkpt lat="47.446087" lon="7.837647">
        <ele>411.459813</ele>
        <time>2021-11-19T00:32:34.779Z</time>
      </trkpt>
      <trkpt lat="47.446117" lon="7.837623">
        <ele>411.352786</ele>
        <time>2021-11-19T00:32:35.125Z</time>
      </trkpt>
      <trkpt lat="47.446198" lon="7.837551">
        <ele>411.056239</ele>
        <time>2021-11-19T00:32:36.106Z</time>
      </trkpt>
      <trkpt lat="47.446386" lon="7.837385">
        <ele>410.369170</ele>
        <time>2021-11-19T00:32:38.283Z</time>
      </trkpt>
      <trkpt lat="47.446416" lon="7.837359">
        <ele>410.260060</ele>
        <time>2021-11-19T00:32:38.651Z</time>
      </trkpt>
      <trkpt lat="47.446511" lon="7.837269">
        <ele>409.915828</ele>
        <time>2021-11-19T00:32:39.884Z</time>
      </trkpt>
      <trkpt lat="47.447115" lon="7.836735">
        <ele>407.855403</ele>
        <time>2021-11-19T00:32:47.136Z</time>
      </trkpt>
      <trkpt lat="47.447446" lon="7.836384">
        <ele>406.662835</ele>
        <time>2021-11-19T00:32:51.277Z</time>
      </trkpt>
      <trkpt lat="47.448080" lon="7.835715">
        <ele>404.487520</ele>
        <time>2021-11-19T00:32:59.328Z</time>
      </trkpt>
      <trkpt lat="47.448594" lon="7.835238">
        <ele>403.173381</ele>
        <time>2021-11-19T00:33:05.763Z</time>
      </trkpt>
      <trkpt lat="47.448956" lon="7.834983">
        <ele>402.305046</ele>
        <time>2021-11-19T00:33:10.080Z</time>
      </trkpt>
      <trkpt lat="47.449275" lon="7.834788">
        <ele>401.557535</ele>
        <time>2021-11-19T00:33:13.924Z</time>
      </trkpt>
      <trkpt lat="47.449505" lon="7.834629">
        <ele>401.007717</ele>
        <time>2021-11-19T00:33:16.842Z</time>
      </trkpt>
      <trkpt lat="47.449669" lon="7.834494">
        <ele>400.761807</ele>
        <time>2021-11-19T00:33:18.951Z</time>
      </trkpt>
      <trkpt lat="47.449811" lon="7.834354">
        <ele>400.596967</ele>
        <time>2021-11-19T00:33:21.006Z</time>
      </trkpt>
      <trkpt lat="47.450016" lon="7.834124">
        <ele>400.348426</ele>
        <time>2021-11-19T00:33:23.970Z</time>
      </trkpt>
      <trkpt lat="47.451121" lon="7.832696">
        <ele>399.103088</ele>
        <time>2021-11-19T00:33:42.459Z</time>
      </trkpt>
      <trkpt lat="47.451327" lon="7.832461">
        <ele>399.045860</ele>
        <time>2021-11-19T00:33:46.385Z</time>
      </trkpt>
      <trkpt lat="47.451426" lon="7.832356">
        <ele>399.019062</ele>
        <time>2021-11-19T00:33:48.054Z</time>
      </trkpt>
      <trkpt lat="47.451701" lon="7.832106">
        <ele>398.948056</ele>
        <time>2021-11-19T00:33:52.897Z</time>
      </trkpt>
      <trkpt lat="47.451989" lon="7.831857">
        <ele>398.874675</ele>
        <time>2021-11-19T00:33:58.042Z</time>
      </trkpt>
      <trkpt lat="47.452175" lon="7.831696">
        <ele>398.827269</ele>
        <time>2021-11-19T00:34:01.497Z</time>
      </trkpt>
      <trkpt lat="47.452373" lon="7.831505">
        <ele>398.775270</ele>
        <time>2021-11-19T00:34:04.798Z</time>
      </trkpt>
      <trkpt lat="47.452618" lon="7.831252">
        <ele>398.513834</ele>
        <time>2021-11-19T00:34:08.977Z</time>
      </trkpt>
      <trkpt lat="47.453250" lon="7.830464">
        <ele>397.600543</ele>
        <time>2021-11-19T00:34:19.178Z</time>
      </trkpt>
      <trkpt lat="47.453398" lon="7.830308">
        <ele>397.399749</ele>
        <time>2021-11-19T00:34:21.485Z</time>
      </trkpt>
      <trkpt lat="47.453492" lon="7.830220">
        <ele>397.276837</ele>
        <time>2021-11-19T00:34:22.714Z</time>
      </trkpt>
      <trkpt lat="47.453757" lon="7.829984">
        <ele>396.935075</ele>
        <time>2021-11-19T00:34:26.320Z</time>
      </trkpt>
      <trkpt lat="47.453989" lon="7.829813">
        <ele>396.538210</ele>
        <time>2021-11-19T00:34:29.074Z</time>
      </trkpt>
      <trkpt lat="47.454287" lon="7.829611">
        <ele>395.848977</ele>
        <time>2021-11-19T00:34:32.515Z</time>
      </trkpt>
      <trkpt lat="47.454472" lon="7.829506">
        <ele>395.432349</ele>
        <time>2021-11-19T00:34:34.775Z</time>
      </trkpt>
      <trkpt lat="47.454472" lon="7.829506">
        <ele>395.432349</ele>
        <time>2021-11-19T00:34:34.778Z</time>
      </trkpt>
      <trkpt lat="47.454625" lon="7.829495">
        <ele>395.110282</ele>
        <time>2021-11-19T00:34:36.335Z</time>
      </trkpt>
      <trkpt lat="47.454803" lon="7.829577">
        <ele>394.718296</ele>
        <time>2021-11-19T00:34:38.445Z</time>
      </trkpt>
      <trkpt lat="47.455119" lon="7.829864">
        <ele>393.938614</ele>
        <time>2021-11-19T00:34:42.410Z</time>
      </trkpt>
      <trkpt lat="47.455185" lon="7.829882">
        <ele>393.797507</ele>
        <time>2021-11-19T00:34:43.051Z</time>
      </trkpt>
      <trkpt lat="47.455265" lon="7.829874">
        <ele>393.628921</ele>
        <time>2021-11-19T00:34:43.881Z</time>
      </trkpt>
      <trkpt lat="47.455471" lon="7.829717">
        <ele>393.141672</ele>
        <time>2021-11-19T00:34:46.645Z</time>
      </trkpt>
      <trkpt lat="47.455556" lon="7.829615">
        <ele>392.955065</ele>
        <time>2021-11-19T00:34:47.747Z</time>
      </trkpt>
      <trkpt lat="47.455584" lon="7.829685">
        <ele>392.904145</ele>
        <time>2021-11-19T00:34:48.788Z</time>
      </trkpt>
      <trkpt lat="47.455626" lon="7.829799">
        <ele>392.822865</ele>
        <time>2021-11-19T00:34:50.337Z</time>
      </trkpt>
      <trkpt lat="47.455644" lon="7.829891">
        <ele>392.762902</ele>
        <time>2021-11-19T00:34:51.674Z</time>
      </trkpt>
      <trkpt lat="47.455667" lon="7.830016">
        <ele>392.681797</ele>
        <time>2021-11-19T00:34:53.005Z</time>
      </trkpt>
      <trkpt lat="47.455686" lon="7.830084">
        <ele>392.635731</ele>
        <time>2021-11-19T00:34:53.774Z</time>
      </trkpt>
      <trkpt lat="47.456217" lon="7.829960">
        <ele>392.137970</ele>
        <time>2021-11-19T00:35:03.193Z</time>
      </trkpt>
      <trkpt lat="47.456508" lon="7.829890">
        <ele>391.864983</ele>
        <time>2021-11-19T00:35:08.324Z</time>
      </trkpt>
      <trkpt lat="47.456847" lon="7.829841">
        <ele>391.549596</ele>
        <time>2021-11-19T00:35:15.249Z</time>
      </trkpt>
      <trkpt lat="47.457427" lon="7.829810">
        <ele>391.037374</ele>
        <time>2021-11-19T00:35:26.582Z</time>
      </trkpt>
      <trkpt lat="47.457731" lon="7.829812">
        <ele>390.778617</ele>
        <time>2021-11-19T00:35:32.052Z</time>
      </trkpt>
      <trkpt lat="47.458230" lon="7.829919">
        <ele>390.349444</ele>
        <time>2021-11-19T00:35:41.105Z</time>
      </trkpt>
      <trkpt lat="47.458385" lon="7.829959">
        <ele>390.215520</ele>
        <time>2021-11-19T00:35:43.012Z</time>
      </trkpt>
      <trkpt lat="47.458483" lon="7.830002">
        <ele>390.128513</ele>
        <time>2021-11-19T00:35:44.161Z</time>
      </trkpt>
      <trkpt lat="47.458605" lon="7.829769">
        <ele>389.958915</ele>
        <time>2021-11-19T00:35:46.440Z</time>
      </trkpt>
      <trkpt lat="47.458779" lon="7.829408">
        <ele>389.633928</ele>
        <time>2021-11-19T00:35:49.881Z</time>
      </trkpt>
      <trkpt lat="47.458992" lon="7.829105">
        <ele>389.185373</ele>
        <time>2021-11-19T00:35:53.295Z</time>
      </trkpt>
      <trkpt lat="47.459146" lon="7.828968">
        <ele>388.912608</ele>
        <time>2021-11-19T00:35:55.428Z</time>
      </trkpt>
      <trkpt lat="47.459272" lon="7.828856">
        <ele>388.689486</ele>
        <time>2021-11-19T00:35:57.063Z</time>
      </trkpt>
      <trkpt lat="47.459456" lon="7.828693">
        <ele>388.363949</ele>
        <time>2021-11-19T00:35:59.528Z</time>
      </trkpt>
      <trkpt lat="47.459537" lon="7.828672">
        <ele>388.239133</ele>
        <time>2021-11-19T00:36:00.383Z</time>
      </trkpt>
      <trkpt lat="47.459940" lon="7.828652">
        <ele>387.627117</ele>
        <time>2021-11-19T00:36:04.840Z</time>
      </trkpt>
      <trkpt lat="47.460628" lon="7.828763">
        <ele>386.952681</ele>
        <time>2021-11-19T00:36:13.011Z</time>
      </trkpt>
      <trkpt lat="47.460850" lon="7.828883">
        <ele>386.871309</ele>
        <time>2021-11-19T00:36:16.218Z</time>
      </trkpt>
      <trkpt lat="47.461473" lon="7.829886">
        <ele>386.554287</ele>
        <time>2021-11-19T00:36:29.353Z</time>
      </trkpt>
      <trkpt lat="47.461548" lon="7.829918">
        <ele>386.527414</ele>
        <time>2021-11-19T00:36:30.632Z</time>
      </trkpt>
      <trkpt lat="47.461585" lon="7.830158">
        <ele>386.470119</ele>
        <time>2021-11-19T00:36:33.393Z</time>
      </trkpt>
      <trkpt lat="47.461787" lon="7.831158">
        <ele>386.754377</ele>
        <time>2021-11-19T00:36:44.561Z</time>
      </trkpt>
      <trkpt lat="47.461918" lon="7.831668">
        <ele>386.936498</ele>
        <time>2021-11-19T00:36:50.564Z</time>
      </trkpt>
      <trkpt lat="47.462048" lon="7.832204">
        <ele>387.126590</ele>
        <time>2021-11-19T00:36:57.435Z</time>
      </trkpt>
      <trkpt lat="47.462080" lon="7.832335">
        <ele>387.173087</ele>
        <time>2021-11-19T00:36:59.064Z</time>
      </trkpt>
      <trkpt lat="47.462179" lon="7.832744">
        <ele>387.318105</ele>
        <time>2021-11-19T00:37:04.264Z</time>
      </trkpt>
      <trkpt lat="47.462217" lon="7.832953">
        <ele>387.430430</ele>
        <time>2021-11-19T00:37:07.108Z</time>
      </trkpt>
      <trkpt lat="47.462285" lon="7.833721">
        <ele>387.866157</ele>
        <time>2021-11-19T00:37:16.615Z</time>
      </trkpt>
      <trkpt lat="47.462296" lon="7.833933">
        <ele>387.985767</ele>
        <time>2021-11-19T00:37:19.563Z</time>
      </trkpt>
      <trkpt lat="47.462317" lon="7.834216">
        <ele>388.145924</ele>
        <time>2021-11-19T00:37:23.073Z</time>
      </trkpt>
      <trkpt lat="47.462357" lon="7.834782">
        <ele>388.466061</ele>
        <time>2021-11-19T00:37:29.835Z</time>
      </trkpt>
      <trkpt lat="47.462375" lon="7.834910">
        <ele>388.539608</ele>
        <time>2021-11-19T00:37:31.619Z</time>
      </trkpt>
      <trkpt lat="47.462388" lon="7.834991">
        <ele>388.586441</ele>
        <time>2021-11-19T00:37:32.649Z</time>
      </trkpt>
      <trkpt lat="47.462586" lon="7.835900">
        <ele>389.240435</ele>
        <time>2021-11-19T00:37:43.797Z</time>
      </trkpt>
      <trkpt lat="47.462666" lon="7.836201">
        <ele>389.494332</ele>
        <time>2021-11-19T00:37:47.908Z</time>
      </trkpt>
      <trkpt lat="47.462700" lon="7.836337">
        <ele>389.608161</ele>
        <time>2021-11-19T00:37:49.781Z</time>
      </trkpt>
      <trkpt lat="47.462730" lon="7.836472">
        <ele>389.719718</ele>
        <time>2021-11-19T00:37:51.503Z</time>
      </trkpt>
      <trkpt lat="47.462748" lon="7.836556">
        <ele>389.788894</ele>
        <time>2021-11-19T00:37:52.391Z</time>
      </trkpt>
      <trkpt lat="47.462851" lon="7.837404">
        <ele>390.465255</ele>
        <time>2021-11-19T00:38:05.003Z</time>
      </trkpt>
      <trkpt lat="47.462856" lon="7.837506">
        <ele>390.545537</ele>
        <time>2021-11-19T00:38:06.894Z</time>
      </trkpt>
      <trkpt lat="47.462865" lon="7.837711">
        <ele>390.706807</ele>
        <time>2021-11-19T00:38:09.303Z</time>
      </trkpt>
      <trkpt lat="47.462869" lon="7.837866">
        <ele>390.828574</ele>
        <time>2021-11-19T00:38:11.259Z</time>
      </trkpt>
      <trkpt lat="47.462871" lon="7.837954">
        <ele>390.897696</ele>
        <time>2021-11-19T00:38:12.788Z</time>
      </trkpt>
      <trkpt lat="47.462873" lon="7.838016">
        <ele>390.936141</ele>
        <time>2021-11-19T00:38:13.830Z</time>
      </trkpt>
      <trkpt lat="47.462883" lon="7.838488">
        <ele>391.177349</ele>
        <time>2021-11-19T00:38:19.964Z</time>
      </trkpt>
      <trkpt lat="47.462936" lon="7.838934">
        <ele>391.408651</ele>
        <time>2021-11-19T00:38:25.306Z</time>
      </trkpt>
      <trkpt lat="47.462967" lon="7.839047">
        <ele>391.470941</ele>
        <time>2021-11-19T00:38:27.004Z</time>
      </trkpt>
      <trkpt lat="47.462982" lon="7.839106">
        <ele>391.503137</ele>
        <time>2021-11-19T00:38:27.942Z</time>
      </trkpt>
      <trkpt lat="47.463043" lon="7.839292">
        <ele>391.608731</ele>
        <time>2021-11-19T00:38:29.759Z</time>
      </trkpt>
      <trkpt lat="47.463133" lon="7.839561">
        <ele>391.762036</ele>
        <time>2021-11-19T00:38:33.665Z</time>
      </trkpt>
      <trkpt lat="47.463287" lon="7.840028">
        <ele>392.027434</ele>
        <time>2021-11-19T00:38:39.700Z</time>
      </trkpt>
      <trkpt lat="47.463588" lon="7.840904">
        <ele>392.143681</ele>
        <time>2021-11-19T00:38:50.994Z</time>
      </trkpt>
      <trkpt lat="47.463616" lon="7.840992">
        <ele>392.117764</ele>
        <time>2021-11-19T00:38:52.073Z</time>
      </trkpt>
      <trkpt lat="47.463685" lon="7.841203">
        <ele>392.055306</ele>
        <time>2021-11-19T00:38:54.016Z</time>
      </trkpt>
      <trkpt lat="47.463874" lon="7.841863">
        <ele>391.864307</ele>
        <time>2021-11-19T00:39:00.304Z</time>
      </trkpt>
      <trkpt lat="47.463922" lon="7.842123">
        <ele>391.792487</ele>
        <time>2021-11-19T00:39:02.288Z</time>
      </trkpt>
      <trkpt lat="47.463971" lon="7.842355">
        <ele>391.727719</ele>
        <time>2021-11-19T00:39:04.851Z</time>
      </trkpt>
      <trkpt lat="47.464053" lon="7.842690">
        <ele>391.632780</ele>
        <time>2021-11-19T00:39:07.652Z</time>
      </trkpt>
      <trkpt lat="47.464075" lon="7.842774">
        <ele>391.608775</ele>
        <time>2021-11-19T00:39:08.850Z</time>
      </trkpt>
      <trkpt lat="47.464165" lon="7.843130">
        <ele>391.615700</ele>
        <time>2021-11-19T00:39:11.975Z</time>
      </trkpt>
      <trkpt lat="47.464176" lon="7.843178">
        <ele>391.626772</ele>
        <time>2021-11-19T00:39:12.460Z</time>
      </trkpt>
      <trkpt lat="47.464234" lon="7.843434">
        <ele>391.685754</ele>
        <time>2021-11-19T00:39:15.524Z</time>
      </trkpt>
      <trkpt lat="47.464354" lon="7.843960">
        <ele>391.807028</ele>
        <time>2021-11-19T00:39:21.540Z</time>
      </trkpt>
      <trkpt lat="47.464386" lon="7.844088">
        <ele>391.836842</ele>
        <time>2021-11-19T00:39:22.883Z</time>
      </trkpt>
      <trkpt lat="47.464433" lon="7.844273">
        <ele>391.880015</ele>
        <time>2021-11-19T00:39:25.367Z</time>
      </trkpt>
      <trkpt lat="47.464585" lon="7.844988">
        <ele>392.043752</ele>
        <time>2021-11-19T00:39:33.880Z</time>
      </trkpt>
      <trkpt lat="47.464737" lon="7.846119">
        <ele>392.649095</ele>
        <time>2021-11-19T00:39:47.989Z</time>
      </trkpt>
      <trkpt lat="47.464771" lon="7.847028">
        <ele>393.324533</ele>
        <time>2021-11-19T00:40:00.099Z</time>
      </trkpt>
      <trkpt lat="47.464784" lon="7.847333">
        <ele>393.551268</ele>
        <time>2021-11-19T00:40:04.079Z</time>
      </trkpt>
      <trkpt lat="47.464820" lon="7.847644">
        <ele>393.785364</ele>
        <time>2021-11-19T00:40:08.350Z</time>
      </trkpt>
      <trkpt lat="47.464850" lon="7.847870">
        <ele>393.956239</ele>
        <time>2021-11-19T00:40:11.266Z</time>
      </trkpt>
      <trkpt lat="47.464909" lon="7.848219">
        <ele>394.244170</ele>
        <time>2021-11-19T00:40:16.333Z</time>
      </trkpt>
      <trkpt lat="47.464952" lon="7.848443">
        <ele>394.452873</ele>
        <time>2021-11-19T00:40:19.521Z</time>
      </trkpt>
      <trkpt lat="47.465152" lon="7.849351">
        <ele>395.308800</ele>
        <time>2021-11-19T00:40:32.780Z</time>
      </trkpt>
      <trkpt lat="47.465348" lon="7.849875">
        <ele>395.845543</ele>
        <time>2021-11-19T00:40:41.005Z</time>
      </trkpt>
      <trkpt lat="47.465558" lon="7.850405">
        <ele>396.396144</ele>
        <time>2021-11-19T00:40:49.306Z</time>
      </trkpt>
      <trkpt lat="47.465620" lon="7.850585">
        <ele>396.568491</ele>
        <time>2021-11-19T00:40:51.908Z</time>
      </trkpt>
      <trkpt lat="47.465714" lon="7.850917">
        <ele>396.851235</ele>
        <time>2021-11-19T00:40:56.549Z</time>
      </trkpt>
      <trkpt lat="47.465829" lon="7.851383">
        <ele>397.240917</ele>
        <time>2021-11-19T00:41:02.910Z</time>
      </trkpt>
      <trkpt lat="47.465804" lon="7.851399">
        <ele>397.272568</ele>
        <time>2021-11-19T00:41:03.466Z</time>
      </trkpt>
      <trkpt lat="47.465765" lon="7.851501">
        <ele>397.364619</ele>
        <time>2021-11-19T00:41:04.946Z</time>
      </trkpt>
      <trkpt lat="47.465770" lon="7.851542">
        <ele>397.397346</ele>
        <time>2021-11-19T00:41:05.496Z</time>
      </trkpt>
      <trkpt lat="47.465781" lon="7.851575">
        <ele>397.426248</ele>
        <time>2021-11-19T00:41:05.977Z</time>
      </trkpt>
      <trkpt lat="47.465821" lon="7.851619">
        <ele>397.484169</ele>
        <time>2021-11-19T00:41:06.885Z</time>
      </trkpt>
      <trkpt lat="47.465846" lon="7.851625">
        <ele>397.513598</ele>
        <time>2021-11-19T00:41:07.365Z</time>
      </trkpt>
      <trkpt lat="47.465871" lon="7.851620">
        <ele>397.542912</ele>
        <time>2021-11-19T00:41:07.817Z</time>
      </trkpt>
      <trkpt lat="47.465906" lon="7.851776">
        <ele>397.672026</ele>
        <time>2021-11-19T00:41:10.042Z</time>
      </trkpt>
      <trkpt lat="47.466256" lon="7.853287">
        <ele>399.031901</ele>
        <time>2021-11-19T00:41:31.197Z</time>
      </trkpt>
      <trkpt lat="47.466331" lon="7.853936">
        <ele>399.713968</ele>
        <time>2021-11-19T00:41:40.723Z</time>
      </trkpt>
      <trkpt lat="47.466338" lon="7.854554">
        <ele>400.354259</ele>
        <time>2021-11-19T00:41:49.290Z</time>
      </trkpt>
      <trkpt lat="47.466332" lon="7.854775">
        <ele>400.583382</ele>
        <time>2021-11-19T00:41:52.467Z</time>
      </trkpt>
      <trkpt lat="47.466324" lon="7.855062">
        <ele>400.880945</ele>
        <time>2021-11-19T00:41:56.731Z</time>
      </trkpt>
      <trkpt lat="47.466298" lon="7.855895">
        <ele>401.734259</ele>
        <time>2021-11-19T00:42:08.910Z</time>
      </trkpt>
      <trkpt lat="47.466295" lon="7.856234">
        <ele>402.076031</ele>
        <time>2021-11-19T00:42:14.144Z</time>
      </trkpt>
      <trkpt lat="47.466298" lon="7.856354">
        <ele>402.197085</ele>
        <time>2021-11-19T00:42:15.821Z</time>
      </trkpt>
      <trkpt lat="47.466271" lon="7.856363">
        <ele>402.238357</ele>
        <time>2021-11-19T00:42:16.423Z</time>
      </trkpt>
      <trkpt lat="47.466237" lon="7.856421">
        <ele>402.315748</ele>
        <time>2021-11-19T00:42:17.459Z</time>
      </trkpt>
      <trkpt lat="47.466235" lon="7.856461">
        <ele>402.356182</ele>
        <time>2021-11-19T00:42:17.976Z</time>
      </trkpt>
      <trkpt lat="47.466243" lon="7.856497">
        <ele>402.394383</ele>
        <time>2021-11-19T00:42:18.619Z</time>
      </trkpt>
      <trkpt lat="47.466284" lon="7.856540">
        <ele>402.469331</ele>
        <time>2021-11-19T00:42:19.772Z</time>
      </trkpt>
      <trkpt lat="47.466310" lon="7.856541">
        <ele>402.508115</ele>
        <time>2021-11-19T00:42:20.314Z</time>
      </trkpt>
      <trkpt lat="47.466322" lon="7.856655">
        <ele>402.624423</ele>
        <time>2021-11-19T00:42:22.089Z</time>
      </trkpt>
      <trkpt lat="47.466344" lon="7.856945">
        <ele>402.918604</ele>
        <time>2021-11-19T00:42:25.864Z</time>
      </trkpt>
      <trkpt lat="47.466347" lon="7.856973">
        <ele>402.947183</ele>
        <time>2021-11-19T00:42:26.531Z</time>
      </trkpt>
      <trkpt lat="47.466518" lon="7.858022">
        <ele>404.034979</ele>
        <time>2021-11-19T00:42:41.134Z</time>
      </trkpt>
      <trkpt lat="47.466576" lon="7.858236">
        <ele>404.187471</ele>
        <time>2021-11-19T00:42:44.057Z</time>
      </trkpt>
      <trkpt lat="47.466673" lon="7.858620">
        <ele>404.458591</ele>
        <time>2021-11-19T00:42:50.691Z</time>
      </trkpt>
      <trkpt lat="47.466824" lon="7.859137">
        <ele>404.831071</ele>
        <time>2021-11-19T00:43:00.050Z</time>
      </trkpt>
      <trkpt lat="47.466922" lon="7.859398">
        <ele>405.028529</ele>
        <time>2021-11-19T00:43:04.599Z</time>
      </trkpt>
      <trkpt lat="47.467047" lon="7.859682">
        <ele>405.252662</ele>
        <time>2021-11-19T00:43:10.194Z</time>
      </trkpt>
      <trkpt lat="47.467266" lon="7.860107">
        <ele>405.606093</ele>
        <time>2021-11-19T00:43:19.049Z</time>
      </trkpt>
      <trkpt lat="47.467944" lon="7.861300">
        <ele>406.798818</ele>
        <time>2021-11-19T00:43:43.767Z</time>
      </trkpt>
      <trkpt lat="47.468224" lon="7.861805">
        <ele>407.313833</ele>
        <time>2021-11-19T00:43:55.083Z</time>
      </trkpt>
      <trkpt lat="47.468543" lon="7.862357">
        <ele>407.886469</ele>
        <time>2021-11-19T00:44:07.771Z</time>
      </trkpt>
      <trkpt lat="47.468825" lon="7.862900">
        <ele>408.714094</ele>
        <time>2021-11-19T00:44:20.416Z</time>
      </trkpt>
      <trkpt lat="47.468859" lon="7.862978">
        <ele>408.826727</ele>
        <time>2021-11-19T00:44:22.216Z</time>
      </trkpt>
      <trkpt lat="47.468943" lon="7.863195">
        <ele>409.130195</ele>
        <time>2021-11-19T00:44:26.718Z</time>
      </trkpt>
      <trkpt lat="47.468986" lon="7.863323">
        <ele>409.303657</ele>
        <time>2021-11-19T00:44:29.386Z</time>
      </trkpt>
      <trkpt lat="47.469011" lon="7.863405">
        <ele>409.412823</ele>
        <time>2021-11-19T00:44:31.523Z</time>
      </trkpt>
      <trkpt lat="47.469305" lon="7.864692">
        <ele>411.061464</ele>
        <time>2021-11-19T00:44:56.676Z</time>
      </trkpt>
      <trkpt lat="47.469629" lon="7.865918">
        <ele>412.199663</ele>
        <time>2021-11-19T00:45:20.691Z</time>
      </trkpt>
      <trkpt lat="47.469710" lon="7.866208">
        <ele>412.466680</ele>
        <time>2021-11-19T00:45:25.671Z</time>
      </trkpt>
      <trkpt lat="47.469764" lon="7.866452">
        <ele>412.685161</ele>
        <time>2021-11-19T00:45:29.972Z</time>
      </trkpt>
      <trkpt lat="47.469808" lon="7.866690">
        <ele>412.895128</ele>
        <time>2021-11-19T00:45:33.827Z</time>
      </trkpt>
      <trkpt lat="47.469915" lon="7.867494">
        <ele>413.500605</ele>
        <time>2021-11-19T00:45:46.991Z</time>
      </trkpt>
      <trkpt lat="47.470127" lon="7.868484">
        <ele>413.991199</ele>
        <time>2021-11-19T00:46:02.387Z</time>
      </trkpt>
      <trkpt lat="47.470234" lon="7.868884">
        <ele>414.194421</ele>
        <time>2021-11-19T00:46:08.812Z</time>
      </trkpt>
      <trkpt lat="47.470309" lon="7.869201">
        <ele>414.353083</ele>
        <time>2021-11-19T00:46:14.183Z</time>
      </trkpt>
      <trkpt lat="47.470378" lon="7.869626">
        <ele>414.559566</ele>
        <time>2021-11-19T00:46:20.950Z</time>
      </trkpt>
      <trkpt lat="47.470397" lon="7.870147">
        <ele>414.999907</ele>
        <time>2021-11-19T00:46:29.684Z</time>
      </trkpt>
      <trkpt lat="47.470379" lon="7.870338">
        <ele>415.199328</ele>
        <time>2021-11-19T00:46:33.231Z</time>
      </trkpt>
      <trkpt lat="47.470350" lon="7.870570">
        <ele>415.443304</ele>
        <time>2021-11-19T00:46:36.149Z</time>
      </trkpt>
      <trkpt lat="47.470333" lon="7.870669">
        <ele>415.548931</ele>
        <time>2021-11-19T00:46:37.619Z</time>
      </trkpt>
      <trkpt lat="47.470316" lon="7.870753">
        <ele>415.639603</ele>
        <time>2021-11-19T00:46:39.129Z</time>
      </trkpt>
      <trkpt lat="47.470245" lon="7.871088">
        <ele>416.002652</ele>
        <time>2021-11-19T00:46:43.643Z</time>
      </trkpt>
      <trkpt lat="47.470217" lon="7.871214">
        <ele>416.139807</ele>
        <time>2021-11-19T00:46:45.673Z</time>
      </trkpt>
      <trkpt lat="47.470156" lon="7.871491">
        <ele>416.441067</ele>
        <time>2021-11-19T00:46:50.135Z</time>
      </trkpt>
      <trkpt lat="47.469969" lon="7.872276">
        <ele>417.301763</ele>
        <time>2021-11-19T00:47:02.492Z</time>
      </trkpt>
      <trkpt lat="47.469710" lon="7.873249">
        <ele>418.619291</ele>
        <time>2021-11-19T00:47:17.739Z</time>
      </trkpt>
      <trkpt lat="47.469682" lon="7.873326">
        <ele>418.731305</ele>
        <time>2021-11-19T00:47:19.517Z</time>
      </trkpt>
      <trkpt lat="47.469626" lon="7.873477">
        <ele>418.951955</ele>
        <time>2021-11-19T00:47:21.955Z</time>
      </trkpt>
      <trkpt lat="47.469489" lon="7.873809">
        <ele>419.450274</ele>
        <time>2021-11-19T00:47:27.983Z</time>
      </trkpt>
      <trkpt lat="47.469422" lon="7.873965">
        <ele>419.687056</ele>
        <time>2021-11-19T00:47:30.585Z</time>
      </trkpt>
      <trkpt lat="47.469224" lon="7.874328">
        <ele>420.284621</ele>
        <time>2021-11-19T00:47:37.863Z</time>
      </trkpt>
      <trkpt lat="47.469173" lon="7.874432">
        <ele>420.449225</ele>
        <time>2021-11-19T00:47:39.546Z</time>
      </trkpt>
      <trkpt lat="47.469136" lon="7.874516">
        <ele>420.577670</ele>
        <time>2021-11-19T00:47:41.041Z</time>
      </trkpt>
      <trkpt lat="47.469097" lon="7.874606">
        <ele>420.714629</ele>
        <time>2021-11-19T00:47:42.886Z</time>
      </trkpt>
      <trkpt lat="47.469068" lon="7.874689">
        <ele>420.865017</ele>
        <time>2021-11-19T00:47:44.731Z</time>
      </trkpt>
      <trkpt lat="47.469050" lon="7.874738">
        <ele>421.007186</ele>
        <time>2021-11-19T00:47:45.477Z</time>
      </trkpt>
      <trkpt lat="47.468989" lon="7.874967">
        <ele>421.634668</ele>
        <time>2021-11-19T00:47:49.077Z</time>
      </trkpt>
      <trkpt lat="47.468925" lon="7.875205">
        <ele>422.287648</ele>
        <time>2021-11-19T00:47:53.560Z</time>
      </trkpt>
      <trkpt lat="47.468806" lon="7.875696">
        <ele>423.617382</ele>
        <time>2021-11-19T00:48:01.399Z</time>
      </trkpt>
      <trkpt lat="47.468698" lon="7.876140">
        <ele>424.820330</ele>
        <time>2021-11-19T00:48:09.853Z</time>
      </trkpt>
      <trkpt lat="47.468639" lon="7.876439">
        <ele>425.614390</ele>
        <time>2021-11-19T00:48:15.967Z</time>
      </trkpt>
      <trkpt lat="47.468557" lon="7.876917">
        <ele>426.871596</ele>
        <time>2021-11-19T00:48:26.876Z</time>
      </trkpt>
      <trkpt lat="47.468377" lon="7.877826">
        <ele>431.055600</ele>
        <time>2021-11-19T00:48:56.581Z</time>
      </trkpt>
      <trkpt lat="47.468327" lon="7.877957">
        <ele>431.838293</ele>
        <time>2021-11-19T00:49:01.971Z</time>
      </trkpt>
      <trkpt lat="47.468308" lon="7.877998">
        <ele>432.096916</ele>
        <time>2021-11-19T00:49:05.146Z</time>
      </trkpt>
      <trkpt lat="47.468268" lon="7.878083">
        <ele>432.635753</ele>
        <time>2021-11-19T00:49:07.922Z</time>
      </trkpt>
      <trkpt lat="47.468104" lon="7.878354">
        <ele>434.528136</ele>
        <time>2021-11-19T00:49:18.524Z</time>
      </trkpt>
      <trkpt lat="47.468067" lon="7.878427">
        <ele>435.002837</ele>
        <time>2021-11-19T00:49:23.574Z</time>
      </trkpt>
      <trkpt lat="47.467908" lon="7.878819">
        <ele>437.381285</ele>
        <time>2021-11-19T00:49:36.750Z</time>
      </trkpt>
      <trkpt lat="47.467814" lon="7.879126">
        <ele>439.134744</ele>
        <time>2021-11-19T00:49:47.131Z</time>
      </trkpt>
      <trkpt lat="47.467758" lon="7.879308">
        <ele>440.175126</ele>
        <time>2021-11-19T00:49:54.247Z</time>
      </trkpt>
      <trkpt lat="47.467695" lon="7.879712">
        <ele>441.786215</ele>
        <time>2021-11-19T00:50:07.043Z</time>
      </trkpt>
      <trkpt lat="47.467712" lon="7.880819">
        <ele>444.062691</ele>
        <time>2021-11-19T00:50:35.859Z</time>
      </trkpt>
      <trkpt lat="47.467755" lon="7.881902">
        <ele>446.293075</ele>
        <time>2021-11-19T00:50:50.156Z</time>
      </trkpt>
      <trkpt lat="47.467789" lon="7.882188">
        <ele>446.890087</ele>
        <time>2021-11-19T00:50:52.342Z</time>
      </trkpt>
      <trkpt lat="47.467832" lon="7.882502">
        <ele>446.267727</ele>
        <time>2021-11-19T00:50:54.648Z</time>
      </trkpt>
      <trkpt lat="47.467854" lon="7.882590">
        <ele>446.079958</ele>
        <time>2021-11-19T00:50:55.240Z</time>
      </trkpt>
      <trkpt lat="47.468085" lon="7.883534">
        <ele>444.070796</ele>
        <time>2021-11-19T00:51:02.023Z</time>
      </trkpt>
      <trkpt lat="47.468175" lon="7.884477">
        <ele>442.164891</ele>
        <time>2021-11-19T00:51:08.362Z</time>
      </trkpt>
      <trkpt lat="47.468170" lon="7.884753">
        <ele>441.612345</ele>
        <time>2021-11-19T00:51:10.166Z</time>
      </trkpt>
      <trkpt lat="47.468160" lon="7.885131">
        <ele>441.230878</ele>
        <time>2021-11-19T00:51:12.990Z</time>
      </trkpt>
      <trkpt lat="47.468160" lon="7.885412">
        <ele>440.962063</ele>
        <time>2021-11-19T00:51:15.042Z</time>
      </trkpt>
      <trkpt lat="47.468174" lon="7.885724">
        <ele>440.662936</ele>
        <time>2021-11-19T00:51:17.337Z</time>
      </trkpt>
      <trkpt lat="47.468250" lon="7.886308">
        <ele>440.094002</ele>
        <time>2021-11-19T00:51:21.819Z</time>
      </trkpt>
      <trkpt lat="47.468546" lon="7.888014">
        <ele>439.290763</ele>
        <time>2021-11-19T00:51:38.899Z</time>
      </trkpt>
      <trkpt lat="47.468718" lon="7.888938">
        <ele>439.676862</ele>
        <time>2021-11-19T00:51:50.246Z</time>
      </trkpt>
      <trkpt lat="47.468951" lon="7.890216">
        <ele>440.293624</ele>
        <time>2021-11-19T00:52:07.227Z</time>
      </trkpt>
      <trkpt lat="47.469288" lon="7.891996">
        <ele>441.610361</ele>
        <time>2021-11-19T00:52:31.439Z</time>
      </trkpt>
      <trkpt lat="47.469496" lon="7.893085">
        <ele>442.270621</ele>
        <time>2021-11-19T00:52:45.504Z</time>
      </trkpt>
      <trkpt lat="47.469658" lon="7.894567">
        <ele>442.968429</ele>
        <time>2021-11-19T00:53:02.967Z</time>
      </trkpt>
      <trkpt lat="47.469691" lon="7.894970">
        <ele>443.157120</ele>
        <time>2021-11-19T00:53:07.531Z</time>
      </trkpt>
      <trkpt lat="47.469714" lon="7.895204">
        <ele>443.318110</ele>
        <time>2021-11-19T00:53:10.180Z</time>
      </trkpt>
      <trkpt lat="47.469728" lon="7.895384">
        <ele>443.530719</ele>
        <time>2021-11-19T00:53:12.183Z</time>
      </trkpt>
      <trkpt lat="47.469734" lon="7.895575">
        <ele>443.755084</ele>
        <time>2021-11-19T00:53:14.584Z</time>
      </trkpt>
      <trkpt lat="47.469747" lon="7.895922">
        <ele>444.162886</ele>
        <time>2021-11-19T00:53:18.647Z</time>
      </trkpt>
      <trkpt lat="47.469738" lon="7.896220">
        <ele>444.512914</ele>
        <time>2021-11-19T00:53:23.128Z</time>
      </trkpt>
      <trkpt lat="47.469692" lon="7.896826">
        <ele>445.228477</ele>
        <time>2021-11-19T00:53:32.273Z</time>
      </trkpt>
      <trkpt lat="47.469678" lon="7.896938">
        <ele>445.362128</ele>
        <time>2021-11-19T00:53:33.837Z</time>
      </trkpt>
      <trkpt lat="47.469652" lon="7.897139">
        <ele>445.602266</ele>
        <time>2021-11-19T00:53:37.251Z</time>
      </trkpt>
      <trkpt lat="47.469598" lon="7.897405">
        <ele>445.928168</ele>
        <time>2021-11-19T00:53:41.730Z</time>
      </trkpt>
      <trkpt lat="47.469534" lon="7.897638">
        <ele>446.223285</ele>
        <time>2021-11-19T00:53:45.998Z</time>
      </trkpt>
      <trkpt lat="47.469806" lon="7.897795">
        <ele>447.303741</ele>
        <time>2021-11-19T00:53:53.245Z</time>
      </trkpt>
      <trkpt lat="47.469999" lon="7.897879">
        <ele>448.188082</ele>
        <time>2021-11-19T00:53:58.918Z</time>
      </trkpt>
      <trkpt lat="47.471002" lon="7.898222">
        <ele>452.713321</ele>
        <time>2021-11-19T00:54:34.048Z</time>
      </trkpt>
      <trkpt lat="47.471597" lon="7.898344">
        <ele>455.563866</ele>
        <time>2021-11-19T00:54:56.156Z</time>
      </trkpt>
      <trkpt lat="47.471825" lon="7.898370">
        <ele>456.762504</ele>
        <time>2021-11-19T00:55:04.114Z</time>
      </trkpt>
      <trkpt lat="47.471910" lon="7.898392">
        <ele>457.214811</ele>
        <time>2021-11-19T00:55:07.496Z</time>
      </trkpt>
      <trkpt lat="47.473317" lon="7.898945">
        <ele>464.743115</ele>
        <time>2021-11-19T00:56:00.139Z</time>
      </trkpt>
      <trkpt lat="47.473931" lon="7.899567">
        <ele>468.297679</ele>
        <time>2021-11-19T00:56:23.412Z</time>
      </trkpt>
      <trkpt lat="47.474087" lon="7.899774">
        <ele>469.298651</ele>
        <time>2021-11-19T00:56:30.932Z</time>
      </trkpt>
      <trkpt lat="47.474186" lon="7.899915">
        <ele>469.955060</ele>
        <time>2021-11-19T00:56:35.589Z</time>
      </trkpt>
      <trkpt lat="47.474336" lon="7.900125">
        <ele>470.941513</ele>
        <time>2021-11-19T00:56:42.868Z</time>
      </trkpt>
      <trkpt lat="47.474617" lon="7.900560">
        <ele>472.982764</ele>
        <time>2021-11-19T00:56:56.976Z</time>
      </trkpt>
      <trkpt lat="47.474888" lon="7.900841">
        <ele>474.821974</ele>
        <time>2021-11-19T00:57:08.303Z</time>
      </trkpt>
      <trkpt lat="47.475163" lon="7.901034">
        <ele>476.513580</ele>
        <time>2021-11-19T00:57:19.280Z</time>
      </trkpt>
      <trkpt lat="47.475300" lon="7.901112">
        <ele>477.329416</ele>
        <time>2021-11-19T00:57:25.292Z</time>
      </trkpt>
      <trkpt lat="47.476364" lon="7.901870">
        <ele>484.108439</ele>
        <time>2021-11-19T00:58:09.957Z</time>
      </trkpt>
      <trkpt lat="47.476536" lon="7.901977">
        <ele>485.284022</ele>
        <time>2021-11-19T00:58:17.617Z</time>
      </trkpt>
      <trkpt lat="47.476982" lon="7.902234">
        <ele>488.299644</ele>
        <time>2021-11-19T00:58:36.591Z</time>
      </trkpt>
      <trkpt lat="47.478118" lon="7.903075">
        <ele>496.030955</ele>
        <time>2021-11-19T00:59:29.236Z</time>
      </trkpt>
      <trkpt lat="47.478182" lon="7.903109">
        <ele>496.416109</ele>
        <time>2021-11-19T00:59:32.574Z</time>
      </trkpt>
      <trkpt lat="47.478367" lon="7.903166">
        <ele>497.486425</ele>
        <time>2021-11-19T00:59:39.645Z</time>
      </trkpt>
      <trkpt lat="47.480980" lon="7.903461">
        <ele>511.827351</ele>
        <time>2021-11-19T01:01:12.101Z</time>
      </trkpt>
      <trkpt lat="47.481478" lon="7.903693">
        <ele>514.974144</ele>
        <time>2021-11-19T01:01:31.673Z</time>
      </trkpt>
      <trkpt lat="47.481588" lon="7.903776">
        <ele>515.827789</ele>
        <time>2021-11-19T01:01:36.519Z</time>
      </trkpt>
      <trkpt lat="47.481709" lon="7.903892">
        <ele>516.824542</ele>
        <time>2021-11-19T01:01:42.868Z</time>
      </trkpt>
      <trkpt lat="47.482157" lon="7.904346">
        <ele>520.578496</ele>
        <time>2021-11-19T01:02:07.014Z</time>
      </trkpt>
      <trkpt lat="47.482433" lon="7.904538">
        <ele>522.686949</ele>
        <time>2021-11-19T01:02:20.976Z</time>
      </trkpt>
      <trkpt lat="47.483101" lon="7.904680">
        <ele>526.498630</ele>
        <time>2021-11-19T01:02:52.076Z</time>
      </trkpt>
      <trkpt lat="47.483329" lon="7.904705">
        <ele>527.198281</ele>
        <time>2021-11-19T01:03:00.495Z</time>
      </trkpt>
      <trkpt lat="47.483385" lon="7.904708">
        <ele>527.369767</ele>
        <time>2021-11-19T01:03:02.874Z</time>
      </trkpt>
      <trkpt lat="47.484005" lon="7.904793">
        <ele>529.275249</ele>
        <time>2021-11-19T01:03:19.102Z</time>
      </trkpt>
      <trkpt lat="47.484064" lon="7.904808">
        <ele>529.458449</ele>
        <time>2021-11-19T01:03:20.198Z</time>
      </trkpt>
      <trkpt lat="47.484124" lon="7.904824">
        <ele>529.645022</ele>
        <time>2021-11-19T01:03:21.590Z</time>
      </trkpt>
      <trkpt lat="47.484248" lon="7.904856">
        <ele>530.030221</ele>
        <time>2021-11-19T01:03:24.149Z</time>
      </trkpt>
      <trkpt lat="47.484481" lon="7.904947">
        <ele>530.767677</ele>
        <time>2021-11-19T01:03:28.519Z</time>
      </trkpt>
      <trkpt lat="47.484713" lon="7.905133">
        <ele>531.007493</ele>
        <time>2021-11-19T01:03:33.140Z</time>
      </trkpt>
      <trkpt lat="47.484936" lon="7.905289">
        <ele>530.051109</ele>
        <time>2021-11-19T01:03:35.852Z</time>
      </trkpt>
      <trkpt lat="47.485049" lon="7.905336">
        <ele>529.595999</ele>
        <time>2021-11-19T01:03:37.158Z</time>
      </trkpt>
      <trkpt lat="47.485073" lon="7.905345">
        <ele>529.500002</ele>
        <time>2021-11-19T01:03:37.368Z</time>
      </trkpt>
      <trkpt lat="47.485331" lon="7.905337">
        <ele>528.499445</ele>
        <time>2021-11-19T01:03:40.055Z</time>
      </trkpt>
      <trkpt lat="47.485593" lon="7.905145">
        <ele>527.365854</ele>
        <time>2021-11-19T01:03:42.962Z</time>
      </trkpt>
      <trkpt lat="47.486049" lon="7.904262">
        <ele>524.454032</ele>
        <time>2021-11-19T01:03:49.819Z</time>
      </trkpt>
      <trkpt lat="47.486247" lon="7.904043">
        <ele>523.013341</ele>
        <time>2021-11-19T01:03:52.010Z</time>
      </trkpt>
      <trkpt lat="47.486480" lon="7.904016">
        <ele>521.596263</ele>
        <time>2021-11-19T01:03:54.176Z</time>
      </trkpt>
      <trkpt lat="47.486688" lon="7.904238">
        <ele>520.041288</ele>
        <time>2021-11-19T01:03:56.589Z</time>
      </trkpt>
      <trkpt lat="47.486721" lon="7.904326">
        <ele>519.628924</ele>
        <time>2021-11-19T01:03:57.192Z</time>
      </trkpt>
      <trkpt lat="47.486755" lon="7.904487">
        <ele>518.937788</ele>
        <time>2021-11-19T01:03:58.210Z</time>
      </trkpt>
      <trkpt lat="47.486724" lon="7.905485">
        <ele>514.844314</ele>
        <time>2021-11-19T01:04:04.374Z</time>
      </trkpt>
      <trkpt lat="47.486769" lon="7.905976">
        <ele>513.060037</ele>
        <time>2021-11-19T01:04:07.461Z</time>
      </trkpt>
      <trkpt lat="47.486969" lon="7.906583">
        <ele>511.371395</ele>
        <time>2021-11-19T01:04:11.752Z</time>
      </trkpt>
      <trkpt lat="47.487197" lon="7.906946">
        <ele>510.132160</ele>
        <time>2021-11-19T01:04:15.303Z</time>
      </trkpt>
      <trkpt lat="47.487378" lon="7.907191">
        <ele>509.224473</ele>
        <time>2021-11-19T01:04:17.882Z</time>
      </trkpt>
      <trkpt lat="47.487587" lon="7.907459">
        <ele>508.201150</ele>
        <time>2021-11-19T01:04:20.752Z</time>
      </trkpt>
      <trkpt lat="47.487763" lon="7.907711">
        <ele>507.294948</ele>
        <time>2021-11-19T01:04:23.271Z</time>
      </trkpt>
      <trkpt lat="47.488080" lon="7.908344">
        <ele>505.433326</ele>
        <time>2021-11-19T01:04:28.629Z</time>
      </trkpt>
      <trkpt lat="47.488185" lon="7.908663">
        <ele>504.611780</ele>
        <time>2021-11-19T01:04:31.160Z</time>
      </trkpt>
      <trkpt lat="47.488241" lon="7.908835">
        <ele>504.169733</ele>
        <time>2021-11-19T01:04:32.418Z</time>
      </trkpt>
      <trkpt lat="47.488366" lon="7.909318">
        <ele>502.972231</ele>
        <time>2021-11-19T01:04:36.022Z</time>
      </trkpt>
      <trkpt lat="47.488699" lon="7.910498">
        <ele>499.916641</ele>
        <time>2021-11-19T01:04:44.543Z</time>
      </trkpt>
      <trkpt lat="47.488908" lon="7.911009">
        <ele>498.320485</ele>
        <time>2021-11-19T01:04:48.379Z</time>
      </trkpt>
      <trkpt lat="47.489040" lon="7.911300">
        <ele>497.383911</ele>
        <time>2021-11-19T01:04:50.591Z</time>
      </trkpt>
      <trkpt lat="47.489216" lon="7.911685">
        <ele>496.141796</ele>
        <time>2021-11-19T01:04:53.680Z</time>
      </trkpt>
      <trkpt lat="47.489607" lon="7.912646">
        <ele>493.281685</ele>
        <time>2021-11-19T01:05:01.193Z</time>
      </trkpt>
      <trkpt lat="47.489843" lon="7.913398">
        <ele>491.889628</ele>
        <time>2021-11-19T01:05:07.065Z</time>
      </trkpt>
      <trkpt lat="47.489922" lon="7.913738">
        <ele>491.285998</ele>
        <time>2021-11-19T01:05:09.776Z</time>
      </trkpt>
      <trkpt lat="47.489951" lon="7.913893">
        <ele>491.015978</ele>
        <time>2021-11-19T01:05:10.969Z</time>
      </trkpt>
      <trkpt lat="47.489987" lon="7.914083">
        <ele>490.684685</ele>
        <time>2021-11-19T01:05:12.440Z</time>
      </trkpt>
      <trkpt lat="47.490283" lon="7.915612">
        <ele>487.917286</ele>
        <time>2021-11-19T01:05:23.984Z</time>
      </trkpt>
      <trkpt lat="47.490429" lon="7.916164">
        <ele>486.828319</ele>
        <time>2021-11-19T01:05:28.231Z</time>
      </trkpt>
      <trkpt lat="47.490607" lon="7.916690">
        <ele>485.747629</ele>
        <time>2021-11-19T01:05:32.440Z</time>
      </trkpt>
      <trkpt lat="47.490822" lon="7.917158">
        <ele>484.708014</ele>
        <time>2021-11-19T01:05:36.356Z</time>
      </trkpt>
      <trkpt lat="47.491324" lon="7.917985">
        <ele>481.847096</ele>
        <time>2021-11-19T01:05:43.807Z</time>
      </trkpt>
      <trkpt lat="47.492227" lon="7.918989">
        <ele>477.088603</ele>
        <time>2021-11-19T01:05:54.658Z</time>
      </trkpt>
      <trkpt lat="47.492584" lon="7.919482">
        <ele>474.875003</ele>
        <time>2021-11-19T01:05:59.264Z</time>
      </trkpt>
      <trkpt lat="47.492813" lon="7.919900">
        <ele>473.188049</ele>
        <time>2021-11-19T01:06:02.690Z</time>
      </trkpt>
      <trkpt lat="47.493132" lon="7.920716">
        <ele>470.232756</ele>
        <time>2021-11-19T01:06:08.746Z</time>
      </trkpt>
      <trkpt lat="47.493236" lon="7.921091">
        <ele>468.962038</ele>
        <time>2021-11-19T01:06:11.371Z</time>
      </trkpt>
      <trkpt lat="47.493307" lon="7.921373">
        <ele>468.066275</ele>
        <time>2021-11-19T01:06:13.346Z</time>
      </trkpt>
      <trkpt lat="47.493397" lon="7.921760">
        <ele>467.069069</ele>
        <time>2021-11-19T01:06:16.052Z</time>
      </trkpt>
      <trkpt lat="47.493708" lon="7.923049">
        <ele>463.734235</ele>
        <time>2021-11-19T01:06:25.241Z</time>
      </trkpt>
      <trkpt lat="47.494034" lon="7.924101">
        <ele>460.929314</ele>
        <time>2021-11-19T01:06:33.181Z</time>
      </trkpt>
      <trkpt lat="47.494438" lon="7.925289">
        <ele>457.747096</ele>
        <time>2021-11-19T01:06:42.259Z</time>
      </trkpt>
      <trkpt lat="47.494515" lon="7.925509">
        <ele>457.154279</ele>
        <time>2021-11-19T01:06:43.870Z</time>
      </trkpt>
      <trkpt lat="47.494945" lon="7.926765">
        <ele>453.719608</ele>
        <time>2021-11-19T01:06:53.250Z</time>
      </trkpt>
      <trkpt lat="47.495031" lon="7.927006">
        <ele>453.040570</ele>
        <time>2021-11-19T01:06:54.970Z</time>
      </trkpt>
      <trkpt lat="47.495268" lon="7.927740">
        <ele>451.013761</ele>
        <time>2021-11-19T01:07:00.342Z</time>
      </trkpt>
      <trkpt lat="47.495455" lon="7.928595">
        <ele>448.774761</ele>
        <time>2021-11-19T01:07:06.475Z</time>
      </trkpt>
      <trkpt lat="47.495530" lon="7.929063">
        <ele>448.091240</ele>
        <time>2021-11-19T01:07:09.783Z</time>
      </trkpt>
      <trkpt lat="47.495562" lon="7.929221">
        <ele>447.861372</ele>
        <time>2021-11-19T01:07:11.028Z</time>
      </trkpt>
      <trkpt lat="47.495622" lon="7.929400">
        <ele>447.582906</ele>
        <time>2021-11-19T01:07:12.535Z</time>
      </trkpt>
      <trkpt lat="47.495801" lon="7.929891">
        <ele>446.805396</ele>
        <time>2021-11-19T01:07:16.674Z</time>
      </trkpt>
      <trkpt lat="47.495985" lon="7.930428">
        <ele>445.966303</ele>
        <time>2021-11-19T01:07:21.067Z</time>
      </trkpt>
      <trkpt lat="47.496051" lon="7.930607">
        <ele>445.682123</ele>
        <time>2021-11-19T01:07:22.658Z</time>
      </trkpt>
      <trkpt lat="47.496117" lon="7.930763">
        <ele>445.425618</ele>
        <time>2021-11-19T01:07:24.044Z</time>
      </trkpt>
      <trkpt lat="47.496162" lon="7.930842">
        <ele>445.281620</ele>
        <time>2021-11-19T01:07:24.915Z</time>
      </trkpt>
      <trkpt lat="47.496205" lon="7.930904">
        <ele>445.157798</ele>
        <time>2021-11-19T01:07:25.540Z</time>
      </trkpt>
      <trkpt lat="47.496424" lon="7.931075">
        <ele>444.741787</ele>
        <time>2021-11-19T01:07:28.898Z</time>
      </trkpt>
      <trkpt lat="47.496998" lon="7.931330">
        <ele>443.807567</ele>
        <time>2021-11-19T01:07:36.473Z</time>
      </trkpt>
      <trkpt lat="47.497104" lon="7.931414">
        <ele>443.620135</ele>
        <time>2021-11-19T01:07:37.888Z</time>
      </trkpt>
      <trkpt lat="47.497221" lon="7.931528">
        <ele>443.401777</ele>
        <time>2021-11-19T01:07:39.541Z</time>
      </trkpt>
      <trkpt lat="47.497430" lon="7.931757">
        <ele>442.996418</ele>
        <time>2021-11-19T01:07:42.381Z</time>
      </trkpt>
      <trkpt lat="47.497676" lon="7.932013">
        <ele>442.527643</ele>
        <time>2021-11-19T01:07:45.542Z</time>
      </trkpt>
      <trkpt lat="47.497907" lon="7.932254">
        <ele>442.078050</ele>
        <time>2021-11-19T01:07:48.635Z</time>
      </trkpt>
      <trkpt lat="47.498068" lon="7.932426">
        <ele>441.749106</ele>
        <time>2021-11-19T01:07:50.770Z</time>
      </trkpt>
      <trkpt lat="47.498138" lon="7.932522">
        <ele>441.591012</ele>
        <time>2021-11-19T01:07:51.773Z</time>
      </trkpt>
      <trkpt lat="47.498196" lon="7.932613">
        <ele>441.450987</ele>
        <time>2021-11-19T01:07:52.684Z</time>
      </trkpt>
      <trkpt lat="47.498391" lon="7.932972">
        <ele>440.935410</ele>
        <time>2021-11-19T01:07:56.191Z</time>
      </trkpt>
      <trkpt lat="47.498431" lon="7.932995">
        <ele>440.864319</ele>
        <time>2021-11-19T01:07:56.682Z</time>
      </trkpt>
      <trkpt lat="47.498481" lon="7.933011">
        <ele>440.779571</ele>
        <time>2021-11-19T01:07:57.235Z</time>
      </trkpt>
      <trkpt lat="47.498638" lon="7.932929">
        <ele>440.503755</ele>
        <time>2021-11-19T01:07:59.247Z</time>
      </trkpt>
      <trkpt lat="47.498925" lon="7.932781">
        <ele>440.000260</ele>
        <time>2021-11-19T01:08:02.831Z</time>
      </trkpt>
      <trkpt lat="47.498997" lon="7.932758">
        <ele>439.878234</ele>
        <time>2021-11-19T01:08:03.624Z</time>
      </trkpt>
      <trkpt lat="47.499088" lon="7.932741">
        <ele>439.726280</ele>
        <time>2021-11-19T01:08:04.826Z</time>
      </trkpt>
      <trkpt lat="47.499242" lon="7.932757">
        <ele>439.470525</ele>
        <time>2021-11-19T01:08:06.689Z</time>
      </trkpt>
      <trkpt lat="47.499354" lon="7.932769">
        <ele>439.284492</ele>
        <time>2021-11-19T01:08:07.964Z</time>
      </trkpt>
      <trkpt lat="47.499421" lon="7.932805">
        <ele>439.214238</ele>
        <time>2021-11-19T01:08:08.834Z</time>
      </trkpt>
      <trkpt lat="47.499538" lon="7.932868">
        <ele>439.124245</ele>
        <time>2021-11-19T01:08:10.243Z</time>
      </trkpt>
      <trkpt lat="47.499822" lon="7.933272">
        <ele>438.839528</ele>
        <time>2021-11-19T01:08:14.791Z</time>
      </trkpt>
      <trkpt lat="47.499993" lon="7.933864">
        <ele>438.525118</ele>
        <time>2021-11-19T01:08:20.277Z</time>
      </trkpt>
      <trkpt lat="47.500034" lon="7.933965">
        <ele>438.467578</ele>
        <time>2021-11-19T01:08:21.166Z</time>
      </trkpt>
      <trkpt lat="47.500007" lon="7.933994">
        <ele>438.443465</ele>
        <time>2021-11-19T01:08:21.653Z</time>
      </trkpt>
      <trkpt lat="47.499971" lon="7.934127">
        <ele>438.373497</ele>
        <time>2021-11-19T01:08:23.374Z</time>
      </trkpt>
      <trkpt lat="47.499976" lon="7.934175">
        <ele>438.349780</ele>
        <time>2021-11-19T01:08:24.057Z</time>
      </trkpt>
      <trkpt lat="47.499991" lon="7.934221">
        <ele>438.324837</ele>
        <time>2021-11-19T01:08:24.452Z</time>
      </trkpt>
      <trkpt lat="47.500077" lon="7.934300">
        <ele>438.251676</ele>
        <time>2021-11-19T01:08:25.638Z</time>
      </trkpt>
      <trkpt lat="47.500111" lon="7.934299">
        <ele>438.227095</ele>
        <time>2021-11-19T01:08:26.179Z</time>
      </trkpt>
      <trkpt lat="47.500150" lon="7.934279">
        <ele>438.197261</ele>
        <time>2021-11-19T01:08:26.726Z</time>
      </trkpt>
      <trkpt lat="47.500213" lon="7.934131">
        <ele>438.111837</ele>
        <time>2021-11-19T01:08:29.068Z</time>
      </trkpt>
      <trkpt lat="47.500208" lon="7.934071">
        <ele>438.082315</ele>
        <time>2021-11-19T01:08:29.837Z</time>
      </trkpt>
      <trkpt lat="47.500275" lon="7.934029">
        <ele>438.029722</ele>
        <time>2021-11-19T01:08:30.698Z</time>
      </trkpt>
      <trkpt lat="47.500352" lon="7.933976">
        <ele>437.968341</ele>
        <time>2021-11-19T01:08:31.908Z</time>
      </trkpt>
      <trkpt lat="47.500386" lon="7.933937">
        <ele>437.940234</ele>
        <time>2021-11-19T01:08:32.554Z</time>
      </trkpt>
      <trkpt lat="47.500435" lon="7.933872">
        <ele>437.902883</ele>
        <time>2021-11-19T01:08:33.668Z</time>
      </trkpt>
      <trkpt lat="47.500843" lon="7.933102">
        <ele>437.527598</ele>
        <time>2021-11-19T01:08:42.879Z</time>
      </trkpt>
      <trkpt lat="47.500990" lon="7.932950">
        <ele>437.425809</ele>
        <time>2021-11-19T01:08:45.490Z</time>
      </trkpt>
      <trkpt lat="47.501075" lon="7.932885">
        <ele>437.371500</ele>
        <time>2021-11-19T01:08:46.498Z</time>
      </trkpt>
      <trkpt lat="47.501463" lon="7.932668">
        <ele>437.136052</ele>
        <time>2021-11-19T01:08:51.502Z</time>
      </trkpt>
      <trkpt lat="47.501794" lon="7.932466">
        <ele>436.932815</ele>
        <time>2021-11-19T01:08:56.174Z</time>
      </trkpt>
      <trkpt lat="47.501901" lon="7.932351">
        <ele>436.821978</ele>
        <time>2021-11-19T01:08:58.318Z</time>
      </trkpt>
      <trkpt lat="47.502023" lon="7.932158">
        <ele>436.670519</ele>
        <time>2021-11-19T01:09:00.338Z</time>
      </trkpt>
      <trkpt lat="47.502400" lon="7.931256">
        <ele>436.062729</ele>
        <time>2021-11-19T01:09:09.310Z</time>
      </trkpt>
      <trkpt lat="47.502613" lon="7.930856">
        <ele>435.770877</ele>
        <time>2021-11-19T01:09:13.394Z</time>
      </trkpt>
      <trkpt lat="47.502761" lon="7.930610">
        <ele>435.582119</ele>
        <time>2021-11-19T01:09:16.298Z</time>
      </trkpt>
      <trkpt lat="47.503014" lon="7.930220">
        <ele>435.214160</ele>
        <time>2021-11-19T01:09:21.021Z</time>
      </trkpt>
      <trkpt lat="47.503485" lon="7.929688">
        <ele>434.490682</ele>
        <time>2021-11-19T01:09:28.803Z</time>
      </trkpt>
      <trkpt lat="47.503528" lon="7.929650">
        <ele>434.429527</ele>
        <time>2021-11-19T01:09:29.288Z</time>
      </trkpt>
      <trkpt lat="47.503598" lon="7.929585">
        <ele>434.328620</ele>
        <time>2021-11-19T01:09:30.741Z</time>
      </trkpt>
      <trkpt lat="47.503815" lon="7.929426">
        <ele>434.032945</ele>
        <time>2021-11-19T01:09:33.429Z</time>
      </trkpt>
      <trkpt lat="47.504005" lon="7.929312">
        <ele>433.782592</ele>
        <time>2021-11-19T01:09:36.656Z</time>
      </trkpt>
      <trkpt lat="47.504650" lon="7.928941">
        <ele>432.458051</ele>
        <time>2021-11-19T01:09:44.376Z</time>
      </trkpt>
      <trkpt lat="47.504724" lon="7.928871">
        <ele>432.160709</ele>
        <time>2021-11-19T01:09:45.341Z</time>
      </trkpt>
      <trkpt lat="47.504799" lon="7.928777">
        <ele>431.827976</ele>
        <time>2021-11-19T01:09:46.215Z</time>
      </trkpt>
      <trkpt lat="47.505253" lon="7.928170">
        <ele>429.756628</ele>
        <time>2021-11-19T01:09:52.565Z</time>
      </trkpt>
      <trkpt lat="47.505814" lon="7.927657">
        <ele>427.523974</ele>
        <time>2021-11-19T01:09:58.866Z</time>
      </trkpt>
      <trkpt lat="47.505868" lon="7.927611">
        <ele>427.313026</ele>
        <time>2021-11-19T01:09:59.485Z</time>
      </trkpt>
      <trkpt lat="47.505881" lon="7.927601">
        <ele>427.263422</ele>
        <time>2021-11-19T01:09:59.622Z</time>
      </trkpt>
      <trkpt lat="47.506112" lon="7.927414">
        <ele>426.439768</ele>
        <time>2021-11-19T01:10:02.081Z</time>
      </trkpt>
      <trkpt lat="47.507856" lon="7.925990">
        <ele>420.681346</ele>
        <time>2021-11-19T01:10:22.853Z</time>
      </trkpt>
      <trkpt lat="47.508002" lon="7.925879">
        <ele>420.324002</ele>
        <time>2021-11-19T01:10:24.661Z</time>
      </trkpt>
      <trkpt lat="47.508106" lon="7.925799">
        <ele>420.068826</ele>
        <time>2021-11-19T01:10:26.058Z</time>
      </trkpt>
      <trkpt lat="47.508355" lon="7.925609">
        <ele>419.458918</ele>
        <time>2021-11-19T01:10:29.220Z</time>
      </trkpt>
      <trkpt lat="47.508667" lon="7.925295">
        <ele>418.637517</ele>
        <time>2021-11-19T01:10:33.476Z</time>
      </trkpt>
      <trkpt lat="47.509016" lon="7.924882">
        <ele>417.664741</ele>
        <time>2021-11-19T01:10:38.216Z</time>
      </trkpt>
      <trkpt lat="47.509032" lon="7.924863">
        <ele>417.620318</ele>
        <time>2021-11-19T01:10:38.419Z</time>
      </trkpt>
      <trkpt lat="47.509223" lon="7.924628">
        <ele>417.082439</ele>
        <time>2021-11-19T01:10:41.085Z</time>
      </trkpt>
      <trkpt lat="47.509572" lon="7.924311">
        <ele>416.195648</ele>
        <time>2021-11-19T01:10:45.442Z</time>
      </trkpt>
      <trkpt lat="47.509605" lon="7.924290">
        <ele>416.117854</ele>
        <time>2021-11-19T01:10:45.781Z</time>
      </trkpt>
      <trkpt lat="47.509676" lon="7.924247">
        <ele>415.951712</ele>
        <time>2021-11-19T01:10:46.570Z</time>
      </trkpt>
      <trkpt lat="47.509806" lon="7.924174">
        <ele>415.650585</ele>
        <time>2021-11-19T01:10:48.163Z</time>
      </trkpt>
      <trkpt lat="47.509886" lon="7.924134">
        <ele>415.467706</ele>
        <time>2021-11-19T01:10:49.141Z</time>
      </trkpt>
      <trkpt lat="47.509869" lon="7.923971">
        <ele>415.226424</ele>
        <time>2021-11-19T01:10:50.251Z</time>
      </trkpt>
      <trkpt lat="47.509817" lon="7.923703">
        <ele>414.818506</ele>
        <time>2021-11-19T01:10:52.411Z</time>
      </trkpt>
      <trkpt lat="47.509668" lon="7.923400">
        <ele>414.270215</ele>
        <time>2021-11-19T01:10:55.113Z</time>
      </trkpt>
      <trkpt lat="47.509595" lon="7.923295">
        <ele>414.049779</ele>
        <time>2021-11-19T01:10:56.339Z</time>
      </trkpt>
      <trkpt lat="47.509550" lon="7.923245">
        <ele>413.927922</ele>
        <time>2021-11-19T01:10:57.011Z</time>
      </trkpt>
      <trkpt lat="47.509583" lon="7.922962">
        <ele>413.631352</ele>
        <time>2021-11-19T01:10:59.080Z</time>
      </trkpt>
      <trkpt lat="47.509615" lon="7.922742">
        <ele>413.457357</ele>
        <time>2021-11-19T01:11:00.980Z</time>
      </trkpt>
      <trkpt lat="47.509688" lon="7.922616">
        <ele>413.329013</ele>
        <time>2021-11-19T01:11:02.131Z</time>
      </trkpt>
      <trkpt lat="47.510639" lon="7.921796">
        <ele>412.069303</ele>
        <time>2021-11-19T01:11:15.689Z</time>
      </trkpt>
      <trkpt lat="47.510872" lon="7.921477">
        <ele>411.706357</ele>
        <time>2021-11-19T01:11:19.787Z</time>
      </trkpt>
      <trkpt lat="47.511052" lon="7.921232">
        <ele>411.443906</ele>
        <time>2021-11-19T01:11:22.914Z</time>
      </trkpt>
      <trkpt lat="47.511067" lon="7.921207">
        <ele>411.419662</ele>
        <time>2021-11-19T01:11:23.185Z</time>
      </trkpt>
      <trkpt lat="47.511186" lon="7.920984">
        <ele>411.213617</ele>
        <time>2021-11-19T01:11:25.680Z</time>
      </trkpt>
      <trkpt lat="47.511371" lon="7.920637">
        <ele>410.893113</ele>
        <time>2021-11-19T01:11:29.372Z</time>
      </trkpt>
      <trkpt lat="47.511613" lon="7.920183">
        <ele>410.473811</ele>
        <time>2021-11-19T01:11:34.243Z</time>
      </trkpt>
      <trkpt lat="47.511632" lon="7.920105">
        <ele>410.413696</ele>
        <time>2021-11-19T01:11:34.990Z</time>
      </trkpt>
      <trkpt lat="47.511883" lon="7.920133">
        <ele>410.143516</ele>
        <time>2021-11-19T01:11:39.119Z</time>
      </trkpt>
      <trkpt lat="47.511964" lon="7.919989">
        <ele>410.007654</ele>
        <time>2021-11-19T01:11:40.575Z</time>
      </trkpt>
      <trkpt lat="47.512085" lon="7.919732">
        <ele>409.780531</ele>
        <time>2021-11-19T01:11:42.965Z</time>
      </trkpt>
      <trkpt lat="47.512255" lon="7.919538">
        <ele>409.379376</ele>
        <time>2021-11-19T01:11:45.391Z</time>
      </trkpt>
      <trkpt lat="47.512664" lon="7.919306">
        <ele>408.560660</ele>
        <time>2021-11-19T01:11:50.280Z</time>
      </trkpt>
      <trkpt lat="47.512938" lon="7.919052">
        <ele>407.956372</ele>
        <time>2021-11-19T01:11:53.845Z</time>
      </trkpt>
      <trkpt lat="47.513058" lon="7.918896">
        <ele>407.657864</ele>
        <time>2021-11-19T01:11:55.568Z</time>
      </trkpt>
      <trkpt lat="47.513160" lon="7.918764">
        <ele>407.404632</ele>
        <time>2021-11-19T01:11:57.045Z</time>
      </trkpt>
      <trkpt lat="47.513378" lon="7.918393">
        <ele>406.783784</ele>
        <time>2021-11-19T01:12:00.709Z</time>
      </trkpt>
      <trkpt lat="47.514255" lon="7.917714">
        <ele>405.278171</ele>
        <time>2021-11-19T01:12:11.783Z</time>
      </trkpt>
      <trkpt lat="47.514561" lon="7.917409">
        <ele>404.748582</ele>
        <time>2021-11-19T01:12:16.095Z</time>
      </trkpt>
      <trkpt lat="47.514635" lon="7.917349">
        <ele>404.627455</ele>
        <time>2021-11-19T01:12:17.038Z</time>
      </trkpt>
      <trkpt lat="47.515014" lon="7.917030">
        <ele>404.001560</ele>
        <time>2021-11-19T01:12:22.402Z</time>
      </trkpt>
      <trkpt lat="47.516391" lon="7.915243">
        <ele>402.272474</ele>
        <time>2021-11-19T01:12:45.104Z</time>
      </trkpt>
      <trkpt lat="47.516544" lon="7.914936">
        <ele>402.043463</ele>
        <time>2021-11-19T01:12:48.274Z</time>
      </trkpt>
      <trkpt lat="47.516569" lon="7.914864">
        <ele>401.995453</ele>
        <time>2021-11-19T01:12:49.053Z</time>
      </trkpt>
      <trkpt lat="47.516590" lon="7.914840">
        <ele>401.972160</ele>
        <time>2021-11-19T01:12:49.370Z</time>
      </trkpt>
      <trkpt lat="47.516626" lon="7.914830">
        <ele>401.939999</ele>
        <time>2021-11-19T01:12:49.849Z</time>
      </trkpt>
      <trkpt lat="47.516662" lon="7.914835">
        <ele>401.908251</ele>
        <time>2021-11-19T01:12:50.286Z</time>
      </trkpt>
      <trkpt lat="47.516748" lon="7.914873">
        <ele>401.829448</ele>
        <time>2021-11-19T01:12:51.366Z</time>
      </trkpt>
      <trkpt lat="47.516806" lon="7.914896">
        <ele>401.776726</ele>
        <time>2021-11-19T01:12:52.075Z</time>
      </trkpt>
      <trkpt lat="47.517140" lon="7.915259">
        <ele>401.412933</ele>
        <time>2021-11-19T01:12:57.282Z</time>
      </trkpt>
      <trkpt lat="47.517281" lon="7.915238">
        <ele>401.288504</ele>
        <time>2021-11-19T01:12:59.114Z</time>
      </trkpt>
      <trkpt lat="47.517688" lon="7.914418">
        <ele>400.685044</ele>
        <time>2021-11-19T01:13:07.633Z</time>
      </trkpt>
      <trkpt lat="47.518967" lon="7.912705">
        <ele>398.994777</ele>
        <time>2021-11-19T01:13:29.017Z</time>
      </trkpt>
      <trkpt lat="47.519054" lon="7.912589">
        <ele>398.879477</ele>
        <time>2021-11-19T01:13:30.362Z</time>
      </trkpt>
      <trkpt lat="47.519421" lon="7.912098">
        <ele>398.323600</ele>
        <time>2021-11-19T01:13:36.113Z</time>
      </trkpt>
      <trkpt lat="47.519720" lon="7.911522">
        <ele>397.767211</ele>
        <time>2021-11-19T01:13:41.934Z</time>
      </trkpt>
      <trkpt lat="47.519891" lon="7.911129">
        <ele>397.409171</ele>
        <time>2021-11-19T01:13:45.663Z</time>
      </trkpt>
      <trkpt lat="47.519997" lon="7.910833">
        <ele>397.152581</ele>
        <time>2021-11-19T01:13:48.265Z</time>
      </trkpt>
      <trkpt lat="47.520493" lon="7.908683">
        <ele>396.430255</ele>
        <time>2021-11-19T01:14:08.361Z</time>
      </trkpt>
      <trkpt lat="47.520738" lon="7.907839">
        <ele>396.234028</ele>
        <time>2021-11-19T01:14:18.866Z</time>
      </trkpt>
      <trkpt lat="47.520733" lon="7.907655">
        <ele>396.180584</ele>
        <time>2021-11-19T01:14:20.476Z</time>
      </trkpt>
      <trkpt lat="47.520551" lon="7.907422">
        <ele>396.077189</ele>
        <time>2021-11-19T01:14:24.526Z</time>
      </trkpt>
      <trkpt lat="47.520506" lon="7.907236">
        <ele>396.019848</ele>
        <time>2021-11-19T01:14:26.206Z</time>
      </trkpt>
      <trkpt lat="47.520515" lon="7.907103">
        <ele>395.981054</ele>
        <time>2021-11-19T01:14:27.968Z</time>
      </trkpt>
      <trkpt lat="47.520528" lon="7.906930">
        <ele>395.930535</ele>
        <time>2021-11-19T01:14:29.659Z</time>
      </trkpt>
      <trkpt lat="47.520566" lon="7.906668">
        <ele>395.852762</ele>
        <time>2021-11-19T01:14:31.937Z</time>
      </trkpt>
      <trkpt lat="47.520678" lon="7.906050">
        <ele>395.667057</ele>
        <time>2021-11-19T01:14:37.873Z</time>
      </trkpt>
      <trkpt lat="47.520989" lon="7.905130">
        <ele>394.749312</ele>
        <time>2021-11-19T01:14:46.328Z</time>
      </trkpt>
      <trkpt lat="47.521297" lon="7.904312">
        <ele>393.007548</ele>
        <time>2021-11-19T01:14:53.111Z</time>
      </trkpt>
      <trkpt lat="47.521749" lon="7.903429">
        <ele>390.946941</ele>
        <time>2021-11-19T01:15:00.539Z</time>
      </trkpt>
      <trkpt lat="47.521792" lon="7.903347">
        <ele>390.753864</ele>
        <time>2021-11-19T01:15:01.207Z</time>
      </trkpt>
      <trkpt lat="47.522013" lon="7.902637">
        <ele>388.665652</ele>
        <time>2021-11-19T01:15:06.402Z</time>
      </trkpt>
      <trkpt lat="47.522038" lon="7.902562">
        <ele>388.429877</ele>
        <time>2021-11-19T01:15:06.926Z</time>
      </trkpt>
      <trkpt lat="47.522065" lon="7.902526">
        <ele>388.278214</ele>
        <time>2021-11-19T01:15:07.259Z</time>
      </trkpt>
      <trkpt lat="47.522132" lon="7.902476">
        <ele>387.965024</ele>
        <time>2021-11-19T01:15:07.985Z</time>
      </trkpt>
      <trkpt lat="47.522260" lon="7.902356">
        <ele>387.332628</ele>
        <time>2021-11-19T01:15:09.479Z</time>
      </trkpt>
      <trkpt lat="47.522554" lon="7.901999">
        <ele>385.745514</ele>
        <time>2021-11-19T01:15:13.121Z</time>
      </trkpt>
      <trkpt lat="47.522688" lon="7.901843">
        <ele>385.033988</ele>
        <time>2021-11-19T01:15:14.706Z</time>
      </trkpt>
      <trkpt lat="47.523036" lon="7.901580">
        <ele>383.403069</ele>
        <time>2021-11-19T01:15:18.471Z</time>
      </trkpt>
      <trkpt lat="47.523340" lon="7.901197">
        <ele>382.420276</ele>
        <time>2021-11-19T01:15:22.431Z</time>
      </trkpt>
      <trkpt lat="47.523433" lon="7.901043">
        <ele>382.147699</ele>
        <time>2021-11-19T01:15:23.820Z</time>
      </trkpt>
      <trkpt lat="47.523567" lon="7.900820">
        <ele>381.753863</ele>
        <time>2021-11-19T01:15:25.921Z</time>
      </trkpt>
      <trkpt lat="47.523620" lon="7.900698">
        <ele>381.562470</ele>
        <time>2021-11-19T01:15:27.022Z</time>
      </trkpt>
      <trkpt lat="47.523648" lon="7.900606">
        <ele>381.429331</ele>
        <time>2021-11-19T01:15:27.707Z</time>
      </trkpt>
      <trkpt lat="47.523739" lon="7.900557">
        <ele>381.240148</ele>
        <time>2021-11-19T01:15:28.763Z</time>
      </trkpt>
      <trkpt lat="47.523878" lon="7.900445">
        <ele>380.930975</ele>
        <time>2021-11-19T01:15:30.729Z</time>
      </trkpt>
      <trkpt lat="47.523957" lon="7.900371">
        <ele>380.748340</ele>
        <time>2021-11-19T01:15:31.760Z</time>
      </trkpt>
      <trkpt lat="47.523989" lon="7.900340">
        <ele>380.673629</ele>
        <time>2021-11-19T01:15:32.226Z</time>
      </trkpt>
      <trkpt lat="47.523945" lon="7.900256">
        <ele>380.533371</ele>
        <time>2021-11-19T01:15:33.304Z</time>
      </trkpt>
      <trkpt lat="47.523890" lon="7.900131">
        <ele>380.336532</ele>
        <time>2021-11-19T01:15:34.718Z</time>
      </trkpt>
      <trkpt lat="47.523861" lon="7.900049">
        <ele>380.214407</ele>
        <time>2021-11-19T01:15:35.615Z</time>
      </trkpt>
      <trkpt lat="47.523896" lon="7.900001">
        <ele>380.121204</ele>
        <time>2021-11-19T01:15:36.171Z</time>
      </trkpt>
      <trkpt lat="47.524309" lon="7.899115">
        <ele>379.513895</ele>
        <time>2021-11-19T01:15:45.996Z</time>
      </trkpt>
      <trkpt lat="47.524360" lon="7.898951">
        <ele>379.515824</ele>
        <time>2021-11-19T01:15:47.699Z</time>
      </trkpt>
      <trkpt lat="47.524617" lon="7.898216">
        <ele>379.524666</ele>
        <time>2021-11-19T01:15:56.909Z</time>
      </trkpt>
      <trkpt lat="47.524834" lon="7.897636">
        <ele>379.531750</ele>
        <time>2021-11-19T01:16:04.098Z</time>
      </trkpt>
      <trkpt lat="47.525518" lon="7.896336">
        <ele>378.374464</ele>
        <time>2021-11-19T01:16:20.183Z</time>
      </trkpt>
      <trkpt lat="47.525590" lon="7.896117">
        <ele>378.151219</ele>
        <time>2021-11-19T01:16:21.821Z</time>
      </trkpt>
      <trkpt lat="47.525622" lon="7.895944">
        <ele>377.986818</ele>
        <time>2021-11-19T01:16:23.949Z</time>
      </trkpt>
      <trkpt lat="47.525631" lon="7.895583">
        <ele>377.655726</ele>
        <time>2021-11-19T01:16:26.337Z</time>
      </trkpt>
      <trkpt lat="47.525631" lon="7.895442">
        <ele>377.526496</ele>
        <time>2021-11-19T01:16:28.073Z</time>
      </trkpt>
      <trkpt lat="47.525603" lon="7.895265">
        <ele>377.359879</ele>
        <time>2021-11-19T01:16:29.421Z</time>
      </trkpt>
      <trkpt lat="47.525725" lon="7.895110">
        <ele>377.141701</ele>
        <time>2021-11-19T01:16:30.942Z</time>
      </trkpt>
      <trkpt lat="47.526257" lon="7.894278">
        <ele>375.029123</ele>
        <time>2021-11-19T01:16:39.138Z</time>
      </trkpt>
      <trkpt lat="47.526335" lon="7.893960">
        <ele>374.390593</ele>
        <time>2021-11-19T01:16:41.471Z</time>
      </trkpt>
      <trkpt lat="47.526401" lon="7.893964">
        <ele>374.205972</ele>
        <time>2021-11-19T01:16:42.107Z</time>
      </trkpt>
      <trkpt lat="47.526451" lon="7.893983">
        <ele>374.061697</ele>
        <time>2021-11-19T01:16:42.840Z</time>
      </trkpt>
      <trkpt lat="47.526504" lon="7.894030">
        <ele>373.889036</ele>
        <time>2021-11-19T01:16:43.509Z</time>
      </trkpt>
      <trkpt lat="47.526709" lon="7.893617">
        <ele>372.921652</ele>
        <time>2021-11-19T01:16:46.935Z</time>
      </trkpt>
      <trkpt lat="47.527011" lon="7.893061">
        <ele>371.785892</ele>
        <time>2021-11-19T01:16:51.940Z</time>
      </trkpt>
      <trkpt lat="47.527498" lon="7.892650">
        <ele>370.890289</ele>
        <time>2021-11-19T01:16:58.013Z</time>
      </trkpt>
      <trkpt lat="47.528003" lon="7.892732">
        <ele>370.078567</ele>
        <time>2021-11-19T01:17:04.263Z</time>
      </trkpt>
      <trkpt lat="47.528331" lon="7.892682">
        <ele>369.551722</ele>
        <time>2021-11-19T01:17:08.531Z</time>
      </trkpt>
      <trkpt lat="47.529235" lon="7.892158">
        <ele>368.407598</ele>
        <time>2021-11-19T01:17:20.230Z</time>
      </trkpt>
      <trkpt lat="47.529695" lon="7.891638">
        <ele>367.798419</ele>
        <time>2021-11-19T01:17:27.294Z</time>
      </trkpt>
      <trkpt lat="47.529714" lon="7.891609">
        <ele>367.769697</ele>
        <time>2021-11-19T01:17:27.557Z</time>
      </trkpt>
      <trkpt lat="47.529972" lon="7.891210">
        <ele>367.377021</ele>
        <time>2021-11-19T01:17:31.984Z</time>
      </trkpt>
      <trkpt lat="47.530322" lon="7.890690">
        <ele>367.237132</ele>
        <time>2021-11-19T01:17:38.135Z</time>
      </trkpt>
      <trkpt lat="47.530606" lon="7.890373">
        <ele>367.184141</ele>
        <time>2021-11-19T01:17:42.843Z</time>
      </trkpt>
      <trkpt lat="47.530988" lon="7.890093">
        <ele>367.120630</ele>
        <time>2021-11-19T01:17:48.898Z</time>
      </trkpt>
      <trkpt lat="47.531076" lon="7.890029">
        <ele>367.106022</ele>
        <time>2021-11-19T01:17:50.543Z</time>
      </trkpt>
      <trkpt lat="47.531265" lon="7.889937">
        <ele>367.076377</ele>
        <time>2021-11-19T01:17:53.637Z</time>
      </trkpt>
      <trkpt lat="47.531560" lon="7.889776">
        <ele>367.058127</ele>
        <time>2021-11-19T01:17:59.283Z</time>
      </trkpt>
      <trkpt lat="47.531843" lon="7.889349">
        <ele>367.666443</ele>
        <time>2021-11-19T01:18:06.872Z</time>
      </trkpt>
      <trkpt lat="47.532011" lon="7.888896">
        <ele>368.191894</ele>
        <time>2021-11-19T01:18:14.067Z</time>
      </trkpt>
      <trkpt lat="47.532288" lon="7.887728">
        <ele>369.450478</ele>
        <time>2021-11-19T01:18:32.900Z</time>
      </trkpt>
      <trkpt lat="47.532505" lon="7.887120">
        <ele>370.177310</ele>
        <time>2021-11-19T01:18:43.186Z</time>
      </trkpt>
      <trkpt lat="47.532650" lon="7.885569">
        <ele>371.876770</ele>
        <time>2021-11-19T01:19:05.948Z</time>
      </trkpt>
      <trkpt lat="47.532658" lon="7.884989">
        <ele>372.506411</ele>
        <time>2021-11-19T01:19:14.136Z</time>
      </trkpt>
      <trkpt lat="47.532670" lon="7.884773">
        <ele>372.651193</ele>
        <time>2021-11-19T01:19:17.438Z</time>
      </trkpt>
      <trkpt lat="47.532699" lon="7.884224">
        <ele>372.756546</ele>
        <time>2021-11-19T01:19:24.554Z</time>
      </trkpt>
      <trkpt lat="47.532713" lon="7.884122">
        <ele>372.776460</ele>
        <time>2021-11-19T01:19:25.718Z</time>
      </trkpt>
      <trkpt lat="47.532859" lon="7.883508">
        <ele>372.901000</ele>
        <time>2021-11-19T01:19:33.329Z</time>
      </trkpt>
      <trkpt lat="47.533014" lon="7.882949">
        <ele>373.016612</ele>
        <time>2021-11-19T01:19:39.548Z</time>
      </trkpt>
      <trkpt lat="47.533374" lon="7.881639">
        <ele>372.087407</ele>
        <time>2021-11-19T01:19:51.261Z</time>
      </trkpt>
      <trkpt lat="47.533606" lon="7.880961">
        <ele>371.035336</ele>
        <time>2021-11-19T01:19:57.056Z</time>
      </trkpt>
      <trkpt lat="47.533892" lon="7.880353">
        <ele>370.009690</ele>
        <time>2021-11-19T01:20:02.373Z</time>
      </trkpt>
      <trkpt lat="47.534616" lon="7.879490">
        <ele>366.259122</ele>
        <time>2021-11-19T01:20:11.543Z</time>
      </trkpt>
      <trkpt lat="47.534908" lon="7.878975">
        <ele>364.055617</ele>
        <time>2021-11-19T01:20:15.745Z</time>
      </trkpt>
      <trkpt lat="47.534946" lon="7.878790">
        <ele>363.422035</ele>
        <time>2021-11-19T01:20:17.020Z</time>
      </trkpt>
      <trkpt lat="47.534825" lon="7.878414">
        <ele>362.057283</ele>
        <time>2021-11-19T01:20:19.547Z</time>
      </trkpt>
      <trkpt lat="47.534778" lon="7.878270">
        <ele>361.533226</ele>
        <time>2021-11-19T01:20:20.698Z</time>
      </trkpt>
      <trkpt lat="47.534855" lon="7.878090">
        <ele>360.835038</ele>
        <time>2021-11-19T01:20:21.949Z</time>
      </trkpt>
      <trkpt lat="47.535088" lon="7.877742">
        <ele>359.186075</ele>
        <time>2021-11-19T01:20:25.044Z</time>
      </trkpt>
      <trkpt lat="47.535322" lon="7.877590">
        <ele>357.910312</ele>
        <time>2021-11-19T01:20:27.541Z</time>
      </trkpt>
      <trkpt lat="47.535551" lon="7.877487">
        <ele>356.715375</ele>
        <time>2021-11-19T01:20:29.696Z</time>
      </trkpt>
      <trkpt lat="47.535635" lon="7.877484">
        <ele>356.295846</ele>
        <time>2021-11-19T01:20:30.633Z</time>
      </trkpt>
      <trkpt lat="47.535770" lon="7.877432">
        <ele>355.599381</ele>
        <time>2021-11-19T01:20:31.885Z</time>
      </trkpt>
      <trkpt lat="47.535851" lon="7.877319">
        <ele>355.043814</ele>
        <time>2021-11-19T01:20:32.915Z</time>
      </trkpt>
      <trkpt lat="47.536444" lon="7.876177">
        <ele>351.074066</ele>
        <time>2021-11-19T01:20:42.293Z</time>
      </trkpt>
      <trkpt lat="47.536632" lon="7.875912">
        <ele>350.516031</ele>
        <time>2021-11-19T01:20:44.943Z</time>
      </trkpt>
      <trkpt lat="47.536757" lon="7.875759">
        <ele>350.167358</ele>
        <time>2021-11-19T01:20:46.889Z</time>
      </trkpt>
      <trkpt lat="47.536921" lon="7.875537">
        <ele>349.689642</ele>
        <time>2021-11-19T01:20:49.456Z</time>
      </trkpt>
      <trkpt lat="47.537182" lon="7.875293">
        <ele>349.026000</ele>
        <time>2021-11-19T01:20:53.166Z</time>
      </trkpt>
      <trkpt lat="47.537261" lon="7.875237">
        <ele>348.837681</ele>
        <time>2021-11-19T01:20:54.127Z</time>
      </trkpt>
      <trkpt lat="47.537716" lon="7.874966">
        <ele>347.833226</ele>
        <time>2021-11-19T01:21:00.016Z</time>
      </trkpt>
      <trkpt lat="47.538278" lon="7.874319">
        <ele>347.116738</ele>
        <time>2021-11-19T01:21:08.491Z</time>
      </trkpt>
      <trkpt lat="47.539222" lon="7.873416">
        <ele>346.066725</ele>
        <time>2021-11-19T01:21:22.937Z</time>
      </trkpt>
      <trkpt lat="47.539678" lon="7.872430">
        <ele>346.066725</ele>
        <time>2021-11-19T01:21:32.019Z</time>
      </trkpt>
      <trkpt lat="47.539841" lon="7.872151">
        <ele>346.066725</ele>
        <time>2021-11-19T01:21:34.787Z</time>
      </trkpt>
      <trkpt lat="47.539930" lon="7.872041">
        <ele>346.066725</ele>
        <time>2021-11-19T01:21:35.983Z</time>
      </trkpt>
      <trkpt lat="47.540034" lon="7.871970">
        <ele>346.066725</ele>
        <time>2021-11-19T01:21:37.251Z</time>
      </trkpt>
      <trkpt lat="47.540216" lon="7.871851">
        <ele>346.066725</ele>
        <time>2021-11-19T01:21:39.429Z</time>
      </trkpt>
      <trkpt lat="47.540265" lon="7.871808">
        <ele>346.066725</ele>
        <time>2021-11-19T01:21:40.034Z</time>
      </trkpt>
      <trkpt lat="47.540463" lon="7.871584">
        <ele>346.066725</ele>
        <time>2021-11-19T01:21:42.820Z</time>
      </trkpt>
      <trkpt lat="47.540693" lon="7.871390">
        <ele>346.066725</ele>
        <time>2021-11-19T01:21:45.693Z</time>
      </trkpt>
      <trkpt lat="47.540894" lon="7.871220">
        <ele>346.066725</ele>
        <time>2021-11-19T01:21:48.201Z</time>
      </trkpt>
      <trkpt lat="47.540933" lon="7.871187">
        <ele>346.066725</ele>
        <time>2021-11-19T01:21:48.675Z</time>
      </trkpt>
      <trkpt lat="47.541066" lon="7.871077">
        <ele>346.066725</ele>
        <time>2021-11-19T01:21:50.437Z</time>
      </trkpt>
    </trkseg>
  </trk>
</gpx>